[[{"header":{"parameterUnit":"m.s-1","parameterCategory":1,"la1":30.6,"la2":29.2853,"lo1":-89.7004,"lo2":-87.6739,"dy":0.0162,"dx":0.0183,"nx":112,"ny":82,"refTime":"2026-04-22T00:00:00:Z","depth":0,"parameterNumber":2,"parameterNumberName":"U-component_of_WINDS"},"data":[0.0,0.0,0.0,0.0,0.0,0.0,0.0,0.0,0.0,0.0,0.0,0.0,0.0,0.0,0.0,0.0,0.0,0.0,0.0,0.0,0.0,0.0,0.0,0.0,0.0,0.0,0.0,0.0,0.0,0.0,0.0,0.0,0.0,0.0,0.0,0.0,0.0,0.0,0.0,0.0,0.0,0.0,0.0,0.0,0.0,0.0,0.0,0.0,0.0,0.0,0.0,0.0,0.0,0.0,0.0,0.0,0.0,0.0,0.0,0.0,0.0,0.0,0.0,0.0,0.0,0.0,0.0,0.0,0.0,0.0,0.0,0.0,0.0,0.0,0.0,0.0,0.0,0.0,0.0,0.0,0.0,0.0,0.0,0.0,0.0,0.0,0.0,0.0,0.0,0.0,-3.8125,-4.3649,-4.9135,-5.1631,-4.9847,-4.7336,-4.4,-3.9686,0.0,0.0,0.0,0.0,0.0,0.0,0.0,0.0,0.0,0.0,0.0,0.0,0.0,0.0,0.0,0.0,0.0,0.0,0.0,0.0,0.0,0.0,0.0,0.0,0.0,0.0,0.0,0.0,0.0,0.0,0.0,0.0,0.0,0.0,0.0,0.0,0.0,0.0,0.0,0.0,0.0,0.0,0.0,0.0,0.0,0.0,0.0,0.0,0.0,0.0,0.0,0.0,0.0,0.0,0.0,0.0,0.0,0.0,0.0,0.0,0.0,0.0,0.0,0.0,0.0,0.0,0.0,0.0,0.0,0.0,0.0,0.0,0.0,0.0,0.0,0.0,0.0,0.0,0.0,0.0,0.0,0.0,0.0,0.0,0.0,0.0,0.0,0.0,0.0,0.0,0.0,0.0,0.0,0.0,0.0,0.0,0.0,0.0,0.0,0.0,0.0,0.0,0.0,0.0,-4.0482,-4.7764,-5.1292,-5.2432,-5.0681,-4.8095,-4.5005,-4.1444,0.0,0.0,0.0,0.0,0.0,0.0,0.0,0.0,0.0,0.0,0.0,0.0,0.0,0.0,0.0,0.0,0.0,0.0,0.0,0.0,0.0,0.0,0.0,0.0,0.0,0.0,0.0,0.0,0.0,0.0,0.0,0.0,0.0,0.0,0.0,0.0,0.0,0.0,0.0,0.0,0.0,0.0,0.0,0.0,0.0,0.0,0.0,0.0,0.0,0.0,0.0,0.0,0.0,0.0,0.0,0.0,0.0,0.0,0.0,0.0,0.0,0.0,0.0,0.0,0.0,0.0,0.0,0.0,0.0,0.0,0.0,0.0,0.0,0.0,0.0,0.0,0.0,0.0,0.0,0.0,0.0,0.0,0.0,0.0,0.0,0.0,0.0,0.0,0.0,0.0,0.0,0.0,0.0,0.0,0.0,0.0,0.0,0.0,0.0,0.0,0.0,0.0,0.0,-3.9558,-4.4737,-5.0056,-5.2134,-5.2585,-5.1233,-4.7931,-4.4441,-4.0882,-3.5549,0.0,0.0,0.0,0.0,0.0,0.0,0.0,0.0,0.0,0.0,0.0,0.0,0.0,0.0,0.0,0.0,0.0,0.0,0.0,0.0,0.0,0.0,0.0,0.0,0.0,0.0,0.0,0.0,0.0,0.0,0.0,0.0,0.0,0.0,0.0,0.0,0.0,0.0,0.0,0.0,0.0,0.0,0.0,0.0,0.0,0.0,0.0,0.0,0.0,0.0,0.0,0.0,0.0,0.0,0.0,0.0,0.0,0.0,0.0,0.0,0.0,0.0,0.0,0.0,0.0,0.0,0.0,0.0,0.0,0.0,0.0,0.0,0.0,0.0,0.0,0.0,0.0,0.0,0.0,0.0,0.0,0.0,0.0,0.0,0.0,0.0,0.0,0.0,0.0,0.0,0.0,0.0,0.0,0.0,0.0,0.0,0.0,0.0,0.0,0.0,0.0,0.0,-4.41,-4.7761,-5.1111,-5.2115,-5.2064,-5.0899,-4.7148,-4.3248,-3.9494,-3.4519,0.0,0.0,0.0,0.0,0.0,0.0,0.0,0.0,0.0,0.0,0.0,0.0,0.0,0.0,0.0,0.0,0.0,0.0,0.0,0.0,0.0,0.0,0.0,0.0,0.0,0.0,0.0,0.0,0.0,0.0,0.0,0.0,0.0,0.0,0.0,0.0,0.0,0.0,0.0,0.0,0.0,0.0,0.0,0.0,0.0,0.0,0.0,0.0,0.0,0.0,0.0,0.0,0.0,0.0,0.0,0.0,0.0,0.0,0.0,0.0,0.0,0.0,0.0,0.0,0.0,0.0,0.0,0.0,0.0,0.0,0.0,0.0,0.0,0.0,0.0,0.0,0.0,0.0,0.0,0.0,0.0,0.0,0.0,0.0,0.0,0.0,0.0,0.0,0.0,0.0,0.0,0.0,0.0,0.0,0.0,0.0,0.0,0.0,0.0,0.0,0.0,0.0,-4.4495,-4.7441,-5.0781,-5.1199,-5.054,-4.8842,-4.552,-4.1756,-3.7551,-3.2507,0.0,0.0,0.0,0.0,0.0,0.0,0.0,0.0,0.0,0.0,0.0,0.0,0.0,0.0,0.0,0.0,0.0,0.0,0.0,0.0,0.0,0.0,0.0,0.0,0.0,0.0,0.0,0.0,0.0,0.0,0.0,0.0,0.0,0.0,0.0,0.0,0.0,0.0,0.0,0.0,0.0,0.0,0.0,0.0,0.0,0.0,0.0,0.0,0.0,0.0,0.0,0.0,0.0,0.0,0.0,0.0,0.0,0.0,0.0,0.0,0.0,0.0,0.0,0.0,0.0,0.0,0.0,0.0,0.0,0.0,0.0,0.0,0.0,0.0,0.0,0.0,0.0,0.0,0.0,0.0,0.0,0.0,0.0,0.0,0.0,0.0,0.0,0.0,0.0,0.0,0.0,0.0,0.0,0.0,0.0,0.0,0.0,0.0,0.0,0.0,0.0,0.0,-4.4484,-4.7537,-4.9814,-5.0515,-4.9935,-4.7678,-4.3936,-3.9902,-3.5679,0.0,0.0,0.0,0.0,0.0,0.0,0.0,0.0,0.0,0.0,0.0,0.0,0.0,0.0,0.0,0.0,0.0,0.0,0.0,0.0,0.0,0.0,0.0,0.0,0.0,0.0,0.0,0.0,0.0,0.0,0.0,0.0,0.0,0.0,0.0,0.0,0.0,0.0,0.0,0.0,0.0,0.0,0.0,0.0,0.0,0.0,0.0,0.0,0.0,0.0,0.0,0.0,0.0,0.0,0.0,0.0,0.0,0.0,0.0,0.0,0.0,0.0,0.0,0.0,0.0,0.0,0.0,0.0,0.0,0.0,0.0,0.0,0.0,0.0,0.0,0.0,0.0,0.0,0.0,0.0,0.0,0.0,0.0,0.0,0.0,0.0,0.0,0.0,0.0,0.0,0.0,0.0,0.0,0.0,0.0,0.0,0.0,0.0,0.0,0.0,0.0,0.0,-3.9252,-4.3507,-4.6787,-4.8674,-4.9386,-4.8717,-4.6202,-4.2202,-3.8028,-3.3836,0.0,0.0,0.0,0.0,0.0,0.0,0.0,0.0,0.0,0.0,0.0,0.0,0.0,0.0,0.0,0.0,0.0,0.0,0.0,0.0,0.0,0.0,0.0,0.0,0.0,0.0,0.0,0.0,0.0,0.0,0.0,0.0,0.0,0.0,0.0,0.0,0.0,0.0,0.0,0.0,0.0,0.0,0.0,0.0,0.0,0.0,0.0,0.0,0.0,0.0,0.0,0.0,0.0,0.0,0.0,0.0,0.0,0.0,0.0,0.0,0.0,0.0,0.0,0.0,0.0,0.0,0.0,0.0,0.0,0.0,0.0,0.0,0.0,0.0,0.0,0.0,0.0,0.0,0.0,0.0,0.0,0.0,0.0,0.0,0.0,0.0,0.0,0.0,0.0,0.0,0.0,0.0,0.0,0.0,0.0,0.0,0.0,0.0,0.0,0.0,0.0,0.0,-3.7262,-4.146,-4.4952,-4.7404,-4.7701,-4.6698,-4.4209,-4.0271,-3.616,0.0,0.0,0.0,0.0,0.0,0.0,0.0,0.0,0.0,0.0,0.0,0.0,0.0,0.0,0.0,0.0,0.0,0.0,0.0,0.0,0.0,0.0,0.0,0.0,0.0,0.0,0.0,0.0,0.0,0.0,0.0,0.0,0.0,0.0,0.0,0.0,0.0,0.0,0.0,0.0,0.0,0.0,0.0,0.0,0.0,0.0,0.0,0.0,0.0,0.0,0.0,0.0,0.0,0.0,0.0,0.0,0.0,0.0,0.0,0.0,0.0,0.0,0.0,0.0,0.0,0.0,0.0,0.0,0.0,0.0,0.0,0.0,0.0,0.0,0.0,0.0,0.0,0.0,0.0,0.0,0.0,0.0,0.0,0.0,0.0,0.0,0.0,0.0,0.0,0.0,0.0,0.0,0.0,0.0,0.0,0.0,0.0,0.0,0.0,0.0,0.0,0.0,0.0,-3.7336,-4.2017,-4.5398,-4.6735,-4.7367,-4.6921,-4.5064,-4.1126,-3.7002,-3.289,0.0,0.0,0.0,0.0,0.0,0.0,0.0,0.0,0.0,0.0,0.0,0.0,0.0,0.0,0.0,0.0,0.0,0.0,0.0,0.0,0.0,0.0,0.0,0.0,0.0,0.0,0.0,0.0,0.0,0.0,0.0,0.0,0.0,0.0,0.0,0.0,0.0,0.0,0.0,0.0,0.0,0.0,0.0,0.0,0.0,0.0,0.0,0.0,0.0,0.0,0.0,0.0,0.0,0.0,0.0,0.0,0.0,0.0,0.0,0.0,0.0,0.0,0.0,0.0,0.0,0.0,0.0,0.0,0.0,0.0,0.0,0.0,0.0,0.0,0.0,0.0,0.0,0.0,0.0,0.0,0.0,0.0,0.0,0.0,0.0,0.0,0.0,0.0,0.0,0.0,0.0,0.0,0.0,0.0,0.0,0.0,0.0,0.0,0.0,0.0,0.0,0.0,-3.642,-4.1237,-4.4729,-4.5881,-4.6438,-4.6215,-4.4878,-4.1274,-3.7485,-3.3733,0.0,0.0,0.0,0.0,0.0,0.0,0.0,0.0,0.0,0.0,0.0,0.0,0.0,0.0,0.0,0.0,0.0,0.0,0.0,0.0,0.0,0.0,0.0,0.0,0.0,0.0,0.0,0.0,0.0,0.0,0.0,0.0,0.0,0.0,0.0,0.0,0.0,0.0,0.0,0.0,0.0,0.0,0.0,0.0,0.0,0.0,0.0,0.0,0.0,0.0,0.0,0.0,0.0,0.0,0.0,0.0,0.0,0.0,0.0,0.0,0.0,0.0,0.0,0.0,0.0,0.0,0.0,0.0,0.0,0.0,0.0,0.0,0.0,0.0,0.0,0.0,0.0,0.0,0.0,0.0,0.0,0.0,0.0,0.0,0.0,0.0,0.0,0.0,0.0,0.0,0.0,0.0,0.0,0.0,0.0,0.0,0.0,0.0,0.0,0.0,0.0,0.0,-3.4971,-3.9751,-4.3392,-4.4989,-4.5249,-4.4989,-4.4172,-4.1126,-3.7856,-3.4624,0.0,0.0,0.0,0.0,0.0,0.0,0.0,0.0,0.0,0.0,0.0,0.0,0.0,0.0,0.0,0.0,0.0,0.0,0.0,0.0,0.0,0.0,0.0,0.0,0.0,0.0,0.0,0.0,0.0,0.0,0.0,0.0,0.0,0.0,0.0,0.0,0.0,0.0,0.0,0.0,0.0,0.0,0.0,0.0,0.0,0.0,0.0,0.0,0.0,0.0,0.0,0.0,0.0,0.0,0.0,0.0,0.0,0.0,0.0,0.0,-3.5545,-3.3978,0.0,0.0,0.0,0.0,0.0,0.0,0.0,0.0,0.0,0.0,0.0,0.0,0.0,0.0,0.0,0.0,0.0,0.0,0.0,0.0,0.0,0.0,0.0,0.0,0.0,0.0,0.0,0.0,0.0,0.0,0.0,0.0,0.0,0.0,0.0,0.0,0.0,0.0,0.0,0.0,-3.5045,-3.9751,-4.3169,-4.4172,-4.4878,-4.5212,-4.5026,-4.2017,-3.8971,-3.6346,-3.1552,0.0,0.0,0.0,0.0,0.0,0.0,0.0,0.0,0.0,0.0,0.0,0.0,0.0,0.0,0.0,0.0,0.0,0.0,0.0,0.0,0.0,0.0,0.0,0.0,0.0,0.0,0.0,0.0,0.0,0.0,0.0,0.0,0.0,0.0,0.0,0.0,0.0,0.0,0.0,0.0,0.0,0.0,0.0,0.0,0.0,0.0,0.0,0.0,0.0,0.0,0.0,0.0,0.0,0.0,0.0,0.0,0.0,0.0,0.0,-3.9917,-3.784,0.0,0.0,0.0,0.0,0.0,0.0,0.0,0.0,0.0,0.0,0.0,0.0,0.0,0.0,0.0,0.0,0.0,0.0,0.0,0.0,0.0,0.0,0.0,0.0,0.0,0.0,0.0,0.0,0.0,0.0,0.0,0.0,0.0,0.0,0.0,0.0,0.0,0.0,0.0,0.0,-3.5033,-3.9069,-4.1943,-4.276,-4.3243,-4.3503,-4.3503,-4.1623,-3.9342,-3.6866,-3.2816,0.0,0.0,0.0,0.0,0.0,0.0,0.0,0.0,0.0,0.0,0.0,0.0,0.0,0.0,0.0,0.0,0.0,0.0,0.0,0.0,0.0,0.0,0.0,0.0,0.0,0.0,0.0,0.0,0.0,0.0,0.0,0.0,0.0,0.0,0.0,0.0,0.0,0.0,0.0,0.0,0.0,0.0,0.0,0.0,0.0,0.0,0.0,0.0,0.0,0.0,0.0,0.0,0.0,-4.9687,-5.0469,-5.1289,-5.0429,-5.0466,-5.0967,-4.581,-4.3459,-4.3127,-4.1178,0.0,0.0,0.0,0.0,0.0,0.0,0.0,0.0,0.0,0.0,0.0,0.0,0.0,0.0,0.0,0.0,0.0,0.0,0.0,0.0,0.0,0.0,-3.9703,-3.9612,-3.8927,-3.743,-3.4212,0.0,0.0,0.0,0.0,0.0,0.0,0.0,0.0,0.0,0.0,0.0,-3.5019,-3.8349,-4.0657,-4.1311,-4.1497,-4.1609,-4.1609,-4.088,-3.938,-3.7039,-3.3968,-3.1366,0.0,0.0,0.0,0.0,0.0,0.0,0.0,0.0,0.0,0.0,0.0,0.0,0.0,0.0,0.0,0.0,0.0,0.0,0.0,0.0,0.0,0.0,0.0,0.0,0.0,0.0,0.0,0.0,0.0,0.0,0.0,0.0,-3.467,-3.6288,0.0,0.0,0.0,0.0,0.0,0.0,0.0,0.0,0.0,0.0,0.0,0.0,0.0,-4.8629,-5.0193,-5.1953,-5.332,-5.4297,-5.4413,-5.492,-5.574,-5.4838,-5.4949,-5.5646,-5.4083,0.0,-4.6623,-4.4109,0.0,0.0,0.0,0.0,0.0,0.0,0.0,0.0,0.0,0.0,0.0,0.0,0.0,0.0,0.0,0.0,0.0,0.0,0.0,0.0,0.0,0.0,-4.2191,-4.2079,-4.1277,-4.062,-4.0854,-3.7576,-3.4309,-3.3422,-3.2199,-3.078,0.0,0.0,0.0,0.0,0.0,0.0,-3.5167,-3.8349,-4.0434,-4.0546,-4.1163,-4.1609,-4.1609,-4.088,-3.964,-3.7856,-3.538,-3.2593,-2.9518,-2.8244,0.0,0.0,0.0,0.0,0.0,0.0,0.0,0.0,0.0,0.0,0.0,0.0,0.0,0.0,0.0,0.0,0.0,0.0,0.0,0.0,0.0,0.0,0.0,0.0,0.0,0.0,0.0,0.0,0.0,-3.5168,-3.7898,-3.9658,-3.9146,-3.8818,0.0,0.0,0.0,0.0,0.0,0.0,0.0,0.0,0.0,-4.8514,-5.1132,-5.3085,-5.4296,-5.6055,-5.7343,-5.8163,-5.8162,-5.8629,-5.9447,-5.8546,-5.8384,-5.8691,-5.7791,-5.5862,-5.301,-4.9393,-4.6571,-4.4186,0.0,0.0,0.0,0.0,-3.9738,-4.0585,-4.1393,-4.17,-4.1546,-4.0739,0.0,0.0,0.0,0.0,0.0,0.0,0.0,-3.8879,-4.0988,-4.2737,-4.3779,-4.3147,-4.2598,-4.2234,-4.2134,-4.0498,-3.8639,-3.7316,-3.5176,-3.318,-3.1863,-2.9975,0.0,0.0,0.0,-3.4114,-3.5739,-3.809,-3.9606,-3.9606,-3.994,-4.0125,-4.0125,-3.98,-3.903,-3.7845,-3.5956,-3.3981,-3.2056,-2.9461,-2.6736,0.0,0.0,0.0,0.0,0.0,0.0,0.0,0.0,0.0,0.0,0.0,0.0,0.0,0.0,0.0,0.0,0.0,0.0,0.0,0.0,0.0,0.0,0.0,0.0,0.0,0.0,0.0,0.0,-3.9075,-4.1543,-4.3485,-4.3228,-4.2987,0.0,0.0,0.0,0.0,0.0,0.0,-4.9101,-5.0273,-5.1523,-5.3007,-5.5585,-5.7343,-5.8241,-5.9765,-6.0702,-6.1051,-6.1089,-6.1282,-6.1668,-6.104,-6.0721,-6.0714,-6.0046,-5.924,-5.8094,-5.3974,-5.0836,-4.8366,-4.5802,-4.4691,-4.4508,-4.4658,-4.5086,-4.574,-4.6595,-4.6749,-4.6479,-4.5817,-4.4038,-4.1847,-4.0408,0.0,0.0,0.0,0.0,-4.1524,-4.3592,-4.46,-4.4851,-4.4065,-4.3629,-4.3217,-4.2618,-4.2333,-4.1675,-3.9951,-3.7558,-3.5364,-3.4042,-3.2124,0.0,-3.2391,-3.3731,-3.5128,-3.6527,-3.8057,-3.8979,-3.8964,-3.8979,-3.8979,-3.8964,-3.8921,-3.8485,-3.7451,-3.6256,-3.4927,-3.3437,-3.0331,-2.7732,-2.5812,0.0,0.0,0.0,0.0,0.0,0.0,0.0,0.0,0.0,0.0,0.0,0.0,0.0,0.0,0.0,0.0,0.0,0.0,0.0,0.0,0.0,0.0,0.0,0.0,0.0,0.0,0.0,0.0,0.0,-4.7854,-4.8199,0.0,0.0,0.0,0.0,-5.0701,-5.0976,-5.1795,-5.3592,-5.5306,-5.6631,-5.7529,-6.0068,-6.1786,-6.2684,-6.3584,-6.3662,-6.2881,-6.2874,-6.2478,-6.1697,-6.1649,-6.1635,-6.1621,-6.153,-6.0945,-5.9825,-5.6333,-5.3833,-5.1961,-5.003,-4.8747,-4.8039,-4.8807,-4.9125,-4.9279,-5.0135,-4.9894,-4.9202,-4.9163,-4.6585,-4.3459,-4.3163,-4.1669,0.0,0.0,-4.346,-4.4411,-4.5359,-4.5542,-4.5417,-4.5251,-4.4538,-4.3855,-4.3818,-4.325,-4.2106,-3.9849,-3.9213,-3.8289,-3.5901,0.0,-3.5027,-3.5111,-3.5795,-3.6564,-3.7411,-3.8389,-3.8964,-3.8906,-3.895,-3.8964,-3.8906,-3.8892,-3.8227,-3.6662,-3.6477,-3.5,-3.1862,-3.0861,-2.9163,-2.6607,-2.4068,0.0,0.0,0.0,0.0,0.0,0.0,0.0,0.0,0.0,0.0,0.0,0.0,0.0,0.0,0.0,0.0,0.0,0.0,0.0,0.0,0.0,0.0,0.0,0.0,0.0,0.0,0.0,0.0,-5.0757,-5.2018,0.0,-5.3347,-5.2099,-5.2461,-5.5351,-5.6092,-5.7418,-5.968,-6.0381,-6.1122,-6.1981,-6.2919,-6.3505,-6.3817,-6.4129,-6.3853,-6.299,-6.2986,-6.2553,-6.1686,-6.1681,-6.1668,-6.1644,-6.1573,-6.131,-6.0773,-5.8898,-5.6784,-5.4536,-5.215,-5.1313,-5.1442,-5.1145,-5.1356,-5.1895,-5.2202,-5.1741,-5.0788,-4.9541,-4.7694,-4.5824,-4.5095,-4.3833,-4.2976,-4.4199,-4.4827,-4.529,-4.6136,-4.5851,-4.5348,-4.5239,-4.4533,-4.3897,-4.3897,-4.3738,-4.3199,-4.186,-4.0742,-3.9709,-3.8826,-3.765,-3.7008,-3.7562,-3.7352,-3.7412,-3.822,-3.8641,-3.8848,-3.8818,-3.8848,-3.8848,-3.8818,-3.8332,-3.775,-3.7198,-3.5653,-3.3984,-3.2329,-3.0033,-2.7874,-2.579,-2.4277,-2.2725,0.0,0.0,0.0,0.0,0.0,0.0,0.0,0.0,0.0,0.0,0.0,0.0,0.0,0.0,0.0,0.0,0.0,0.0,0.0,0.0,0.0,0.0,0.0,0.0,0.0,-4.8048,-5.2225,-5.4319,-5.613,-5.7262,-5.736,-5.664,-5.7107,-5.9448,-6.0149,-6.1358,-6.3344,-6.346,-6.3849,-6.4708,-6.4747,-6.4864,-6.5137,-6.5137,-6.4587,-6.3449,-6.3449,-6.282,-6.1718,-6.1718,-6.1663,-6.1584,-6.1529,-6.14,-6.1174,-6.0187,-5.8606,-5.6634,-5.4545,-5.3899,-5.4023,-5.3405,-5.3549,-5.401,-5.3741,-5.3087,-5.2085,-5.0401,-4.9098,-4.7996,-4.7188,-4.6336,-4.5786,-4.6392,-4.6605,-4.6749,-4.7308,-4.652,-4.5605,-4.5539,-4.4642,-4.38,-4.38,-4.3865,-4.3781,-4.3225,-4.2099,-4.1014,-4.0428,-3.9312,-3.8582,-3.8826,-3.8302,-3.8102,-3.8615,-3.8765,-3.8773,-3.878,-3.881,-3.8773,-3.878,-3.8,-3.7382,-3.7125,-3.5018,-3.322,-3.1849,-2.9301,-2.7064,-2.5257,-2.4187,-2.3012,-2.1702,0.0,0.0,0.0,0.0,0.0,0.0,0.0,0.0,0.0,0.0,0.0,0.0,0.0,0.0,0.0,0.0,0.0,0.0,0.0,0.0,0.0,0.0,0.0,-4.8224,-5.2302,-5.6013,-5.8652,-6.0531,-6.1644,-6.1755,-6.0973,-6.1199,-6.2956,-6.3068,-6.3414,-6.4275,-6.4343,-6.4726,-6.5546,-6.5585,-6.5975,-6.6756,-6.6795,-6.5978,-6.4299,-6.4299,-6.3399,-6.1718,-6.1718,-6.1657,-6.1595,-6.144,-6.1324,-6.1126,-6.0123,-5.9153,-5.8214,-5.7352,-5.6483,-5.5703,-5.5703,-5.5703,-5.5588,-5.478,-5.3933,-5.3007,-5.1944,-5.0774,-4.9762,-4.9484,-4.9176,-4.889,-4.889,-4.889,-4.889,-4.889,-4.7564,-4.6205,-4.6168,-4.4864,-4.3617,-4.3617,-4.3701,-4.3804,-4.3804,-4.3267,-4.2284,-4.0563,-4.0156,-3.9822,-3.8936,-3.875,0.0,-3.8689,-3.8765,-3.878,-3.8689,-3.8765,-3.878,-3.8689,-3.7918,-3.7125,-3.634,-3.4688,-3.2669,-3.032,-2.8713,-2.702,-2.5176,-2.3968,-2.3221,-2.2924,0.0,0.0,0.0,0.0,0.0,0.0,0.0,0.0,0.0,0.0,0.0,0.0,0.0,0.0,0.0,0.0,0.0,0.0,0.0,0.0,0.0,-4.5958,-4.8845,-5.0183,-5.4582,-5.8414,-6.0543,-6.2326,-6.3422,-6.3515,-6.277,-6.2996,-6.4745,-6.4314,-6.431,-6.5199,-6.5236,-6.5077,-6.4687,-6.5273,-6.5702,-6.5936,-6.6522,-6.5978,-6.4299,-6.4299,-6.3399,-6.1718,-6.1718,-6.1651,-6.1534,-6.131,-6.1205,-6.1107,-6.0668,-5.9634,-5.8226,-5.733,-5.6483,-5.5703,-5.5703,-5.5703,-5.5588,-5.478,-5.3933,-5.3018,-5.2027,-5.0899,-4.9897,-4.9683,-4.9368,-4.9115,-4.9047,-4.8979,-4.8761,-4.8098,-4.7529,-4.6741,-4.5564,-4.4866,-4.4316,-4.3727,-4.3701,-4.3804,-4.3804,-4.3652,-4.3167,-4.2047,-4.084,-3.993,-3.9731,-3.9102,-3.8689,-3.8689,-3.8704,-3.8719,-3.8689,-3.8704,-3.8719,-3.8689,-3.7441,-3.6523,-3.6303,-3.3623,-3.1494,-3.0246,-2.8679,-2.7143,-2.5649,-2.5078,-2.4414,0.0,0.0,0.0,0.0,0.0,0.0,0.0,0.0,0.0,0.0,0.0,0.0,0.0,0.0,0.0,0.0,0.0,0.0,0.0,0.0,0.0,0.0,-4.9666,-5.2756,-5.5125,-5.7998,-6.0672,-6.2915,-6.4399,-6.5234,-6.5308,-6.487,-6.5017,-6.6024,-6.5633,-6.5553,-6.6092,-6.5429,-6.5155,-6.5353,-6.5155,-6.539,-6.6092,-6.6249,-6.5624,-6.4299,-6.3945,-6.3047,-6.1718,-6.1718,-6.1648,-6.1486,-6.1292,-6.1174,-6.106,-6.0883,-6.0012,-5.8704,0.0,0.0,0.0,0.0,-5.5703,-5.5626,-5.5164,-5.4434,-5.3567,-5.2571,-5.1491,-5.0507,-4.9966,-4.9273,-4.8717,-4.8679,-4.8252,-4.7707,-4.7174,-4.6959,-4.6504,-4.5198,-4.4814,-4.4522,-4.3713,-4.3617,-4.3651,-4.3651,-4.3651,0.0,-4.3025,-4.183,-4.0783,-4.0052,-3.9528,-3.9093,-3.8726,-3.8689,-3.8689,-3.8689,-3.8689,-3.8689,-3.8689,-3.7221,0.0,0.0,0.0,-3.1384,-3.0246,-2.8539,0.0,0.0,0.0,0.0,0.0,0.0,0.0,0.0,-2.3488,-2.4074,0.0,0.0,0.0,0.0,0.0,0.0,0.0,0.0,0.0,0.0,0.0,0.0,0.0,0.0,0.0,0.0,-5.3118,-5.6713,-6.1042,-6.1722,-6.2767,-6.5344,-6.6328,-6.6789,-6.6813,-6.6724,-6.6717,-6.6795,-6.6717,-6.6678,-6.6678,-6.5234,0.0,0.0,0.0,-6.5119,-6.6483,-6.5897,-6.5116,-6.4143,-6.336,-6.254,-6.1718,-6.1718,-6.1648,-6.1486,-6.1292,-6.1174,-6.106,-6.0883,-6.0281,-5.9396,-5.8511,-5.7165,-5.5703,-5.5703,-5.5703,-5.5703,-5.5703,0.0,0.0,-5.3459,-5.2437,-5.1341,-5.0341,-4.9207,-4.8251,-4.8156,-4.7392,-4.6527,-4.6325,-4.6352,-4.6101,-4.4979,-4.4798,-4.4599,-4.3681,-4.3515,-4.3515,-4.3515,-4.3515,-4.3515,-4.3515,-4.2868,-4.1834,-4.0283,-3.9937,-3.9606,-3.8799,-3.8689,-3.8689,-3.8689,-3.8689,0.0,-3.8689,-3.7221,-3.6303,-3.6303,-3.399,-3.1922,-3.0393,-2.87,-2.7956,-2.8241,-2.7402,-2.7118,-2.742,-2.7489,-2.7868,-2.8454,-2.635,-2.6212,0.0,0.0,0.0,0.0,0.0,0.0,0.0,0.0,0.0,0.0,0.0,0.0,0.0,0.0,0.0,-5.3483,-5.5792,-5.8428,-6.2127,-6.3238,-6.4375,-6.6327,-6.6711,-6.6813,-6.68,-6.6212,-6.6092,-6.6756,-6.6209,-6.5819,-6.5819,-6.5507,-6.5155,-6.4807,-6.5155,-6.5155,-6.4807,-6.5312,-6.4804,-6.3243,-6.3086,0.0,-6.1718,-6.1718,-6.1648,-6.1486,-6.1292,-6.1174,-6.106,-6.0883,-6.0281,-5.9358,-5.7819,-5.6626,-5.5703,-5.5703,-5.5703,-5.5703,-5.5703,-5.5164,-5.4462,-5.4205,-5.3026,-5.1584,-5.1218,-5.0282,0.0,-4.9112,-4.8692,-4.7991,-4.6589,-4.7112,-4.7298,-4.4431,-4.4726,-4.5259,-4.3791,-4.3515,-4.3515,-4.3515,-4.3515,-4.3515,-4.3515,-4.2854,-4.1972,-4.1001,-4.0304,-3.9606,-3.8799,-3.8689,-3.8689,-3.8689,-3.8689,-3.8689,-3.8689,-3.7221,-3.6303,-3.6303,-3.399,-3.2179,-3.1213,-3.0618,-2.9904,-2.9076,-2.9238,-2.8949,-2.8178,-2.8799,-2.9144,-2.9282,-2.8213,-2.8558,0.0,0.0,0.0,0.0,0.0,0.0,0.0,0.0,0.0,0.0,0.0,-4.6235,-4.9342,0.0,-5.2853,-5.5918,-5.7515,-5.9425,-6.2538,-6.3708,-6.4873,-6.6591,-6.6815,-6.6802,-6.6798,-6.6444,-6.6366,-6.6756,-6.6444,-6.6209,-6.6209,-6.5819,-6.5585,-6.5548,-6.5155,-6.496,-6.496,-6.4531,-6.3867,-6.3008,-6.2579,-6.211,-6.1718,-6.1718,-6.1648,-6.1486,-6.1292,-6.1174,-6.106,-6.0883,-6.005,-5.8819,-5.7973,-5.7126,-5.6291,-5.5857,-5.5703,-5.5703,-5.5703,-5.5434,-5.5049,-5.4605,-5.3842,-5.2894,-5.1849,-5.0671,-4.9589,-4.892,-4.8182,-4.7342,-4.6476,-4.7091,-4.7297,-4.4829,-4.5145,-4.5551,-4.3897,-4.3532,-4.3515,-4.3515,-4.3515,-4.3515,-4.3515,-4.3167,-4.2506,-4.1279,-4.0781,-4.0047,-3.8872,-3.8689,-3.8689,-3.8689,-3.8689,-3.8689,-3.8689,-3.7221,-3.6119,-3.5665,-3.41,-3.3036,-3.2632,-3.1965,-3.1239,-3.0505,-3.058,-3.0259,-2.9558,-3.0282,-3.0662,-3.0627,-3.0282,-3.0317,0.0,0.0,0.0,0.0,0.0,0.0,0.0,-4.2562,-4.3677,-4.6657,-4.8748,-5.0748,-5.3087,-5.4258,-5.5588,-5.7853,-5.8967,-6.0388,-6.2887,-6.3852,-6.4857,-6.6379,-6.6568,-6.6639,-6.6795,-6.6795,-6.6795,-6.6795,-6.6795,-6.6795,-6.6795,-6.617,-6.6053,-6.6561,-6.5273,-6.4726,-6.5077,-6.3711,-6.293,-6.2735,-6.2032,-6.1718,-6.1718,-6.1718,-6.1648,-6.1486,-6.1259,-6.1126,-6.1002,-6.0668,-5.9742,-5.8511,-5.8165,-5.7627,-5.6907,-5.6011,-5.5703,-5.5703,-5.5703,-5.5703,-5.5588,-5.4934,-5.4626,-5.4171,-5.2376,-5.104,-4.9868,-4.8775,-4.7703,-4.68,-4.6635,-4.7105,-4.7202,-4.5429,-4.5545,-4.5622,-4.3948,-4.3566,-4.3515,-4.3515,-4.3515,-4.3515,-4.3515,-4.3515,-4.2947,-4.1352,-4.1095,-4.0508,-3.8909,-3.8689,-3.8689,-3.8689,-3.8689,-3.8652,-3.8469,-3.7147,-3.5936,-3.5078,-3.4234,-3.3807,-3.3807,-3.2911,-3.2285,-3.1913,-3.1588,-3.1254,-3.0903,-3.1489,-3.18,-3.18,-3.1938,-3.1696,-3.7543,-4.0107,-4.4143,-4.5893,-4.7592,-4.8593,0.0,-4.8938,-5.0376,-5.1522,-5.3788,-5.5857,-5.6982,-5.7924,-5.885,-5.9917,-6.082,-6.2027,-6.3889,-6.423,-6.465,-6.5626,-6.5741,-6.6014,-6.6717,-6.6795,-6.6795,-6.6795,-6.6795,-6.6795,-6.6795,-6.6717,-6.6366,-6.5741,-6.5546,-6.4765,-6.3321,-6.3086,-6.2618,-6.1835,-6.1757,-6.1718,-6.1718,-6.1718,-6.1648,-6.1481,-6.1221,-6.0992,-6.0789,-5.9985,-5.9511,-5.9204,-5.7742,-5.7099,-5.6907,-5.6011,-5.5703,-5.5703,-5.5703,-5.5703,-5.5703,-5.5588,-5.5088,-5.4287,-5.3112,-5.2004,-5.0899,-4.984,-4.9149,-4.8529,-4.7738,-4.8009,-4.7867,-4.554,-4.5545,-4.5622,-4.3948,-4.3566,-4.3515,-4.3515,-4.3515,-4.3515,-4.3515,-4.3515,-4.2947,-4.1352,-4.1095,-4.0508,-3.8909,-3.8689,-3.8689,-3.8689,-3.8689,-3.8395,-3.7713,-3.6817,-3.5936,-3.5078,-3.4234,-3.3807,-3.3807,-3.3443,-3.3064,-3.2668,-3.2329,-3.2004,-3.1662,-3.1765,-3.18,-3.18,-3.2455,-3.2731,-4.1616,-4.4059,-4.7361,-4.9607,-5.149,-5.2834,-5.3041,-5.3633,-5.4571,-5.5977,-5.7574,-5.8973,-5.9899,-5.9956,-6.0312,-6.1675,-6.2217,-6.2872,-6.4111,-6.4731,-6.4804,-6.414,-6.3633,-6.3867,-6.5194,-6.578,-6.6092,-6.6092,-6.6522,-6.6795,-6.6795,-6.6795,-6.6444,-6.5624,-6.5116,-6.4258,-6.3008,-6.2501,-6.2071,-6.1718,-6.1718,-6.1718,-6.1718,-6.1718,-6.1545,-6.1304,-6.1156,-6.1,-6.0742,-5.9858,-5.9204,-5.8665,-5.7484,-5.6676,-5.6214,-5.5818,-5.5703,-5.5703,-5.5703,-5.5703,-5.5703,-5.5703,-5.5472,-5.4912,-5.3425,-5.2597,-5.184,-5.0258,-4.9537,-4.9134,-4.8684,-4.8664,-4.8397,-4.6915,-4.6367,-4.5857,-4.466,-4.3931,-4.3515,-4.3515,-4.3515,-4.3515,-4.3515,-4.3515,-4.2947,-4.1352,-4.1095,-4.0508,-3.8909,-3.8689,-3.8689,-3.8689,-3.8689,-3.8579,-3.8212,-3.7037,-3.6156,-3.5789,-3.4541,-3.3807,-3.3807,-3.3553,-3.3208,-3.2795,-3.247,-3.2353,-3.2455,-3.2455,-3.2662,-3.3164,-3.3455,-3.3835,-4.5267,-4.7565,-5.015,-5.2751,-5.4723,-5.623,-5.6904,-5.7225,-5.773,-5.8808,-5.9729,-6.0451,-6.0896,-6.0663,-6.0891,-6.2402,-6.3021,-6.364,-6.4533,-6.5194,-6.5038,-6.3555,-6.2384,-6.211,-6.3125,-6.4023,-6.4726,-6.5194,-6.6014,-6.6561,-6.6795,-6.66,-6.6092,-6.5273,-6.4414,-6.3516,-6.2657,-6.203,-6.1718,-6.1718,-6.1718,-6.1718,-6.1718,-6.1663,-6.1465,-6.1179,-6.1122,-6.1,-6.0704,-5.9627,-5.8819,-5.8204,-5.7088,-5.6252,-5.5703,-5.5703,-5.5703,-5.5703,-5.5703,-5.5703,-5.5703,-5.5703,-5.5703,-5.5385,-5.3585,-5.2958,-5.2435,-5.0481,-4.9726,-4.943,-4.9257,-4.9044,-4.8704,-4.7887,-4.6935,-4.5983,-4.5171,-4.4223,-4.3515,-4.3515,-4.3515,-4.3515,-4.3515,-4.3515,-4.2947,-4.1352,-4.1095,-4.0508,-3.8909,-3.8689,-3.8615,-3.8395,-3.8358,-3.8358,-3.8358,-3.689,-3.6046,-3.6266,-3.4724,-3.3807,-3.3807,-3.3734,-3.3532,-3.3152,-3.3,-3.3051,-3.3214,-3.3214,-3.3524,-3.4096,-3.4303,-3.4683,-4.7466,-5.0291,-5.2896,-5.5525,-5.7522,-5.8897,-5.8897,-5.9631,-6.0044,-5.9275,-5.979,-6.0149,-5.9336,-5.9841,-6.0691,-6.1582,-6.3174,-6.4572,-6.5429,-6.5585,-6.5273,-6.4377,-6.2735,-6.1408,-6.0588,-6.133,-6.254,-6.4221,-6.5155,-6.5975,-6.6756,-6.6053,-6.5234,-6.4377,-6.3477,-6.2618,-6.1757,-6.1718,-6.1718,-6.1718,-6.1718,-6.1718,-6.1718,-6.1573,-6.1395,-6.1179,-6.1122,-6.1,-6.0666,-5.9011,-5.8319,-5.8127,-5.6395,-5.5703,-5.5703,-5.5703,-5.5703,-5.5703,-5.5703,-5.5703,-5.5703,-5.5703,-5.5703,-5.5385,-5.364,-5.3037,-5.2591,-5.0646,-4.9841,-4.9558,-4.9352,-4.9094,-4.8704,-4.7887,-4.6935,-4.5983,-4.5171,-4.4223,-4.3515,-4.3515,-4.3515,-4.3515,-4.3515,-4.3515,-4.2947,-4.1352,-4.1095,-4.0508,-3.8909,-3.8689,-3.8395,-3.7639,-3.7529,-3.7529,-3.7529,-3.6009,-3.5408,-3.6229,-3.4724,-3.3807,-3.3807,-3.4229,-3.431,-3.3956,-3.4394,-3.4431,-3.4061,-3.4061,-3.4096,-3.413,-3.4835,-3.518,-4.9362,-5.2597,-5.5637,-5.8285,-5.9843,-6.0885,-6.1495,-6.1004,-6.0153,-5.9334,-5.8475,-5.7968,-5.824,-5.8977,-6.0181,-6.2236,-6.4026,-6.5468,-6.6288,-6.6405,-6.5663,-6.3672,-6.2423,-6.09,-5.887,-6.0002,-6.133,-6.2501,-6.3906,-6.4843,-6.5119,-6.5429,-6.4921,-6.3477,-6.3164,-6.2579,-6.1718,-6.1718,-6.1718,-6.1718,-6.1718,-6.1718,-6.1718,-6.1573,-6.139,-6.1179,-6.1122,-6.1,-6.0666,-5.8973,-5.8319,-5.8127,-5.6395,-5.5703,-5.5703,-5.5703,-5.5703,-5.5703,-5.5703,-5.5703,-5.5703,-5.5703,-5.5703,-5.5395,-5.3682,-5.3161,-5.2713,-5.0791,-4.9987,-4.9665,-4.9446,-4.9127,-4.8816,-4.8556,-4.7712,-4.6759,-4.5983,-4.5033,-4.4158,-4.3625,-4.3515,-4.3515,-4.3515,-4.3515,-4.2947,-4.1352,-4.0178,-3.9313,-3.8762,-3.8689,-3.8395,-3.7603,-3.7492,-3.7272,-3.6758,-3.5665,-3.5151,-3.5408,-3.4431,-3.3807,-3.3807,-3.4324,-3.4491,-3.4207,-3.464,-3.4934,-3.502,-3.4995,-3.5157,-3.5559,-3.5801,-3.5939,-5.2138,-5.5372,-5.8253,-6.03,-6.1451,-6.209,-6.2062,-6.1209,-6.0,-5.8555,-5.6875,-5.5859,-5.64,-5.6944,-5.8227,-6.1137,-6.3321,-6.5077,-6.6209,-6.66,-6.5975,-6.3711,-6.2696,-6.1252,-5.8948,-5.9456,-6.0315,-6.1174,-6.2579,-6.3633,-6.426,-6.4531,-6.4179,-6.3047,-6.2696,-6.2267,-6.1718,-6.1718,-6.1718,-6.1718,-6.1718,-6.1718,-6.1718,-6.1573,-6.139,-6.1179,-6.1122,-6.1,-6.0666,-5.8973,-5.8319,-5.8127,-5.6395,-5.5703,-5.5703,-5.5703,-5.5703,-5.5703,-5.5703,-5.5703,-5.5703,-5.5703,-5.5703,-5.5395,-5.3703,-5.3203,-5.2815,-5.0872,-5.01,-4.9817,-4.9581,-4.9257,-4.9013,-4.8979,-4.8174,-4.7165,-4.6352,-4.5384,-4.4452,-4.3644,-4.3515,-4.3515,-4.3515,-4.324,-4.2616,-4.1279,-3.9974,-3.9019,-3.8726,-3.8689,-3.8285,-3.7199,-3.7088,-3.6743,-3.5899,-3.5041,-3.4674,-3.4968,-3.4234,-3.3807,-3.3807,-3.4659,-3.5033,-3.4814,-3.556,-3.5948,-3.6003,-3.5899,-3.6014,-3.6284,-3.6284,-3.6284,-5.5795,-5.8629,-6.0833,-6.1623,-6.241,-6.2571,-6.0857,-6.0312,-5.9492,-5.6992,-5.4961,-5.3671,-5.3744,-5.3742,-5.4907,-5.8404,-6.1213,-6.3555,-6.5351,-6.6288,-6.6173,-6.4494,-6.3555,-6.2345,-6.0588,-5.9651,-5.9495,-6.0354,-6.1213,-6.2423,-6.4065,-6.3438,-6.2969,-6.293,-6.2149,-6.1718,-6.1718,-6.1718,-6.1718,-6.1718,-6.1718,-6.1718,-6.1718,-6.1573,-6.139,-6.1179,-6.1122,-6.1,-6.0666,-5.8973,-5.8319,-5.8127,-5.6395,-5.5703,-5.5703,-5.5703,-5.5703,-5.5703,-5.5703,-5.5703,-5.5703,-5.5703,-5.5703,-5.5395,-5.3703,-5.3203,-5.2815,-5.0916,-5.0197,-4.9949,-4.9741,-4.9468,-4.9197,-4.9135,-4.8264,-4.7239,-4.6389,-4.5421,-4.4525,-4.3644,-4.3515,-4.3515,-4.3515,-4.2873,-4.2066,-4.1242,-4.0451,-3.9643,-3.8799,-3.8689,-3.8102,-3.6523,-3.6303,-3.5936,-3.5078,-3.4284,-3.4137,-3.4894,-3.4197,-3.3807,-3.3844,-3.525,-3.5939,-3.5768,-3.6985,-3.7375,-3.6919,-3.6771,-3.6582,-3.6284,-3.6284,-3.6284,-5.8809,-6.179,-6.4178,-6.3748,-6.3319,-6.2695,-6.1601,-5.9414,-5.7031,-5.5078,-5.1758,-4.9414,-5.0072,-5.0187,-5.1743,-5.6452,-5.9931,-6.2863,-6.5273,-6.6295,-6.618,-6.4494,-6.4104,-6.3047,-6.0627,-6.0198,-6.0159,-6.0393,-6.1213,-6.1874,-6.2345,-6.2774,-6.2696,-6.2032,-6.1835,-6.1718,-6.1718,-6.1718,-6.1718,-6.1718,-6.1718,-6.1718,-6.1718,-6.1573,-6.139,-6.1179,-6.1122,-6.1,-6.0666,-5.8973,-5.8319,-5.8127,-5.6395,-5.5703,-5.5703,-5.5703,-5.5703,-5.5703,-5.5703,-5.5703,-5.5703,-5.5703,-5.5703,-5.5395,-5.3703,-5.3203,-5.2826,-5.0971,-5.0302,-5.0099,-4.9906,-4.9596,-4.9305,-4.9214,-4.8724,-4.7904,-4.65,-4.588,-4.5186,-4.3772,-4.3515,-4.3515,-4.3515,-4.3331,-4.2727,-4.1315,-4.0912,-4.0288,-3.8872,-3.8689,-3.8322,-3.7309,-3.6684,-3.5936,-3.5078,-3.4284,-3.388,-3.41,-3.3917,-3.4064,-3.4674,-3.5579,-3.6316,-3.6791,-3.7462,-3.7595,-3.7113,-3.6891,-3.6609,-3.6284,-3.6284,-3.6284,-6.1635,-6.41,-6.5859,-6.4609,-6.3633,-6.2461,-6.0508,-5.7969,-5.5312,-5.2851,-4.9219,-4.6718,-4.7612,-4.7452,-4.8892,-5.4031,-5.7748,-6.0913,-6.3516,-6.493,-6.5208,-6.3909,-6.3711,-6.3008,-6.1134,-6.0978,-6.0978,-6.0978,-6.1056,-6.1291,-6.1679,-6.2149,-6.2228,-6.1718,-6.1718,-6.1718,-6.1718,-6.133,-6.1134,-6.1134,-6.1134,-6.1134,-6.1132,-6.1378,-6.139,-6.1179,-6.1122,-6.1,-6.0666,-5.8973,-5.8319,-5.8127,-5.6395,-5.5703,-5.5703,-5.5703,-5.5703,-5.5703,-5.5703,-5.5703,-5.5703,-5.5703,-5.5703,-5.5395,-5.3703,-5.3203,-5.2836,-5.1062,-5.0429,-5.0268,-5.005,-4.9755,-4.9461,-4.9273,-4.8925,-4.8236,-4.698,-4.6285,-4.5406,-4.3791,-4.3515,-4.3515,-4.3515,-4.3515,-4.3057,-4.1809,-4.1315,-4.0671,-3.9386,-3.8909,-3.8395,-3.7603,-3.7088,-3.634,-3.5114,-3.4931,-3.4724,-3.4344,-3.4688,-3.5092,-3.5555,-3.6296,-3.6911,-3.7305,-3.7446,-3.7307,-3.6842,-3.652,-3.6148,-3.5835,-3.6146,-3.6284,-6.4217,-6.582,-6.6601,-6.4609,-6.3398,-6.1758,-5.832,-5.5859,-5.3359,-5.0156,-4.6562,-4.4297,-4.5424,-4.4914,-4.608,-5.1496,-5.5212,-5.8377,-6.0978,-6.2941,-6.3804,-6.2933,-6.293,-6.2696,-6.1952,-6.1991,-6.2032,-6.2032,-6.133,-6.1134,-6.1679,-6.1718,-6.1718,-6.1718,-6.1718,-6.1718,-6.1718,-6.0822,-6.0393,-6.0393,-6.0276,-6.0276,-6.0429,-6.1066,-6.1279,-6.1186,-6.1023,-6.0828,-6.0523,-5.883,-5.8127,-5.7973,-5.6319,-5.5703,-5.5703,-5.5703,-5.5703,-5.5703,-5.5703,-5.5703,-5.5703,-5.5703,-5.5703,-5.5395,-5.3703,-5.3203,-5.2846,-5.1104,-5.0563,-5.0468,-5.0214,-4.9868,-4.9588,-4.9368,-4.8976,-4.842,-4.7607,-4.6561,-4.5351,-4.3955,-4.3588,-4.3515,-4.3515,-4.3515,-4.3204,-4.2433,-4.1625,-4.0802,-4.001,-3.9203,-3.8432,-3.7749,-3.7566,-3.6905,-3.5445,-3.5826,-3.5789,-3.5041,-3.5605,-3.6009,-3.6119,-3.6905,-3.7382,-3.7492,-3.7296,-3.6991,-3.6577,-3.6197,-3.5778,-3.5393,-3.6028,-3.6339,-6.6367,-6.7187,-6.7226,-6.4023,-6.2031,-5.9961,-5.6523,-5.2226,-4.8359,-4.6328,-4.2031,-3.9335,-4.1596,-4.132,-4.2917,-4.9503,-5.3461,-5.6628,-5.9185,-6.1658,-6.2913,-6.2035,-6.2579,-6.293,-6.2774,-6.3438,-6.3867,-6.3867,-6.3713,-6.3047,-6.1757,-6.1718,-6.1718,-6.1718,-6.1718,-6.1718,-6.1718,-6.0822,-6.0393,-6.0393,-5.9651,-5.969,-6.0393,-6.0496,-6.0804,-6.1227,-6.0523,-6.0064,-5.9694,-5.8,-5.7285,-5.7126,-5.6088,-5.5703,-5.5703,-5.5703,-5.5703,-5.5703,-5.5703,-5.5703,-5.5703,-5.5703,-5.5703,-5.5395,-5.3703,-5.3203,-5.2856,-5.1154,-5.0682,-5.0594,-5.0317,-5.0012,-4.9693,-4.9423,-4.9061,-4.8547,-4.7732,-4.6244,-4.4944,-4.458,-4.3938,-4.3515,-4.3515,-4.3515,-4.3204,-4.2433,-4.1625,-4.0802,-4.001,-3.9203,-3.8652,-3.8505,-3.7896,-3.7382,-3.7088,-3.5936,-3.5151,-3.5004,-3.4541,-3.4541,-3.5188,-3.6046,-3.6831,-3.7492,-3.789,-3.7887,-3.7559,-3.7197,-3.6833,-3.6449,-3.6471,-3.6402,-6.7031,-6.7851,-6.793,-6.3984,-6.1367,-5.875,-5.4844,-4.9961,-4.5625,-4.3476,-3.9609,-3.6992,-3.8239,-3.886,-4.0888,-4.5959,-5.0067,-5.3661,-5.6694,-5.8969,-6.0493,-6.0981,-6.1798,-6.2501,-6.2969,-6.3789,-6.4299,-6.4299,-6.4299,-6.375,-6.2462,-6.1952,-6.1718,-6.1718,-6.1718,-6.1483,-6.1017,-6.0159,-5.9495,-5.9026,-5.8636,-5.8636,-5.9065,-5.9456,-5.9789,-6.0022,-5.9555,-5.9232,-5.8944,-5.7621,-5.7048,-5.6907,-5.6049,-5.5703,-5.5703,-5.5703,-5.5703,-5.5703,-5.5703,-5.5703,-5.5703,-5.5703,-5.5703,-5.5472,-5.4241,-5.3549,-5.2933,-5.1664,-5.101,-5.0663,-5.0424,-5.0125,-4.9844,-4.9611,-4.9193,-4.86,-4.7644,-4.643,-4.5366,-4.48,-4.4048,-4.3515,-4.3515,-4.3515,-4.3351,-4.2983,-4.2249,-4.1442,-4.0634,-3.9827,-3.9166,-3.8726,-3.8358,-3.7955,-3.7529,-3.7147,-3.6582,-3.5738,-3.5716,-3.5716,-3.5665,-3.6486,-3.7125,-3.7492,-3.7661,-3.762,-3.7369,-3.7024,-3.6621,-3.6236,-3.6475,-3.6485,-6.7305,-6.8164,-6.8164,-6.3828,-6.082,-5.7734,-5.3203,-4.7891,-4.3242,-4.0859,-3.7461,-3.5039,-3.5389,-3.6558,-3.8742,-4.253,-4.6438,-5.0227,-5.3692,-5.6002,-5.7955,-5.9653,-6.0939,-6.211,-6.3164,-6.4219,-6.4846,-6.4846,-6.4689,-6.4179,-6.3321,-6.2462,-6.1991,-6.1991,-6.1796,-6.1291,-6.0393,-5.9534,-5.8675,-5.7816,-5.7621,-5.7621,-5.7816,-5.8454,-5.8808,-5.8914,-5.8653,-5.8428,-5.8178,-5.7226,-5.677,-5.6637,-5.5972,-5.5703,-5.5703,-5.5703,-5.5703,-5.5703,-5.5703,-5.5703,-5.5703,-5.5703,-5.5703,-5.5549,-5.4741,-5.401,-5.328,-5.2192,-5.1433,-5.0865,-5.0506,-5.0221,-4.9962,-4.9698,-4.9273,-4.8724,-4.7794,-4.68,-4.588,-4.5094,-4.4158,-4.3515,-4.3515,-4.3515,-4.3515,-4.3515,-4.28,-4.2066,-4.1425,-4.0487,-3.9643,-3.9019,-3.8799,-3.8432,-3.7823,-3.8028,-3.7661,-3.6376,-3.6574,-3.6427,-3.5789,-3.6721,-3.7235,-3.7235,-3.7394,-3.7437,-3.7293,-3.6911,-3.6594,-3.638,-3.6791,-3.6894,-6.789,-6.8203,-6.7265,-6.289,-5.9883,-5.668,-5.1601,-4.5195,-3.9844,-3.8047,-3.4297,-3.1836,-3.3357,-3.3787,-3.5504,-4.054,-4.3667,-4.6675,-5.01,-5.3425,-5.6158,-5.7857,-6.0198,-6.2345,-6.4026,-6.5626,-6.6561,-6.6561,-6.5897,-6.5116,-6.4221,-6.336,-6.2891,-6.2891,-6.211,-6.1291,-6.0393,-5.9534,-5.8675,-5.7777,-5.7074,-5.7074,-5.7816,-5.7877,-5.8318,-5.894,-5.8091,-5.7606,-5.734,-5.6393,-5.5924,-5.5818,-5.5742,-5.5703,-5.5703,-5.5703,-5.5703,-5.5703,-5.5703,-5.5703,-5.5703,-5.5703,-5.5703,-5.5549,-5.4741,-5.4434,-5.4049,-5.2385,-5.1846,-5.1595,-5.0713,-5.0325,-5.0062,-4.9544,-4.9289,-4.9044,-4.8567,-4.7276,-4.6098,-4.5846,-4.4562,-4.3515,-4.3515,-4.3515,-4.3515,-4.3515,-4.28,-4.2286,-4.2213,-4.0855,-3.9863,-3.979,-3.9129,-3.8689,-3.8615,-3.7331,-3.645,-3.6303,-3.4945,-3.41,-3.4027,-3.5569,-3.6413,-3.6413,-3.7717,-3.8334,-3.8291,-3.7911,-3.7917,-3.8176,-3.7962,-3.8069,-6.5742,-6.6601,-6.6367,-6.1992,-5.8203,-5.4219,-4.9023,-4.293,-3.7851,-3.6094,-3.3164,-3.1094,-3.1757,-3.2733,-3.4607,-3.8202,-4.1405,-4.4646,-4.8118,-5.1125,-5.3582,-5.5327,-5.7779,-5.9846,-6.1056,-6.3204,-6.4726,-6.5275,-6.4999,-6.4687,-6.4338,-6.3477,-6.3008,-6.3008,-6.1642,-6.051,-5.9612,-5.8753,-5.7894,-5.7074,-5.6762,-5.6762,-5.7074,-5.7068,-5.7255,-5.7512,-5.7057,-5.6753,-5.6565,-5.6115,-5.5876,-5.5703,-5.5703,-5.5703,-5.5703,-5.5703,-5.5703,-5.5703,-5.5703,-5.5703,-5.5703,-5.5703,-5.5703,-5.5626,-5.5318,-5.4511,-5.3587,-5.2895,-5.1972,-5.1067,-5.0689,-5.0374,-5.0113,-4.9797,-4.9551,-4.9252,-4.8873,-4.788,-4.6813,-4.6048,-4.5002,-4.4085,-4.3588,-4.3515,-4.3515,-4.3515,-4.3204,-4.2837,-4.2359,-4.1332,-4.0451,-3.9937,-3.9166,-3.8505,-3.8028,-3.7382,-3.6597,-3.5591,-3.4894,-3.4307,-3.3807,-3.5422,-3.6303,-3.6303,-3.7814,-3.8627,-3.8596,-3.8676,-3.869,-3.8512,-3.8722,-3.8711,-6.332,-6.4805,-6.5156,-6.1055,-5.6992,-5.2656,-4.7461,-4.1641,-3.6797,-3.5078,-3.2656,-3.0898,-3.0898,-3.1875,-3.3515,-3.6094,-3.8789,-4.1796,-4.5545,-4.8277,-5.0616,-5.2598,-5.5091,-5.7116,-5.8246,-6.0939,-6.3086,-6.4221,-6.4299,-6.4299,-6.4299,-6.3477,-6.2891,-6.2618,-6.1174,-5.9846,-5.8714,-5.8128,-5.7387,-5.6606,-5.6606,-5.6606,-5.6606,-5.6606,-5.6606,-5.6604,-5.6468,-5.63,-5.6104,-5.6079,-5.5893,-5.5735,-5.5735,-5.5724,-5.5703,-5.5703,-5.5703,-5.5703,-5.5703,-5.5549,-5.5357,-5.5357,-5.5164,-5.4972,-5.4972,-5.4318,-5.3472,-5.2972,-5.1779,-5.0702,-5.0653,-5.0468,-5.0236,-5.005,-4.9787,-4.9499,-4.9073,-4.8293,-4.7322,-4.6211,-4.5348,-4.4522,-4.3696,-4.3532,-4.3532,-4.3515,-4.3515,-4.3294,-4.2727,-4.1735,-4.0875,-4.0304,-3.9313,-3.8469,-3.7896,-3.7639,-3.7125,-3.6142,-3.5885,-3.5591,-3.5275,-3.6376,-3.7,-3.7,-3.8138,-3.8836,-3.9056,-3.9283,-3.9355,-3.9399,-3.9646,-3.9608,-6.1055,-6.3008,-6.3515,-6.0078,-5.6601,-5.2656,-4.7461,-4.1641,-3.6797,-3.5078,-3.2656,-3.0898,-3.0898,-3.0898,-3.1758,-3.4297,-3.5469,-3.7578,-4.1834,-4.4685,-4.7299,-4.9827,-5.244,-5.4703,-5.645,-5.9727,-6.2423,-6.4182,-6.4299,-6.4299,-6.4299,-6.3477,-6.2618,-6.1757,-6.0861,-5.9573,-5.7816,-5.7816,-5.7387,-5.6606,-5.6606,-5.6606,-5.6606,-5.6606,-5.6606,-5.6604,-5.6517,-5.6363,-5.6179,-5.6146,-5.5973,-5.5797,-5.5797,-5.5756,-5.5703,-5.5703,-5.5703,-5.5703,-5.5703,-5.5164,-5.4511,-5.4511,-5.3933,-5.3241,-5.3241,-5.3818,-5.4126,-5.2385,-5.1318,-5.0712,-5.0712,-5.0584,-5.0429,-5.023,-5.0038,-4.9783,-4.9293,-4.845,-4.7471,-4.6404,-4.554,-4.4694,-4.3744,-4.3617,-4.3583,-4.3515,-4.3515,-4.3515,-4.3515,-4.2103,-4.1095,-4.1095,-3.9664,-3.8689,-3.8689,-3.797,-3.7823,-3.8615,-3.7918,-3.7823,-3.8615,-3.8689,-3.8689,-3.8689,-3.8689,-3.9093,-3.99,-3.9624,-4.0094,-4.1276,-4.0953,-4.091,-5.6797,-5.8594,-5.9258,-5.6367,-5.3047,-4.9297,-4.4687,-3.9883,-3.5937,-3.418,-3.2266,-3.0898,-3.0898,-3.0898,-3.1719,-3.4297,-3.5937,-3.8164,-4.1875,-4.5155,-4.7692,-4.9097,-5.2058,-5.49,-5.7194,-5.8948,-6.0666,-6.2384,-6.1954,-6.1642,-6.1642,-6.0822,-6.0744,-6.1679,-6.0276,-5.8948,-5.7816,-5.7231,-5.684,-5.6606,-5.6606,-5.6606,-5.6606,-5.6606,-5.6606,-5.6604,-5.653,-5.6406,-5.6266,-5.6194,-5.604,-5.5855,-5.5876,-5.5797,-5.5703,-5.5703,-5.5703,-5.5626,-5.5049,-5.4703,-5.4395,-5.3818,-5.3433,-5.3087,-5.25,-5.25,-5.251,-5.1395,-5.0894,-5.0712,-5.0712,-5.0614,-5.0542,-5.0429,-5.0212,-4.9933,-4.9514,-4.9112,-4.8322,-4.6665,-4.617,-4.5543,-4.4054,-4.3751,-4.3667,-4.3532,-4.3515,-4.3515,-4.3515,-4.2103,-4.1095,-4.1095,-3.9664,-3.8469,-3.7933,-3.7639,-3.7603,-3.786,-3.7639,-3.786,-3.8689,-3.9239,-3.9533,-3.9533,-4.0084,-4.0471,-4.0744,-4.1041,-4.1451,-4.1904,-4.1485,-4.1235,-5.125,-5.3164,-5.3945,-5.168,-4.8984,-4.5976,-4.2305,-3.8359,-3.5117,-3.3672,-3.207,-3.0898,-3.0898,-3.0898,-3.1641,-3.3867,-3.5391,-3.7539,-4.0976,-4.4453,-4.7421,-4.9608,-5.2023,-5.4515,-5.7088,-5.7824,-5.8992,-6.1061,-6.0395,-5.9924,-5.9924,-5.9378,-5.9456,-6.0198,-5.9183,-5.8207,-5.7348,-5.684,-5.6606,-5.6606,-5.6606,-5.6606,-5.6606,-5.6606,-5.6606,-5.6604,-5.6542,-5.6436,0.0,-5.6258,-5.6121,-5.5943,-5.5893,-5.5827,-5.5703,-5.5703,-5.5511,-5.5164,-5.4664,-5.4087,-5.3433,-5.2895,-5.251,-5.2164,-5.1625,-5.1471,-5.1356,-5.0827,-5.0712,-5.0712,-5.0712,-5.0682,-5.0642,-5.0573,-5.039,-5.0076,-4.9679,-4.9514,-4.888,-4.6962,-4.6632,-4.6115,-4.4361,-4.3955,-4.3849,-4.3634,-4.36,-4.36,-4.36,-4.2202,-4.1156,-4.116,-3.969,-3.8499,-3.8006,-3.7955,-3.8212,-3.8799,-3.8872,-3.935,-4.0451,-4.0708,-4.0818,-4.0818,-4.0985,-4.1242,-4.1535,-4.2171,-4.2412,-4.2378,-4.1952,-4.1644,0.0,-4.707,-4.8203,-4.6445,-4.4805,-4.293,-4.0391,-3.7148,0.0,-3.3594,-3.207,-3.0937,-3.0976,-3.0976,-3.1562,-3.3281,-3.4336,-3.6133,-3.9687,-4.3203,-4.6992,-5.1092,-5.2339,-5.386,-5.636,-5.6666,-5.7714,-6.0135,-5.9501,-5.9026,-5.9026,-5.8946,-5.8558,-5.7738,-5.7699,-5.7348,-5.6606,-5.6606,-5.6606,-5.6606,-5.6606,-5.6606,-5.6606,-5.6606,-5.6606,-5.6604,-5.6514,-5.6452,-5.6418,-5.6349,-5.6188,-5.6001,-5.5938,-5.5808,-5.5703,-5.5703,-5.5203,-5.4472,-5.4434,-5.3318,-5.1885,-5.1846,-5.1318,-5.0712,-5.0712,-5.0712,-5.0712,-5.0712,-5.0712,-5.0712,-5.0712,-5.0712,-5.0712,-5.0712,-5.05,-5.0224,-4.9884,-4.9783,-4.9187,-4.7296,-4.6989,-4.6448,-4.4636,-4.4192,-4.4033,-4.3837,-4.3804,-4.3804,-4.3804,-4.2327,-4.1261,-4.1204,-3.9768,-3.878,-3.8689,-3.8689,-3.9386,-4.0985,-4.1095,-4.1809,-4.3441,-4.2763,-4.2396,-4.2396,-4.1662,-4.1662,-4.2396,-4.2957,-4.305,-4.2713,-4.2398,-4.2092,-3.8008,0.0,-4.5508,-4.375,-4.3008,-4.2031,0.0,-3.6719,-3.4453,-3.3594,-3.207,-3.1094,-3.1758,-3.1875,-3.2656,-3.5,-3.6133,-3.8125,-4.2226,-4.6914,-5.0742,-5.3124,-5.4177,-5.519,-5.6477,-5.7217,-5.8111,-5.9315,-5.8611,-5.8098,-5.8128,-5.7504,-5.7074,-5.6879,-5.6879,-5.6801,-5.6606,-5.6606,-5.6606,-5.6606,-5.6606,-5.6606,-5.6606,-5.6606,-5.6606,-5.6606,-5.6563,-5.6558,-5.6548,-5.6445,-5.6264,-5.6082,-5.6015,-5.5847,-5.5703,-5.5703,-5.5203,-5.4395,-5.3741,-5.2818,-5.1808,-5.1164,-5.0856,-5.0712,-5.0712,-5.0712,-5.0712,-5.0712,-5.0712,-5.0712,-5.0712,-5.0712,-5.0712,-5.0712,-5.0532,-5.0294,-5.0,-4.9935,-4.9386,-4.7537,-4.7232,-4.6636,-4.478,-4.4308,-4.4094,-4.3853,-4.3804,-4.3804,-4.3804,-4.2327,-4.1261,-4.1204,-3.9768,-3.878,-3.8689,-3.8689,-3.9386,-4.0985,-4.1095,-4.1809,-4.3441,-4.3331,-4.3204,-4.3204,-4.302,-4.302,-4.3204,-4.3353,-4.3322,-4.3069,-4.2844,-4.2498,-3.5742,-3.8398,-4.0625,-3.9687,-3.9453,-3.8984,-3.7226,-3.5117,-3.3437,-3.2969,-3.1797,-3.1172,-3.2031,-3.25,-3.3476,-3.5664,-3.7383,-4.0391,-4.5898,-4.9766,-5.2773,-5.4921,-5.5624,-5.6249,-5.7107,-5.7261,-5.7649,-5.8505,-5.7758,-5.7244,-5.7239,-5.6842,-5.6606,-5.6606,-5.6606,-5.6606,-5.6606,-5.6606,-5.6606,-5.6606,-5.6606,-5.6606,-5.6606,-5.6606,-5.6606,-5.6606,-5.6606,-5.6606,-5.6602,-5.6507,-5.6344,-5.6149,-5.6048,-5.5912,-5.5707,-5.5283,-5.4608,-5.378,-5.2933,-5.2049,-5.1279,-5.0827,-5.0712,-5.0712,-5.0712,-5.0712,-5.0712,-5.0712,-5.0712,-5.0712,-5.0712,-5.0712,-5.0712,-5.0712,-5.0563,-5.0363,-5.0123,-5.0113,-4.9619,-4.7819,-4.7441,-4.686,-4.4965,-4.4476,-4.4229,-4.3929,-4.3881,-4.377,-4.3399,-4.2214,-4.1258,-4.0751,-3.9607,-3.8825,-3.8689,-3.8689,-3.9239,-4.0487,-4.0891,-4.1645,-4.291,-4.3294,-4.3515,-4.3515,-4.3515,-4.3515,-4.3515,-4.3515,-4.3428,-4.3269,-4.3123,-4.2825,-3.5703,-3.6094,-3.6211,-3.6211,-3.6406,-3.6367,-3.5508,-3.4101,-3.2969,-3.2969,-3.2187,-3.1797,-3.2773,-3.3555,-3.4609,-3.6484,-3.9219,-4.3242,-4.9492,-5.1836,-5.3828,-5.6289,-5.6601,-5.6875,-5.7617,-5.7031,-5.6912,-5.7654,-5.7022,-5.6584,-5.6582,-5.6612,-5.6606,-5.6606,-5.6606,-5.6606,-5.6606,-5.6606,-5.6606,-5.6606,-5.6606,-5.6606,-5.6606,-5.6606,-5.6606,-5.6606,-5.6606,-5.6606,-5.6602,-5.6521,-5.6333,-5.6003,-5.5934,-5.5719,-5.5326,-5.4574,-5.3754,-5.2895,-5.2,-5.1279,-5.0712,-5.0712,-5.0712,-5.0712,-5.0712,-5.0712,-5.0712,-5.0712,-5.0712,-5.0712,-5.0712,-5.0712,-5.0712,-5.0712,-5.0594,-5.0489,-5.0291,-5.0306,-4.9809,-4.8078,-4.7694,-4.7044,-4.5152,-4.4674,-4.4426,-4.4079,-4.4055,-4.3779,-4.3058,-4.2166,-4.1252,-4.0384,-3.9446,-3.887,-3.8704,-3.8689,-3.8982,-3.968,-4.0598,-4.1499,-4.2433,-4.313,-4.3515,-4.3515,-4.3515,-4.3515,-4.3515,-4.3515,-4.3463,-4.3429,-4.3304,-4.3069,-3.5391,-3.6523,-3.7109,-3.7109,-3.8203,-3.9062,-3.8203,-3.7226,-3.6523,-3.6523,-3.5234,-3.4609,-3.6211,-3.6601,-3.75,-4.0,-4.3789,-4.7539,-5.0742,-5.2695,-5.4492,-5.6367,-5.6601,-5.664,-5.6797,-5.668,-5.6679,-5.6795,-5.6676,-5.6594,-5.6582,-5.6619,-5.6614,-5.6606,-5.6606,-5.6606,-5.6606,-5.6606,-5.6606,-5.6606,-5.6606,-5.6606,-5.6606,-5.6606,-5.6606,-5.6606,-5.6606,-5.6606,-5.6604,-5.6533,-5.6024,-5.5268,-5.5118,-5.4544,-5.3756,-5.356,-5.2897,-5.1962,-5.1164,-5.0789,-5.0712,-5.0712,-5.0712,-5.0712,-5.0712,-5.0712,-5.0712,-5.0712,-5.0712,-5.0712,-5.0712,-5.0712,-5.0712,-5.0712,-5.0653,-5.0553,-5.0489,-5.0478,-4.9931,-4.8196,-4.7816,-4.7171,-4.5281,-4.4777,-4.4578,-4.4281,-4.4214,-4.4079,-4.3853,-4.25,-4.1475,-4.1213,-3.9815,-3.887,-3.8704,-3.8689,-3.8762,-3.8872,-4.0288,-4.1772,-4.324,-4.3441,-4.3515,-4.3515,-4.3515,-4.3515,-4.3515,-4.3515,-4.3497,-4.348,-4.3463,-4.3358,-3.543,-3.6289,-3.6836,-3.7773,-3.9297,-4.0351,-3.9492,-3.8633,-3.8008,-3.8008,-3.6992,-3.6641,-3.8398,-3.9101,-4.0547,-4.4101,-4.7109,-4.9726,-5.1797,-5.3594,-5.5156,-5.6445,-5.6601,-5.6601,-5.6601,-5.6601,-5.6601,-5.6601,-5.66,-5.6598,-5.6594,-5.6591,-5.6587,-5.6582,-5.6582,-5.6582,-5.6582,-5.6616,-5.6612,-5.6606,-5.6606,-5.6606,-5.6606,-5.6606,-5.6606,-5.6606,-5.6606,-5.6606,-5.6565,-5.6038,-5.5503,-5.503,-5.449,-5.3942,-5.3383,-5.2798,-5.2011,-5.1193,-5.0827,-5.0712,-5.0712,-5.0712,-5.0712,-5.0712,-5.0712,-5.0712,-5.0712,-5.0712,-5.0712,-5.0712,-5.0712,-5.0712,-5.0712,-5.0712,-5.0692,-5.0509,-5.0018,-4.9902,-4.9403,-4.7703,-4.7279,-4.6745,-4.5339,-4.496,-4.4687,-4.4402,-4.4296,-4.4028,-4.3444,-4.2723,-4.1846,-4.0806,-4.0,-3.9312,-3.8741,-3.8689,-3.9093,-3.9921,-4.0691,-4.1809,-4.3441,-4.3515,-4.3515,-4.3515,-4.3515,-4.3515,-4.3515,-4.3515,-4.3515,-4.3515,-4.3515,-4.3428,-3.543,-3.5859,-3.6211,-3.8359,-4.0078,-4.1055,-4.0586,-4.0117,-3.9844,-4.0078,-3.9414,-3.9258,-4.082,-4.1797,-4.3672,-4.7578,-4.9492,-5.1133,-5.3047,-5.4453,-5.5625,-5.6484,-5.6601,-5.6601,-5.6601,-5.6601,-5.6601,-5.6601,-5.6601,-5.66,-5.6599,-5.6597,-5.6594,-5.6593,-5.6593,-5.6593,-5.6593,-5.6588,-5.6619,-5.6608,-5.6606,-5.6606,-5.6606,-5.6606,-5.6606,-5.6606,-5.6606,-5.6489,-5.6255,-5.5504,-5.4939,-5.4482,-5.3779,-5.3286,-5.2838,-5.2031,-5.1316,-5.071,-5.0693,-5.0712,-5.0712,-5.0712,-5.0712,-5.0712,-5.0712,-5.0712,-5.0712,-5.0712,-5.0712,-5.0712,-5.0712,-5.0712,-5.0712,-5.0712,-5.0712,-5.0481,-4.9586,-4.9394,-4.8894,-4.724,-4.682,-4.6426,-4.5416,-4.5098,-4.4864,-4.457,-4.4444,-4.4101,-4.3305,-4.3014,-4.2344,-4.0888,-4.0377,-3.9733,-3.8778,-3.8689,-3.9386,-4.0985,-4.1095,-4.1809,-4.3441,-4.3515,-4.3515,-4.3515,-4.3515,-4.3515,-4.3515,-4.3515,-4.3515,-4.3515,-4.3515,-4.3463,-3.5117,-3.5391,-3.5586,-3.8984,-4.0508,-4.1367,-4.207,-4.2812,-4.3555,-4.4375,-4.3867,-4.3516,-4.4453,-4.5351,-4.6836,-4.957,-5.0742,-5.2187,-5.4765,-5.5234,-5.5625,-5.6484,-5.6601,-5.6601,-5.6601,-5.6601,-5.6601,-5.6601,-5.6601,-5.6601,-5.6599,-5.6599,-5.6597,-5.6593,-5.6593,-5.6593,-5.6593,-5.6592,-5.6589,-5.658,-5.661,-5.6606,-5.6606,-5.6606,-5.6606,-5.6606,-5.6606,-5.6138,-5.5396,-5.5318,-5.434,-5.2854,-5.2749,-5.2118,-5.1256,-5.1036,-5.0888,-5.0764,-5.0702,-5.0712,-5.0712,-5.0712,-5.0712,-5.0712,-5.0712,-5.0712,-5.0712,-5.0712,-5.0712,-5.0712,-5.0712,-5.0712,-5.0712,-5.0712,-5.0712,-5.0481,-4.9586,-4.9394,-4.8894,-4.724,-4.6848,-4.6484,-4.5554,-4.526,-4.5114,-4.4914,-4.4726,-4.4595,-4.4407,-4.3662,-4.3025,-4.2664,-4.1163,-3.9808,-3.8778,-3.8689,-3.9386,-4.0985,-4.1095,-4.1809,-4.3441,-4.3515,-4.3515,-4.3515,-4.3515,-4.3515,-4.3515,-4.3515,-4.3515,-4.3515,-4.3515,-4.3497,-3.5508,-3.5742,-3.6094,-3.8476,-4.0156,-4.168,-4.3594,-4.5117,-4.6523,-4.793,-4.7539,-4.6875,-4.6641,-4.6875,-4.7969,-5.0547,-5.1641,-5.293,-5.5,-5.5781,-5.6211,-5.6562,-5.6601,-5.6601,-5.6601,-5.6601,-5.6601,-5.6601,-5.6601,-5.6601,-5.6601,-5.6601,-5.6601,-5.66,-5.66,-5.66,-5.66,-5.6599,-5.6597,-5.6595,-5.6584,-5.6612,-5.6606,-5.6606,-5.6606,-5.6567,-5.602,-5.5591,-5.5203,-5.4149,-5.329,-5.2622,-5.2041,-5.1546,-5.1125,-5.097,-5.0898,-5.0838,-5.076,-5.0712,-5.0712,-5.0712,-5.0712,-5.0712,-5.0712,-5.0712,-5.0712,-5.0712,-5.0712,-5.0712,-5.0712,-5.0712,-5.0712,-5.0712,-5.0712,-5.0327,-4.8894,-4.8586,-4.8086,-4.6432,-4.6077,-4.5944,-4.558,-4.54,-4.527,-4.5094,-4.4969,-4.4838,-4.4701,-4.432,-4.3796,-4.3048,-4.1698,-4.0677,-4.0273,-3.9748,-4.012,-4.1735,-4.1389,-4.1809,-4.3441,-4.3515,-4.3515,-4.3515,-4.3515,-4.3515,-4.3515,-4.3515,-4.3515,-4.3515,-4.3515,-4.3515,-3.6093,-3.6015,-3.6055,-3.8086,-3.9922,-4.1992,-4.5117,-4.6953,-4.8516,-5.0234,-5.0117,-4.9258,-4.7851,-4.8047,-4.9062,-5.1094,-5.2344,-5.3711,-5.5469,-5.6211,-5.6601,-5.6601,-5.6601,-5.6601,-5.6601,-5.6601,-5.6601,-5.6601,-5.6367,-5.6172,-5.6172,-5.5937,-5.5781,-5.5781,-5.5781,-5.5781,-5.5781,-5.5781,-5.578,-5.5779,-5.5773,-5.6077,-5.6616,-5.6612,-5.6454,-5.6142,-5.5554,-5.5007,-5.4383,-5.3173,-5.2548,-5.2232,-5.1581,-5.13,-5.122,-5.1004,-5.0913,-5.088,-5.0769,-5.0712,-5.0712,-5.0712,-5.0712,-5.0712,-5.0712,-5.0712,-5.0712,-5.0712,-5.0712,-5.0712,-5.0712,-5.0712,-5.0712,-5.0712,-5.0481,-4.9894,-4.8432,-4.7894,-4.7317,-4.5902,-4.5594,-4.5594,-4.5594,-4.5523,-4.54,-4.5273,-4.518,-4.5071,-4.4969,-4.4838,-4.4322,-4.3267,-4.224,-4.1541,-4.1251,-4.0404,-4.0598,-4.2213,-4.1535,-4.1809,-4.3441,-4.3515,-4.3515,-4.3515,-4.3515,-4.3515,-4.3515,-4.3515,-4.3515,-4.3515,-4.3515,-4.3515,-3.6834,-3.6054,-3.5351,-3.7969,-3.9922,-4.2344,-4.6641,-4.8281,-4.9414,-5.1094,-5.1445,-5.0664,-4.8086,-4.9062,-5.0469,-5.1289,-5.2851,-5.4609,-5.6367,-5.6601,-5.6601,-5.6601,-5.6601,-5.6601,-5.6601,-5.6601,-5.6601,-5.6601,-5.5781,-5.5312,-5.5312,-5.4453,-5.3984,-5.3984,-5.3984,-5.3984,-5.3984,-5.3984,-5.3984,-5.3982,-5.3982,-5.4918,-5.6593,-5.6585,-5.6113,-5.5293,-5.5285,-5.4305,-5.2704,-5.2704,-5.2195,-5.1414,-5.1414,-5.1344,-5.1269,-5.1086,-5.0959,-5.0874,-5.074,-5.0712,-5.0712,-5.0712,-5.0712,-5.0712,-5.0712,-5.0712,-5.0712,-5.0712,-5.0712,-5.0712,-5.0712,-5.0712,-5.0712,-5.0712,-5.001,-4.9163,-4.8279,-4.7471,-4.6624,-4.5787,-4.5594,-4.5594,-4.5594,-4.555,-4.5466,-4.541,-4.54,-4.5388,-4.5288,-4.5181,-4.4633,-4.3361,-4.2909,-4.2341,-4.1419,-4.0452,-4.0598,-4.2213,-4.1535,-4.1809,-4.3441,-4.3515,-4.3515,-4.3515,-4.3515,-4.3515,-4.3515,-4.3515,-4.3515,-4.3515,-4.3515,-4.3515,-3.6834,-3.6914,-3.7148,-3.9766,-4.1719,-4.3789,-4.6875,-4.918,-5.1328,-5.3672,-5.3672,-5.2617,-5.0625,-5.0703,-5.1328,-5.2187,-5.3242,-5.4609,-5.6367,-5.6601,-5.6601,-5.6601,-5.6601,-5.6601,-5.6601,-5.6601,-5.6601,-5.6601,-5.5781,-5.5312,-5.5312,-5.4453,-5.3984,-5.3984,-5.3984,-5.3984,-5.3984,-5.3984,-5.3984,-5.3984,-5.3983,-5.4253,-5.475,-5.4787,-5.4626,-5.4346,-5.3758,-5.3173,-5.2665,-5.2038,-5.1648,-5.1414,-5.1414,-5.1344,-5.1269,-5.1086,-5.0959,-5.0874,-5.074,-5.0712,-5.0712,-5.0712,-5.0712,-5.0712,-5.0712,-5.0712,-5.0712,-5.0712,-5.0712,-5.0712,-5.0712,-5.025,-4.9779,-4.9779,-4.9586,-4.9009,-4.7586,-4.7077,-4.6624,-4.5787,-4.5594,-4.5594,-4.5594,-4.5577,-4.5568,-4.555,-4.5541,-4.5495,-4.5409,-4.526,-4.4973,-4.4461,-4.4031,-4.3685,-4.3311,-4.1751,-4.1487,-4.3105,-4.1862,-4.1809,-4.3441,-4.3515,-4.3515,-4.3515,-4.3515,-4.3515,-4.3515,-4.3515,-4.3515,-4.3515,-4.3515,-4.3515,-3.6834,-3.7812,-3.8867,-4.1133,-4.3476,-4.6211,-4.9844,-5.1562,-5.2969,-5.4883,-5.4883,-5.3984,-5.2226,-5.2187,-5.2617,-5.3125,-5.3945,-5.5,-5.6406,-5.6289,-5.6094,-5.6094,-5.5781,-5.5586,-5.5586,-5.5586,-5.5586,-5.5586,-5.4765,-5.4258,-5.4258,-5.3437,-5.2969,-5.2969,-5.2969,-5.2969,-5.2969,-5.2969,-5.2969,-5.2969,-5.2968,-5.2965,-5.2994,-5.3694,-5.3808,-5.345,-5.2548,-5.2195,-5.2156,-5.1609,-5.1414,-5.1414,-5.1414,-5.1344,-5.1269,-5.1086,-5.0959,-5.0874,-5.074,-5.0712,-5.0712,-5.0712,-5.0712,-5.0712,-5.0712,-5.0712,-5.0712,-5.0712,-5.0712,-5.0635,-5.0289,-4.9779,-4.9394,-4.9394,-4.8894,-4.8125,-4.7124,-4.6624,-4.624,-4.571,-4.5594,-4.5594,-4.5594,-4.5594,-4.5594,-4.5594,-4.5594,-4.5568,-4.5448,-4.5361,-4.5191,-4.5057,-4.4675,-4.4421,-4.4273,-4.2797,-4.2411,-4.366,-4.2435,-4.2222,-4.3475,-4.3515,-4.3515,-4.3515,-4.3515,-4.3515,-4.3515,-4.3515,-4.3515,-4.3515,-4.3515,-4.3515,-3.6792,-3.8553,-4.0312,-4.207,-4.5156,-4.9023,-5.4023,-5.4492,-5.418,-5.5195,-5.543,-5.4922,-5.3242,-5.3633,-5.4219,-5.4141,-5.4844,-5.5703,-5.6484,-5.5859,-5.5312,-5.5312,-5.4531,-5.3984,-5.3984,-5.3984,-5.3984,-5.3984,-5.3203,-5.2695,-5.2695,-5.1875,-5.1406,-5.1406,-5.1406,-5.1406,-5.1406,-5.1406,-5.1406,-5.1406,-5.1406,-5.1405,-5.1438,-5.3033,-5.3342,-5.2521,-5.173,-5.1414,-5.1414,-5.1414,-5.1414,-5.1414,-5.1414,-5.1344,-5.1273,-5.1092,-5.0966,-5.089,-5.0749,-5.0712,-5.0712,-5.0712,-5.0712,-5.0712,-5.0712,-5.0712,-5.0712,-5.0712,-5.0635,-5.0404,-4.9625,-4.9279,-4.9163,-4.9163,-4.8009,-4.6885,-4.6817,-4.6163,-4.5594,-4.5594,-4.5594,-4.5594,-4.5594,-4.5594,-4.5594,-4.5594,-4.5594,-4.5577,-4.5532,-4.5448,-4.5361,-4.5235,-4.4934,-4.4701,-4.4554,-4.3582,-4.3252,-4.3902,-4.305,-4.2881,-4.3614,-4.3549,-4.3515,-4.3515,-4.3515,-4.3515,-4.3515,-4.3515,-4.3515,-4.3515,-4.3515,-4.3515,-3.644,-3.8553,-4.0469,-4.2812,-4.6055,-4.9609,-5.3398,-5.3594,-5.3633,-5.5859,-5.6328,-5.6015,-5.4922,-5.5469,-5.582,-5.5117,-5.5742,-5.6406,-5.6562,-5.5859,-5.5312,-5.5312,-5.4531,-5.3984,-5.3984,-5.3984,-5.3984,-5.3984,-5.3203,-5.2695,-5.2695,-5.1875,-5.1406,-5.1406,-5.1406,-5.1406,-5.1406,-5.1406,-5.1406,-5.1406,-5.1406,-5.1405,-5.1404,-5.179,-5.186,-5.1652,-5.1494,-5.1414,-5.1414,-5.1414,-5.1414,-5.1414,-5.1414,-5.1352,-5.1296,-5.1123,-5.1056,-5.0966,-5.0764,-5.0682,-5.0721,-5.0683,-5.0712,-5.0712,-5.0712,-5.0712,-5.0712,-5.0712,-5.0212,-4.9625,-4.9433,-4.8432,-4.7432,-4.7432,-4.7163,-4.6701,-4.6009,-4.5748,-4.5594,-4.5594,-4.5594,-4.5594,-4.5594,-4.5594,-4.5594,-4.5594,-4.5594,-4.5586,-4.5577,-4.5568,-4.5523,-4.5371,-4.5191,-4.506,-4.4922,-4.3957,-4.3666,-4.4332,-4.3341,-4.3095,-4.3812,-4.3634,-4.3515,-4.3515,-4.3515,-4.3515,-4.3515,-4.3515,-4.3515,-4.3515,-4.3515,-4.3515,-3.5738,-3.8553,-4.1523,-4.5742,-4.8164,-5.043,-5.3828,-5.3945,-5.3828,-5.5625,-5.5664,-5.5234,-5.4765,-5.5039,-5.5195,-5.4765,-5.5078,-5.5351,-5.5351,-5.4609,-5.4062,-5.4062,-5.3281,-5.2773,-5.2773,-5.2773,-5.2773,-5.2773,-5.2344,-5.207,-5.207,-5.1641,-5.1406,-5.1406,-5.1406,-5.1406,-5.1406,-5.1406,-5.1406,-5.1406,-5.1406,-5.1405,-5.1405,-5.1401,-5.1395,-5.1389,-5.1389,-5.1385,-5.1382,-5.1382,-5.1418,-5.1414,-5.1414,-5.1396,-5.1317,-5.1217,-5.1125,-5.1011,-5.0835,-5.0773,-5.0729,-5.0693,-5.0712,-5.0635,-5.0202,-5.0087,-4.9971,-4.9586,-4.9125,-4.8702,-4.8317,-4.7548,-4.6778,-4.6394,-4.6278,-4.6163,-4.571,-4.5594,-4.5594,-4.5594,-4.5594,-4.5594,-4.5594,-4.5594,-4.5594,-4.5594,-4.5594,-4.5594,-4.5594,-4.5594,-4.5568,-4.5448,-4.5371,-4.5243,-4.5126,-4.4635,-4.4407,-4.4649,-4.3929,-4.367,-4.3923,-4.3667,-4.3515,-4.3515,-4.3515,-4.3515,-4.3515,-4.3515,-4.3515,-4.3515,-4.3515,-4.3515,-3.484,-3.8515,-4.2695,-4.8164,-4.9766,-5.0781,-5.3906,-5.4062,-5.3789,-5.4687,-5.4414,-5.3984,-5.3984,-5.3984,-5.3984,-5.3984,-5.3984,-5.3984,-5.3984,-5.3242,-5.2695,-5.2695,-5.1914,-5.1406,-5.1406,-5.1406,-5.1406,-5.1406,-5.1406,-5.1406,-5.1406,-5.1406,-5.1406,-5.1406,-5.1406,-5.1406,-5.1406,-5.1406,-5.1406,-5.1406,-5.1406,-5.1406,-5.1405,-5.1402,-5.14,-5.1398,-5.1398,-5.1396,-5.1391,-5.139,-5.1385,-5.1416,-5.1414,-5.1401,-5.1375,-5.1261,-5.1152,-5.108,-5.0942,-5.0866,-5.0812,-5.0741,-5.0712,-5.0558,-4.9817,-4.9625,-4.9471,-4.874,-4.8432,-4.8163,-4.7509,-4.724,-4.6932,-4.6201,-4.5941,-4.5787,-4.5633,-4.5594,-4.5594,-4.5594,-4.5594,-4.5594,-4.5594,-4.5594,-4.5594,-4.5594,-4.5594,-4.5594,-4.5594,-4.5594,-4.5577,-4.5541,-4.5457,-4.54,-4.5273,-4.526,-4.517,-4.4914,-4.4557,-4.4279,-4.4064,-4.3714,-4.3549,-4.3549,-4.3515,-4.3515,-4.3515,-4.3515,-4.3515,-4.3515,-4.3515,-4.3515,-3.3942,-3.8476,-4.2969,-4.6055,-4.7969,-4.957,-5.1484,-5.1836,-5.1992,-5.2851,-5.3555,-5.3984,-5.3984,-5.3984,-5.3984,-5.3984,-5.3984,-5.3984,-5.3984,-5.3242,-5.2695,-5.2695,-5.1914,-5.1406,-5.1406,-5.1406,-5.1406,-5.1406,-5.1406,-5.1406,-5.1406,-5.1406,-5.1406,-5.1406,-5.1406,-5.1406,-5.1406,-5.1406,-5.1406,-5.1406,-5.1406,-5.1406,-5.1406,-5.1406,-5.1405,-5.1398,-5.1398,-5.1398,-5.1397,-5.1393,-5.1389,-5.1387,-5.1418,-5.1408,-5.1391,-5.132,-5.1226,-5.118,-5.0984,-5.0906,-5.0855,-5.076,-5.0712,-5.0673,-5.0558,-5.0519,-5.0519,-5.0404,-4.9817,-4.9202,-4.9086,-4.8509,-4.7932,-4.7778,-4.724,-4.6509,-4.5748,-4.5594,-4.5594,-4.5594,-4.5594,-4.5594,-4.5594,-4.5594,-4.5594,-4.5594,-4.5594,-4.5594,-4.5594,-4.5594,-4.5594,-4.5586,-4.5577,-4.5568,-4.5559,-4.555,-4.5458,-4.5235,-4.4862,-4.4519,-4.4279,-4.3961,-4.3771,-4.3771,-4.3583,-4.3515,-4.3515,-4.3515,-4.3515,-4.3515,-4.3515,-4.3515,-3.4842,-3.8867,-4.2461,-4.5547,-4.6875,-4.8125,-5.0781,-5.1055,-5.1094,-5.2422,-5.2617,-5.2539,-5.2539,-5.2539,-5.2539,-5.2539,-5.2539,-5.2539,-5.2539,-5.2226,-5.1953,-5.1953,-5.1641,-5.1406,-5.1406,-5.1406,-5.1406,-5.1406,-5.1406,-5.1406,-5.1406,-5.1406,-5.1406,-5.1406,-5.1406,-5.1406,-5.1406,-5.1406,-5.1406,-5.1406,-5.1406,-5.1406,-5.1406,-5.1406,-5.1406,-5.1405,-5.1405,-5.1404,-5.1441,-5.1948,-5.1828,-5.1434,-5.1938,-5.1815,-5.1416,-5.1367,-5.1323,-5.1234,-5.1029,-5.0942,-5.0888,-5.073,-5.0712,-5.0596,-5.0125,-4.9971,-4.9856,-4.9394,-4.8971,-4.8663,-4.8663,-4.8394,-4.8086,-4.8086,-4.7817,-4.7355,-4.6509,-4.5932,-4.5748,-4.624,-4.6317,-4.6317,-4.6317,-4.5932,-4.5594,-4.5594,-4.5594,-4.5594,-4.5594,-4.5594,-4.5594,-4.5594,-4.5594,-4.5594,-4.5594,-4.5594,-4.5514,-4.5298,-4.4922,-4.4572,-4.4322,-4.3992,-4.3804,-4.3804,-4.3634,-4.3566,-4.3566,-4.3532,-4.3515,-4.3515,-4.3515,-4.3515,-3.4335,-3.7734,-4.0703,-4.4141,-4.5312,-4.6367,-4.9141,-4.9648,-4.9961,-5.1445,-5.1406,-5.1172,-5.1367,-5.1406,-5.1406,-5.1406,-5.1406,-5.1406,-5.1406,-5.1406,-5.1406,-5.1406,-5.1406,-5.1406,-5.1406,-5.1406,-5.1406,-5.1406,-5.1406,-5.1406,-5.1406,-5.1406,-5.1406,-5.1406,-5.1406,-5.1406,-5.1406,-5.1406,-5.1406,-5.1406,-5.1406,-5.1406,-5.1406,-5.1406,-5.1406,-5.1406,-5.1406,-5.1406,-5.1483,-5.2342,-5.2184,-5.1478,-5.2376,-5.2177,-5.1391,-5.139,-5.136,-5.1285,-5.1108,-5.0979,-5.0906,-5.0767,-5.0702,-5.0568,-4.9942,-4.974,-4.9586,-4.8933,-4.8779,-4.8779,-4.8779,-4.8779,-4.8779,-4.8779,-4.8586,-4.8202,-4.7394,-4.6547,-4.6163,-4.7048,-4.7038,-4.6885,-4.6885,-4.6163,-4.5594,-4.5594,-4.5594,-4.5594,-4.5594,-4.5594,-4.5594,-4.5594,-4.5594,-4.5594,-4.5594,-4.5594,-4.5514,-4.5298,-4.4934,-4.4599,-4.4351,-4.4039,-4.3869,-4.3869,-4.3718,-4.3634,-4.3617,-4.3549,-4.3515,-4.3515,-4.3515,-4.3515,-3.0701,-3.371,-3.7109,-4.0586,-4.2656,-4.4101,-4.5117,-4.6562,-4.8008,-4.8906,-4.9726,-5.0508,-5.125,-5.1406,-5.1406,-5.1406,-5.1406,-5.1406,-5.1406,-5.1406,-5.1406,-5.1406,-5.1406,-5.1406,-5.1406,-5.1406,-5.1406,-5.1406,-5.1406,-5.1406,-5.1406,-5.1406,-5.1406,-5.1406,-5.1406,-5.1406,-5.1406,-5.1406,-5.1406,-5.1406,-5.1406,-5.1406,-5.1406,-5.1406,-5.1406,-5.1406,-5.1406,-5.1406,-5.1484,-5.2343,-5.2186,-5.1482,-5.2377,-5.2179,-5.1397,-5.1391,-5.1371,-5.1284,-5.12,-5.1092,-5.0988,-5.0833,-5.0738,-5.0692,-5.0645,-5.0635,-5.0635,-5.0596,-5.0558,-5.0558,-5.0558,-5.0558,-5.0558,-5.0558,-4.9933,-4.9086,-4.824,-4.7394,-4.7086,-4.7894,-4.7432,-4.6885,-4.6885,-4.6163,-4.5594,-4.5594,-4.5594,-4.5594,-4.5594,-4.5594,-4.5594,-4.5594,-4.5594,-4.5594,-4.5594,-4.5594,-4.5514,-4.5298,-4.4969,-4.4701,-4.4496,-4.4177,-4.3971,-4.3971,-4.3849,-4.3738,-4.3617,-4.3549,-4.3515,-4.3515,-4.3515,-4.3515,-2.8745,-3.1326,-3.4062,-3.6445,-3.875,-4.0781,-4.2226,-4.3867,-4.582,-4.8359,-4.9141,-4.9766,-5.1133,-5.1406,-5.1406,-5.1406,-5.1406,-5.1406,-5.1406,-5.1406,-5.1406,-5.1406,-5.1406,-5.1211,-5.0664,-5.0625,-5.0391,-4.9844,-4.9805,-4.9805,-4.9805,-4.9805,-4.9805,-4.9805,-4.9805,-5.0078,-5.0625,-5.0625,-5.0898,-5.1406,-5.1406,-5.1406,-5.1406,-5.1406,-5.1406,-5.1406,-5.1406,-5.1406,-5.1523,-5.2929,-5.2695,-5.1523,-5.2968,-5.2655,-5.1402,-5.1402,-5.139,-5.1357,-5.1236,-5.1122,-5.1047,-5.0928,-5.0819,-5.0773,-5.0702,-5.0712,-5.0712,-5.0712,-5.0712,-5.0712,-5.0712,-5.0712,-5.0712,-5.0712,-5.001,-4.9471,-4.9702,-4.9086,-4.8586,-4.8894,-4.8702,-4.8509,-4.8509,-4.7778,-4.7201,-4.7201,-4.6778,-4.6432,-4.6432,-4.5932,-4.5594,-4.5594,-4.5594,-4.5594,-4.5594,-4.5594,-4.5523,-4.5388,-4.5071,-4.4838,-4.4646,-4.4354,-4.4162,-4.4153,-4.3918,-4.3788,-4.3754,-4.3566,-4.3515,-4.3515,-4.3515,-4.3515,-2.6937,-2.9053,-3.1284,-3.3318,-3.5351,-3.7304,-3.9062,-4.0976,-4.332,-4.6484,-4.7617,-4.8555,-5.0234,-5.0547,-5.0742,-5.1328,-5.1406,-5.1406,-5.1406,-5.1406,-5.1406,-5.1406,-5.1172,-5.0781,-5.0234,-4.9922,-4.9531,-4.8945,-4.8906,-4.8906,-4.8906,-4.8906,-4.8906,-4.8906,-4.918,-4.9609,-5.0195,-5.0469,-5.0859,-5.1406,-5.1406,-5.1406,-5.1406,-5.1406,-5.1406,-5.1406,-5.1406,-5.1406,-5.1523,-5.3281,-5.2969,-5.1562,-5.332,-5.2929,-5.1405,-5.1405,-5.1399,-5.1382,-5.1282,-5.1232,-5.1152,-5.1017,-5.0918,-5.0867,-5.0773,-5.0758,-5.074,-5.073,-5.0712,-5.0693,-5.0712,-5.0712,-5.0712,-5.0712,-5.025,-4.9971,-5.0558,-5.001,-4.9471,-4.9779,-4.9586,-4.9394,-4.9394,-4.8663,-4.8086,-4.8086,-4.7432,-4.6885,-4.6885,-4.6124,-4.5594,-4.5594,-4.5594,-4.5594,-4.5594,-4.5594,-4.5541,-4.54,-4.5169,-4.4981,-4.4789,-4.4472,-4.431,-4.4244,-4.3982,-4.3837,-4.3837,-4.36,-4.3515,-4.3515,-4.3515,-4.3515,0.0,0.0,0.0,-3.1278,-3.2612,-3.3748,-3.543,-3.7851,-4.0469,-4.3047,-4.4961,-4.6719,-4.8516,-4.8867,-4.9414,-5.1055,-5.1328,-5.1328,-5.1328,-5.1328,-5.1328,-5.1328,-5.0625,-5.0156,-5.0117,-4.9375,-4.8867,-4.8828,-4.8828,-4.8828,-4.8828,-4.8828,-4.8828,-4.8828,-4.9648,-5.0117,-5.0117,-5.0898,-5.1289,-5.1328,-5.1328,-5.1328,-5.1367,-5.1367,-5.1367,-5.1406,-5.1406,-5.1406,-5.1523,-5.3242,-5.2969,-5.1562,-5.3242,-5.2891,-5.1406,-5.1366,-5.1363,-5.1397,-5.1382,-5.1355,-5.1264,-5.1138,-5.1058,-5.0985,-5.0952,-5.0882,-5.088,-5.0838,-5.0747,-5.0692,-5.0683,-5.0712,-5.0712,-5.0712,-5.0712,-5.0712,-5.0712,-5.0048,-4.9702,-5.0558,-5.001,-4.9433,-4.9433,-4.874,-4.8202,-4.8202,-4.7471,-4.6923,-4.6923,-4.6163,-4.5594,-4.5594,-4.5594,-4.5594,-4.5594,-4.5594,-4.555,-4.541,-4.5273,-4.5105,-4.4938,-4.4597,-4.4365,-4.4333,-4.4039,-4.3897,-4.3897,-4.3651,-4.3515,-4.3515,-4.3515,-4.3515,-2.4302,0.0,0.0,0.0,0.0,0.0,-3.1248,-3.3827,-3.7031,-4.0273,-4.2305,-4.4414,-4.7422,-4.7969,-4.832,-4.9414,-4.9609,-4.9609,-4.9609,-4.9609,-4.9609,-4.9609,-4.9414,-4.9023,-4.8398,-4.8086,-4.7695,-4.707,-4.7031,-4.7031,-4.7031,-4.7031,-4.7031,-4.703,-4.7265,-4.7694,-4.8317,-4.8553,-4.8984,-4.9609,-4.9609,-4.9922,-5.0547,-5.0547,-5.0859,-5.1406,-5.1406,-5.1406,-5.1484,-5.2617,-5.2383,-5.1445,-5.1914,-5.1836,-5.1328,-5.0742,-5.0898,-5.1405,-5.1404,-5.1397,-5.134,-5.1222,-5.1179,-5.1131,-5.1086,-5.1023,-5.0966,-5.0896,-5.0867,-5.0825,-5.071,-5.0693,-5.0712,-5.0712,-5.0712,-5.0712,-5.0712,-5.0519,-5.0404,-5.0635,-5.0519,-5.0327,-5.0327,-5.0125,-4.9971,-4.9971,-4.8702,-4.7778,-4.7778,-4.6509,-4.5594,-4.5594,-4.5594,-4.5594,-4.5594,-4.5594,-4.5568,-4.5466,-4.54,-4.5281,-4.5125,-4.4888,-4.4674,-4.451,-4.4199,-4.4017,-4.3992,-4.38,-4.3738,-4.3721,-4.3617,-4.3566,-2.511,-2.5661,-2.609,-2.6084,0.0,0.0,-2.8933,-3.1399,-3.4487,-3.7614,-3.9647,-4.1679,-4.4414,-4.4922,-4.5117,-4.5625,-4.5976,-4.6836,-4.8633,-4.8906,-4.8906,-4.8906,-4.8594,-4.8164,-4.7656,-4.7266,-4.6836,-4.6328,-4.6289,-4.6289,-4.6289,-4.6289,-4.6289,-4.6287,-4.6635,-4.7061,-4.7607,-4.792,-4.8353,-4.8864,-4.8906,-4.918,-4.9648,-4.9648,-4.9922,-5.0351,-5.0351,-5.0351,-5.0391,-5.0898,-5.1211,-5.1406,-5.1406,-5.1406,-5.1289,-5.0508,-5.0703,-5.1406,-5.1406,-5.1405,-5.1399,-5.1304,-5.1282,-5.1258,-5.1207,-5.1156,-5.1069,-5.1008,-5.0925,-5.0858,-5.0756,-5.0721,-5.0712,-5.0712,-5.0712,-5.0712,-5.0712,-5.0712,-5.0712,-5.0712,-5.0712,-5.0712,-5.0712,-5.0404,-5.0164,-5.0164,-4.8702,-4.7586,-4.7586,-4.6432,-4.5748,-4.6086,-4.6124,-4.6278,-4.6624,-4.6355,-4.6115,-4.6088,-4.5715,-4.541,-4.5309,-4.5121,-4.4936,-4.4738,-4.4416,-4.4132,-4.3986,-4.3886,-4.3771,-4.3701,-4.3634,-4.3583,-2.6846,-2.6884,-2.6893,-2.6793,-2.6837,0.0,-2.7768,-2.9851,-3.236,-3.4794,-3.6673,-3.8396,-4.0156,-4.0469,-4.0508,-4.0625,-4.1406,-4.3476,-4.7734,-4.8398,-4.8516,-4.8594,-4.793,-4.7461,-4.7461,-4.6758,-4.6289,-4.6289,-4.6289,-4.6289,-4.6289,-4.6289,-4.6289,-4.6286,-4.6975,-4.7395,-4.7439,-4.8138,-4.8494,-4.8507,-4.8593,-4.8672,-4.875,-4.875,-4.8828,-4.8906,-4.8906,-4.8906,-4.8906,-4.8984,-4.9883,-5.1094,-5.1016,-5.1094,-5.1172,-5.0351,-5.0625,-5.1406,-5.1406,-5.1406,-5.1404,-5.1397,-5.1389,-5.1379,-5.1318,-5.1252,-5.1211,-5.1156,-5.0992,-5.0819,-5.0816,-5.0758,-5.0712,-5.0712,-5.0712,-5.0712,-5.0712,-5.0712,-5.0712,-5.0712,-5.0712,-5.0712,-5.0712,-4.9971,-4.9394,-4.9394,-4.7971,-4.6885,-4.6885,-4.6124,-4.5893,-4.6663,-4.6846,-4.7163,-4.7778,-4.7278,-4.6846,-4.6778,-4.6009,-4.555,-4.5419,-4.5273,-4.5115,-4.495,-4.4597,-4.4294,-4.4017,-4.3881,-4.3734,-4.3651,-4.3651,-4.36,-2.7685,-2.7682,-2.7537,-2.6896,-2.6784,0.0,-2.6165,-2.7534,-2.9283,-3.0512,-3.2169,-3.3899,-3.5662,-3.5975,-3.621,-3.6914,-3.832,-4.0586,-4.4219,-4.5312,-4.6016,-4.6719,-4.6641,-4.6562,-4.6562,-4.6406,-4.6289,-4.6289,-4.6289,-4.6289,-4.6288,-4.6288,-4.6283,-4.622,-4.6362,-4.646,-4.6479,-4.6616,-4.6711,-4.6726,-4.679,-4.7186,-4.785,-4.7851,-4.8242,-4.8906,-4.8906,-4.8906,-4.8945,-4.9648,-4.9726,-4.9336,-4.8633,-4.9219,-5.0312,-4.9453,-5.0117,-5.1406,-5.1406,-5.1406,-5.1406,-5.1406,-5.1405,-5.1405,-5.1365,-5.1358,-5.1338,-5.13,-5.1131,-5.0945,-5.0952,-5.0816,-5.0682,-5.0682,-5.0693,-5.0712,-5.0712,-5.0712,-5.0712,-5.0712,-5.0712,-5.0712,-5.0712,-4.9971,-4.9394,-4.9394,-4.7971,-4.6885,-4.6885,-4.6124,-4.5671,-4.5825,-4.6471,-4.6701,-4.6124,-4.6586,-4.6586,-4.5893,-4.571,-4.5568,-4.5466,-4.541,-4.5291,-4.5148,-4.4751,-4.4468,-4.4222,-4.4055,-4.3929,-4.3832,-4.3832,-4.38,-3.039,-2.9765,-2.8954,-2.8145,-2.7331,0.0,0.0,-2.6524,-2.774,-2.8632,-2.987,-3.1181,-3.2526,-3.2764,-3.2883,-3.3353,-3.4877,-3.6909,-3.9488,-4.207,-4.4023,-4.4883,-4.5,-4.5,-4.5,-4.5,-4.5195,-4.5625,-4.5664,-4.5859,-4.6287,-4.6283,-4.623,-4.6199,-4.6144,-4.6103,-4.6095,-4.6103,-4.6134,-4.6139,-4.6225,-4.6515,-4.695,-4.6953,-4.7187,-4.7617,-4.7617,-4.7617,-4.7656,-4.8555,-4.8398,-4.7656,-4.8086,-4.9062,-5.0078,-4.9219,-4.9961,-5.1406,-5.1406,-5.1406,-5.1406,-5.1406,-5.1406,-5.1406,-5.1406,-5.1404,-5.1393,-5.1344,-5.1222,-5.1075,-5.1069,-5.0952,-5.0833,-5.0821,-5.0776,-5.074,-5.0712,-5.0683,-5.0712,-5.0712,-5.0366,-5.0048,-5.0048,-4.9009,-4.8163,-4.8163,-4.7086,-4.624,-4.624,-4.5864,-4.5787,-4.6201,-4.6624,-4.6894,-4.6855,-4.6894,-4.6701,-4.6278,-4.5825,-4.5586,-4.5559,-4.5532,-4.54,-4.5208,-4.4888,-4.4608,-4.436,-4.4237,-4.407,-4.3897,-4.3897,-4.3849,-3.2891,-3.1794,-3.0392,-2.9445,-2.8044,-2.6678,0.0,0.0,0.0,-2.7436,-2.8171,-2.8944,-2.9642,-2.9767,-2.9772,-2.9773,-3.1222,-3.2943,-3.4506,-3.8,-4.1093,-4.2968,-4.3203,-4.3281,-4.3437,-4.3437,-4.3672,-4.4219,-4.4414,-4.4882,-4.5737,-4.5878,-4.6009,-4.6167,-4.6065,-4.6002,-4.5978,-4.6002,-4.6042,-4.6084,-4.6155,-4.6225,-4.6278,-4.6288,-4.6289,-4.6289,-4.6289,-4.6289,-4.6367,-4.7422,-4.7226,-4.6445,-4.8047,-4.918,-4.9844,-4.9141,-4.9961,-5.1406,-5.1406,-5.1406,-5.1367,-5.1211,-5.1055,-5.0937,-5.1133,-5.1171,-5.1203,-5.1377,-5.1294,-5.1226,-5.1157,-5.0951,-5.0777,-5.0704,-5.0518,-5.0306,-5.0245,-5.023,-5.0221,-5.0221,-4.9519,-4.9009,-4.9356,-4.8009,-4.6885,-4.6885,-4.6163,-4.5594,-4.5594,-4.5594,-4.5864,-4.6586,-4.6817,-4.7086,-4.7586,-4.7201,-4.6817,-4.6663,-4.597,-4.5594,-4.5594,-4.5586,-4.5457,-4.5243,-4.5042,-4.4789,-4.4425,-4.4345,-4.4177,-4.3913,-4.3913,-4.3881,-3.2891,-3.2237,-3.1166,-2.9517,-2.8445,-2.7329,-2.5712,0.0,-2.5575,-2.5697,0.0,-2.5971,-2.6082,0.0,0.0,-2.6104,-2.7559,-2.9051,-3.0005,-3.1902,-3.5209,-4.0737,-4.1403,-4.1716,-4.2459,-4.2537,-4.2263,-4.1598,-4.2263,-4.3079,-4.3952,-4.4677,-4.5378,-4.6104,-4.6041,-4.5953,-4.5923,-4.5991,-4.6035,-4.6095,-4.6157,-4.6199,-4.6214,-4.6282,-4.6288,-4.6288,-4.6289,-4.6289,-4.6445,-4.8086,-4.7773,-4.6406,-4.7383,-4.8281,-4.9023,-4.8945,-4.9961,-5.1406,-5.1406,-5.1406,-5.1289,-5.0586,-4.9805,-4.9336,-5.0117,-5.0351,-5.0468,-5.1203,-5.1345,-5.1282,-5.1288,-5.0611,-4.9922,-4.9948,-4.9278,-4.8636,-4.8601,-4.8536,-4.8496,-4.8496,-4.7767,-4.7663,-4.9125,-4.8009,-4.6885,-4.6885,-4.6163,-4.5594,-4.5594,-4.5594,-4.5633,-4.5748,-4.6432,-4.6624,-4.5941,-4.6509,-4.6586,-4.5787,-4.5671,-4.5594,-4.5594,-4.555,-4.5457,-4.539,-4.5164,-4.4912,-4.4559,-4.4444,-4.4252,-4.4008,-4.4008,-4.3971,-3.4385,-3.343,-3.2006,-3.0275,-2.8852,-2.7428,-2.5692,-2.5722,-2.6106,-2.6142,0.0,0.0,0.0,0.0,0.0,0.0,-2.7249,-2.8162,-2.8608,-2.9691,-3.2004,-3.6079,-3.7061,-3.7727,-3.8588,-3.8663,-3.8702,-3.8899,-3.9209,-4.0176,-4.2024,-4.3332,-4.4431,-4.5258,-4.5685,-4.5867,-4.5848,-4.5867,-4.5905,-4.5969,-4.6056,-4.6084,-4.6134,-4.6223,-4.6241,-4.6285,-4.6289,-4.6289,-4.6406,-4.7656,-4.7422,-4.6406,-4.7266,-4.8125,-4.8906,-4.8906,-4.9961,-5.1406,-5.1406,-5.1406,-5.1289,-5.0469,-4.9609,-4.9062,-4.9922,-5.0195,-5.0351,-5.1169,-5.1397,-5.1348,-5.1367,-5.0678,-4.9939,-4.9928,-4.9202,-4.8499,-4.8419,-4.833,-4.8257,-4.8193,-4.7516,-4.7115,-4.7817,-4.6932,-4.6163,-4.6163,-4.5825,-4.5594,-4.5594,-4.5594,-4.5594,-4.5594,-4.5932,-4.6009,-4.5633,-4.5932,-4.597,-4.5633,-4.5594,-4.5594,-4.5594,-4.5577,-4.555,-4.5532,-4.5329,-4.5053,-4.4701,-4.4541,-4.431,-4.3986,-4.3986,-4.3986,-3.5794,-3.4391,-3.2506,-3.0808,-2.9159,-2.7428,-2.5692,-2.5976,-2.6612,-2.6675,-2.7388,0.0,0.0,0.0,-2.7675,-2.6825,0.0,-2.7562,-2.7377,-2.769,-2.9093,-3.2228,-3.3608,-3.4472,-3.4903,-3.5288,-3.5716,-3.6152,-3.6615,-3.7732,-3.9806,-4.166,-4.3213,-4.43,-4.5073,-4.5568,-4.5807,-4.5807,-4.5834,-4.5899,-4.5958,-4.6037,-4.6119,-4.6153,-4.6223,-4.6276,-4.6287,-4.6289,-4.6367,-4.7226,-4.7109,-4.6406,-4.7266,-4.8008,-4.8555,-4.8555,-4.9453,-5.0703,-5.0703,-5.0547,-5.0273,-4.9687,-4.9062,-4.8672,-4.9297,-4.9648,-4.9961,-5.0546,-5.0701,-5.0697,-5.0727,-5.0056,-4.9382,-4.9346,-4.8801,-4.8206,-4.7927,-4.7921,-4.7913,-4.7627,-4.7028,-4.6565,-4.6565,-4.6018,-4.5594,-4.5594,-4.5594,-4.5594,-4.5594,-4.5594,-4.5594,-4.5594,-4.5594,-4.5594,-4.5594,-4.5594,-4.5594,-4.5594,-4.5594,-4.5594,-4.5594,-4.5594,-4.5594,-4.5594,-4.54,-4.5132,-4.4788,-4.4595,-4.4325,-4.3986,-4.3986,-4.3986,-3.6632,-3.4814,-3.2506,-3.0808,-2.9159,-2.7428,-2.5692,-2.5962,-2.6582,-2.6582,-2.7318,-2.7895,-2.7901,-2.7901,-2.7631,-2.6741,-2.6626,0.0,0.0,-2.4748,-2.5874,-3.0266,-3.2283,-3.307,-3.2318,-3.37,-3.4287,-3.3487,-3.4983,-3.6328,-3.7179,-3.9534,-4.1657,-4.3382,-4.4234,-4.5026,-4.5807,-4.5807,-4.5827,-4.59,-4.5968,-4.603,-4.6085,-4.6154,-4.6197,-4.621,-4.6281,-4.6287,-4.6366,-4.7226,-4.7109,-4.6406,-4.7266,-4.7617,-4.7656,-4.7656,-4.8203,-4.8984,-4.8984,-4.8437,-4.7734,-4.7695,-4.7656,-4.7656,-4.7656,-4.8281,-4.8945,-4.8984,-4.8984,-4.8984,-4.8984,-4.832,-4.7695,-4.7689,-4.7599,-4.7303,-4.6385,-4.6712,-4.6995,-4.6138,-4.585,-4.574,-4.574,-4.5659,-4.5594,-4.5594,-4.5594,-4.5594,-4.5594,-4.5594,-4.5594,-4.5594,-4.5594,-4.5594,-4.5594,-4.5594,-4.5594,-4.5594,-4.5594,-4.5594,-4.5594,-4.5594,-4.5594,-4.5594,-4.54,-4.5132,-4.4788,-4.4595,-4.4325,-4.3986,-4.3986,-4.3986,-3.5745,-3.4777,-3.328,-3.1623,-3.0318,-2.9025,-2.7347,-2.7627,-2.8401,-2.8994,-2.9813,-3.0583,-3.1121,-3.0775,-2.9929,-2.8506,-2.7813,-2.6967,0.0,-2.4598,-2.4478,-2.5405,-2.8586,-3.0558,-3.0347,-3.131,-3.1858,-3.1601,-3.2062,-3.3287,-3.5262,-3.7177,-3.9265,-4.1602,-4.3021,-4.4136,-4.4987,-4.5529,-4.5814,-4.5821,-4.5848,-4.5893,-4.5958,-4.6047,-4.6076,-4.6131,-4.6181,-4.6278,-4.6324,-4.6601,-4.6562,-4.6328,-4.6601,-4.6758,-4.6797,-4.7383,-4.8164,-4.8906,-4.8906,-4.8711,-4.8476,-4.8476,-4.8476,-4.8555,-4.9141,-4.9531,-4.9766,-4.9766,-4.9766,-4.9648,-4.9062,-4.8242,-4.7617,-4.7615,-4.7141,-4.6622,-4.6236,-4.6325,-4.6358,-4.6008,-4.5906,-4.581,-4.5758,-4.5711,-4.5662,-4.5603,-4.5594,-4.5594,-4.5594,-4.5594,-4.5594,-4.5594,-4.5594,-4.5594,-4.5594,-4.5594,-4.5594,-4.5594,-4.5594,-4.5594,-4.5594,-4.5594,-4.5594,-4.5594,-4.54,-4.5132,-4.4788,-4.4595,-4.4325,-4.3986,-4.3986,-4.3986,-3.5569,-3.4762,-3.3646,-3.2554,-3.1431,-3.0244,-2.89,-2.9289,-3.0138,-3.0725,-3.1545,-3.2391,-3.3199,-3.2468,-3.1121,-2.9396,-2.8434,-2.7198,0.0,-2.4657,-2.4109,-2.2995,-2.5878,-2.8098,-2.8406,-2.9482,-3.0261,-3.0637,-3.063,-3.1472,-3.3468,-3.5116,-3.7212,-3.9804,-4.1816,-4.3401,-4.4594,-4.5413,-4.5807,-4.5807,-4.5807,-4.5834,-4.5893,-4.5958,-4.6032,-4.6111,-4.6189,-4.6222,-4.6274,-4.6287,-4.6289,-4.6289,-4.6289,-4.6289,-4.6367,-4.6914,-4.75,-4.8008,-4.832,-4.8437,-4.8476,-4.8789,-4.9101,-4.9414,-4.9648,-4.9961,-5.0078,-4.9453,-4.9297,-4.9062,-4.8203,-4.7578,-4.7148,-4.7148,-4.6951,-4.6674,-4.6306,-4.6428,-4.6498,-4.613,-4.5983,-4.5902,-4.588,-4.5814,-4.5688,-4.5637,-4.5603,-4.5594,-4.5594,-4.5594,-4.5594,-4.5594,-4.5594,-4.5594,-4.5594,-4.5594,-4.5594,-4.5594,-4.5893,-4.6047,-4.6047,-4.6355,-4.6471,-4.6471,-4.6291,-4.5938,-4.5328,-4.5153,-4.4768,-4.4192,-4.414,-4.4147]},{"header":{"parameterUnit":"m.s-1","parameterCategory":1,"la1":30.6,"la2":29.2853,"lo1":-89.7004,"lo2":-87.6739,"dy":0.0162,"dx":0.0183,"nx":112,"ny":82,"refTime":"2026-04-22T00:00:00:Z","depth":0,"parameterNumber":3,"parameterNumberName":"V-component_of_WINDS"},"data":[0.0,0.0,0.0,0.0,0.0,0.0,0.0,0.0,0.0,0.0,0.0,0.0,0.0,0.0,0.0,0.0,0.0,0.0,0.0,0.0,0.0,0.0,0.0,0.0,0.0,0.0,0.0,0.0,0.0,0.0,0.0,0.0,0.0,0.0,0.0,0.0,0.0,0.0,0.0,0.0,0.0,0.0,0.0,0.0,0.0,0.0,0.0,0.0,0.0,0.0,0.0,0.0,0.0,0.0,0.0,0.0,0.0,0.0,0.0,0.0,0.0,0.0,0.0,0.0,0.0,0.0,0.0,0.0,0.0,0.0,0.0,0.0,0.0,0.0,0.0,0.0,0.0,0.0,0.0,0.0,0.0,0.0,0.0,0.0,0.0,0.0,0.0,0.0,0.0,0.0,-0.5996,-0.6572,-0.7124,-0.7601,-0.7895,-0.7762,-0.7808,-0.8119,0.0,0.0,0.0,0.0,0.0,0.0,0.0,0.0,0.0,0.0,0.0,0.0,0.0,0.0,0.0,0.0,0.0,0.0,0.0,0.0,0.0,0.0,0.0,0.0,0.0,0.0,0.0,0.0,0.0,0.0,0.0,0.0,0.0,0.0,0.0,0.0,0.0,0.0,0.0,0.0,0.0,0.0,0.0,0.0,0.0,0.0,0.0,0.0,0.0,0.0,0.0,0.0,0.0,0.0,0.0,0.0,0.0,0.0,0.0,0.0,0.0,0.0,0.0,0.0,0.0,0.0,0.0,0.0,0.0,0.0,0.0,0.0,0.0,0.0,0.0,0.0,0.0,0.0,0.0,0.0,0.0,0.0,0.0,0.0,0.0,0.0,0.0,0.0,0.0,0.0,0.0,0.0,0.0,0.0,0.0,0.0,0.0,0.0,0.0,0.0,0.0,0.0,0.0,0.0,-0.6593,-0.7565,-0.8009,-0.8304,-0.8367,-0.8426,-0.8392,-0.8291,0.0,0.0,0.0,0.0,0.0,0.0,0.0,0.0,0.0,0.0,0.0,0.0,0.0,0.0,0.0,0.0,0.0,0.0,0.0,0.0,0.0,0.0,0.0,0.0,0.0,0.0,0.0,0.0,0.0,0.0,0.0,0.0,0.0,0.0,0.0,0.0,0.0,0.0,0.0,0.0,0.0,0.0,0.0,0.0,0.0,0.0,0.0,0.0,0.0,0.0,0.0,0.0,0.0,0.0,0.0,0.0,0.0,0.0,0.0,0.0,0.0,0.0,0.0,0.0,0.0,0.0,0.0,0.0,0.0,0.0,0.0,0.0,0.0,0.0,0.0,0.0,0.0,0.0,0.0,0.0,0.0,0.0,0.0,0.0,0.0,0.0,0.0,0.0,0.0,0.0,0.0,0.0,0.0,0.0,0.0,0.0,0.0,0.0,0.0,0.0,0.0,0.0,0.0,-0.7555,-0.8342,-0.9221,-0.9369,-0.9509,-0.9727,-0.9317,-0.9042,-0.9063,-0.8207,0.0,0.0,0.0,0.0,0.0,0.0,0.0,0.0,0.0,0.0,0.0,0.0,0.0,0.0,0.0,0.0,0.0,0.0,0.0,0.0,0.0,0.0,0.0,0.0,0.0,0.0,0.0,0.0,0.0,0.0,0.0,0.0,0.0,0.0,0.0,0.0,0.0,0.0,0.0,0.0,0.0,0.0,0.0,0.0,0.0,0.0,0.0,0.0,0.0,0.0,0.0,0.0,0.0,0.0,0.0,0.0,0.0,0.0,0.0,0.0,0.0,0.0,0.0,0.0,0.0,0.0,0.0,0.0,0.0,0.0,0.0,0.0,0.0,0.0,0.0,0.0,0.0,0.0,0.0,0.0,0.0,0.0,0.0,0.0,0.0,0.0,0.0,0.0,0.0,0.0,0.0,0.0,0.0,0.0,0.0,0.0,0.0,0.0,0.0,0.0,0.0,0.0,-0.9525,-1.0152,-1.0922,-1.0899,-1.0948,-1.1167,-1.0399,-0.9935,-0.9847,-0.8807,0.0,0.0,0.0,0.0,0.0,0.0,0.0,0.0,0.0,0.0,0.0,0.0,0.0,0.0,0.0,0.0,0.0,0.0,0.0,0.0,0.0,0.0,0.0,0.0,0.0,0.0,0.0,0.0,0.0,0.0,0.0,0.0,0.0,0.0,0.0,0.0,0.0,0.0,0.0,0.0,0.0,0.0,0.0,0.0,0.0,0.0,0.0,0.0,0.0,0.0,0.0,0.0,0.0,0.0,0.0,0.0,0.0,0.0,0.0,0.0,0.0,0.0,0.0,0.0,0.0,0.0,0.0,0.0,0.0,0.0,0.0,0.0,0.0,0.0,0.0,0.0,0.0,0.0,0.0,0.0,0.0,0.0,0.0,0.0,0.0,0.0,0.0,0.0,0.0,0.0,0.0,0.0,0.0,0.0,0.0,0.0,0.0,0.0,0.0,0.0,0.0,0.0,-1.0939,-1.1554,-1.2367,-1.2469,-1.2367,-1.2234,-1.1825,-1.1237,-1.0326,-0.936,0.0,0.0,0.0,0.0,0.0,0.0,0.0,0.0,0.0,0.0,0.0,0.0,0.0,0.0,0.0,0.0,0.0,0.0,0.0,0.0,0.0,0.0,0.0,0.0,0.0,0.0,0.0,0.0,0.0,0.0,0.0,0.0,0.0,0.0,0.0,0.0,0.0,0.0,0.0,0.0,0.0,0.0,0.0,0.0,0.0,0.0,0.0,0.0,0.0,0.0,0.0,0.0,0.0,0.0,0.0,0.0,0.0,0.0,0.0,0.0,0.0,0.0,0.0,0.0,0.0,0.0,0.0,0.0,0.0,0.0,0.0,0.0,0.0,0.0,0.0,0.0,0.0,0.0,0.0,0.0,0.0,0.0,0.0,0.0,0.0,0.0,0.0,0.0,0.0,0.0,0.0,0.0,0.0,0.0,0.0,0.0,0.0,0.0,0.0,0.0,0.0,0.0,-1.2076,-1.2904,-1.3464,-1.3713,-1.3614,-1.3278,-1.2443,-1.1489,-1.0484,0.0,0.0,0.0,0.0,0.0,0.0,0.0,0.0,0.0,0.0,0.0,0.0,0.0,0.0,0.0,0.0,0.0,0.0,0.0,0.0,0.0,0.0,0.0,0.0,0.0,0.0,0.0,0.0,0.0,0.0,0.0,0.0,0.0,0.0,0.0,0.0,0.0,0.0,0.0,0.0,0.0,0.0,0.0,0.0,0.0,0.0,0.0,0.0,0.0,0.0,0.0,0.0,0.0,0.0,0.0,0.0,0.0,0.0,0.0,0.0,0.0,0.0,0.0,0.0,0.0,0.0,0.0,0.0,0.0,0.0,0.0,0.0,0.0,0.0,0.0,0.0,0.0,0.0,0.0,0.0,0.0,0.0,0.0,0.0,0.0,0.0,0.0,0.0,0.0,0.0,0.0,0.0,0.0,0.0,0.0,0.0,0.0,0.0,0.0,0.0,0.0,0.0,-1.1627,-1.2939,-1.397,-1.4476,-1.4687,-1.4604,-1.4015,-1.2802,-1.1626,-1.0506,0.0,0.0,0.0,0.0,0.0,0.0,0.0,0.0,0.0,0.0,0.0,0.0,0.0,0.0,0.0,0.0,0.0,0.0,0.0,0.0,0.0,0.0,0.0,0.0,0.0,0.0,0.0,0.0,0.0,0.0,0.0,0.0,0.0,0.0,0.0,0.0,0.0,0.0,0.0,0.0,0.0,0.0,0.0,0.0,0.0,0.0,0.0,0.0,0.0,0.0,0.0,0.0,0.0,0.0,0.0,0.0,0.0,0.0,0.0,0.0,0.0,0.0,0.0,0.0,0.0,0.0,0.0,0.0,0.0,0.0,0.0,0.0,0.0,0.0,0.0,0.0,0.0,0.0,0.0,0.0,0.0,0.0,0.0,0.0,0.0,0.0,0.0,0.0,0.0,0.0,0.0,0.0,0.0,0.0,0.0,0.0,0.0,0.0,0.0,0.0,0.0,0.0,-1.2107,-1.3471,-1.4606,-1.5403,-1.5499,-1.5173,-1.4364,-1.3085,-1.1706,0.0,0.0,0.0,0.0,0.0,0.0,0.0,0.0,0.0,0.0,0.0,0.0,0.0,0.0,0.0,0.0,0.0,0.0,0.0,0.0,0.0,0.0,0.0,0.0,0.0,0.0,0.0,0.0,0.0,0.0,0.0,0.0,0.0,0.0,0.0,0.0,0.0,0.0,0.0,0.0,0.0,0.0,0.0,0.0,0.0,0.0,0.0,0.0,0.0,0.0,0.0,0.0,0.0,0.0,0.0,0.0,0.0,0.0,0.0,0.0,0.0,0.0,0.0,0.0,0.0,0.0,0.0,0.0,0.0,0.0,0.0,0.0,0.0,0.0,0.0,0.0,0.0,0.0,0.0,0.0,0.0,0.0,0.0,0.0,0.0,0.0,0.0,0.0,0.0,0.0,0.0,0.0,0.0,0.0,0.0,0.0,0.0,0.0,0.0,0.0,0.0,0.0,0.0,-1.2131,-1.3652,-1.4751,-1.5185,-1.539,-1.5246,-1.4642,-1.3363,-1.2023,-1.0647,0.0,0.0,0.0,0.0,0.0,0.0,0.0,0.0,0.0,0.0,0.0,0.0,0.0,0.0,0.0,0.0,0.0,0.0,0.0,0.0,0.0,0.0,0.0,0.0,0.0,0.0,0.0,0.0,0.0,0.0,0.0,0.0,0.0,0.0,0.0,0.0,0.0,0.0,0.0,0.0,0.0,0.0,0.0,0.0,0.0,0.0,0.0,0.0,0.0,0.0,0.0,0.0,0.0,0.0,0.0,0.0,0.0,0.0,0.0,0.0,0.0,0.0,0.0,0.0,0.0,0.0,0.0,0.0,0.0,0.0,0.0,0.0,0.0,0.0,0.0,0.0,0.0,0.0,0.0,0.0,0.0,0.0,0.0,0.0,0.0,0.0,0.0,0.0,0.0,0.0,0.0,0.0,0.0,0.0,0.0,0.0,0.0,0.0,0.0,0.0,0.0,0.0,-1.179,-1.3399,-1.4533,-1.4908,-1.5089,-1.5016,-1.4582,-1.3411,-1.218,-1.096,0.0,0.0,0.0,0.0,0.0,0.0,0.0,0.0,0.0,0.0,0.0,0.0,0.0,0.0,0.0,0.0,0.0,0.0,0.0,0.0,0.0,0.0,0.0,0.0,0.0,0.0,0.0,0.0,0.0,0.0,0.0,0.0,0.0,0.0,0.0,0.0,0.0,0.0,0.0,0.0,0.0,0.0,0.0,0.0,0.0,0.0,0.0,0.0,0.0,0.0,0.0,0.0,0.0,0.0,0.0,0.0,0.0,0.0,0.0,0.0,0.0,0.0,0.0,0.0,0.0,0.0,0.0,0.0,0.0,0.0,0.0,0.0,0.0,0.0,0.0,0.0,0.0,0.0,0.0,0.0,0.0,0.0,0.0,0.0,0.0,0.0,0.0,0.0,0.0,0.0,0.0,0.0,0.0,0.0,0.0,0.0,0.0,0.0,0.0,0.0,0.0,0.0,-1.1321,-1.2916,-1.4099,-1.4618,-1.4702,-1.4618,-1.4352,-1.3363,-1.23,-1.125,0.0,0.0,0.0,0.0,0.0,0.0,0.0,0.0,0.0,0.0,0.0,0.0,0.0,0.0,0.0,0.0,0.0,0.0,0.0,0.0,0.0,0.0,0.0,0.0,0.0,0.0,0.0,0.0,0.0,0.0,0.0,0.0,0.0,0.0,0.0,0.0,0.0,0.0,0.0,0.0,0.0,0.0,0.0,0.0,0.0,0.0,0.0,0.0,0.0,0.0,0.0,0.0,0.0,0.0,0.0,0.0,0.0,0.0,0.0,0.0,-0.0349,-0.0667,0.0,0.0,0.0,0.0,0.0,0.0,0.0,0.0,0.0,0.0,0.0,0.0,0.0,0.0,0.0,0.0,0.0,0.0,0.0,0.0,0.0,0.0,0.0,0.0,0.0,0.0,0.0,0.0,0.0,0.0,0.0,0.0,0.0,0.0,0.0,0.0,0.0,0.0,0.0,0.0,-1.1345,-1.2916,-1.4026,-1.4352,-1.4582,-1.469,-1.463,-1.3652,-1.2662,-1.1766,-1.0214,0.0,0.0,0.0,0.0,0.0,0.0,0.0,0.0,0.0,0.0,0.0,0.0,0.0,0.0,0.0,0.0,0.0,0.0,0.0,0.0,0.0,0.0,0.0,0.0,0.0,0.0,0.0,0.0,0.0,0.0,0.0,0.0,0.0,0.0,0.0,0.0,0.0,0.0,0.0,0.0,0.0,0.0,0.0,0.0,0.0,0.0,0.0,0.0,0.0,0.0,0.0,0.0,0.0,0.0,0.0,0.0,0.0,0.0,0.0,-0.061,-0.095,0.0,0.0,0.0,0.0,0.0,0.0,0.0,0.0,0.0,0.0,0.0,0.0,0.0,0.0,0.0,0.0,0.0,0.0,0.0,0.0,0.0,0.0,0.0,0.0,0.0,0.0,0.0,0.0,0.0,0.0,0.0,0.0,0.0,0.0,0.0,0.0,0.0,0.0,0.0,0.0,-1.151,-1.2741,-1.3628,-1.3894,-1.4051,-1.4135,-1.4135,-1.3474,-1.2783,-1.1934,-1.0623,0.0,0.0,0.0,0.0,0.0,0.0,0.0,0.0,0.0,0.0,0.0,0.0,0.0,0.0,0.0,0.0,0.0,0.0,0.0,0.0,0.0,0.0,0.0,0.0,0.0,0.0,0.0,0.0,0.0,0.0,0.0,0.0,0.0,0.0,0.0,0.0,0.0,0.0,0.0,0.0,0.0,0.0,0.0,0.0,0.0,0.0,0.0,0.0,0.0,0.0,0.0,0.0,0.0,-0.0054,-0.011,-0.0112,-0.0165,-0.0495,-0.1001,-0.095,-0.1233,-0.1789,-0.2428,0.0,0.0,0.0,0.0,0.0,0.0,0.0,0.0,0.0,0.0,0.0,0.0,0.0,0.0,0.0,0.0,0.0,0.0,0.0,0.0,0.0,0.0,-0.8033,-0.8284,-0.8496,-0.8212,-0.6805,0.0,0.0,0.0,0.0,0.0,0.0,0.0,0.0,0.0,0.0,0.0,-1.1675,-1.2553,-1.3161,-1.3423,-1.3483,-1.3519,-1.3519,-1.3233,-1.2795,-1.2035,-1.0996,-1.0154,0.0,0.0,0.0,0.0,0.0,0.0,0.0,0.0,0.0,0.0,0.0,0.0,0.0,0.0,0.0,0.0,0.0,0.0,0.0,0.0,0.0,0.0,0.0,0.0,0.0,0.0,0.0,0.0,0.0,0.0,0.0,0.0,0.4795,0.4777,0.0,0.0,0.0,0.0,0.0,0.0,0.0,0.0,0.0,0.0,0.0,0.0,0.0,0.0584,0.0438,0.0113,0.0,0.0,-0.0297,-0.0419,-0.0426,-0.0778,-0.1139,-0.1396,-0.1416,0.0,-0.229,-0.2505,0.0,0.0,0.0,0.0,0.0,0.0,0.0,0.0,0.0,0.0,0.0,0.0,0.0,0.0,0.0,0.0,0.0,0.0,0.0,0.0,0.0,0.0,-0.9112,-0.9618,-0.9957,-1.0175,-1.0044,-0.8632,-0.7488,-0.787,-0.8103,-0.8283,0.0,0.0,0.0,0.0,0.0,0.0,-1.1724,-1.2553,-1.3089,-1.3125,-1.3375,-1.3519,-1.3519,-1.3233,-1.288,-1.23,-1.1453,-1.0551,-0.952,-0.9143,0.0,0.0,0.0,0.0,0.0,0.0,0.0,0.0,0.0,0.0,0.0,0.0,0.0,0.0,0.0,0.0,0.0,0.0,0.0,0.0,0.0,0.0,0.0,0.0,0.0,0.0,0.0,0.0,0.0,0.4903,0.5116,0.4913,0.459,0.3994,0.0,0.0,0.0,0.0,0.0,0.0,0.0,0.0,0.0,0.0423,0.0335,0.0232,0.0178,0.0061,-0.0125,-0.0254,-0.0444,-0.064,-0.0843,-0.1022,-0.1274,-0.1537,-0.1576,-0.2012,-0.2836,-0.3129,-0.3716,-0.4498,0.0,0.0,0.0,0.0,-0.7007,-0.7156,-0.7299,-0.7353,-0.7326,-0.7183,0.0,0.0,0.0,0.0,0.0,0.0,0.0,-0.9065,-0.9651,-1.0063,-1.041,-1.0858,-1.1265,-1.1564,-1.1487,-1.0804,-1.0038,-0.9694,-0.9384,-0.928,-0.9476,-0.9631,0.0,0.0,0.0,-1.1788,-1.235,-1.2837,-1.3108,-1.3108,-1.3218,-1.328,-1.328,-1.3268,-1.3107,-1.2709,-1.2074,-1.1452,-1.0804,-0.9822,-0.8978,0.0,0.0,0.0,0.0,0.0,0.0,0.0,0.0,0.0,0.0,0.0,0.0,0.0,0.0,0.0,0.0,0.0,0.0,0.0,0.0,0.0,0.0,0.0,0.0,0.0,0.0,0.0,0.0,0.5448,0.5562,0.5147,0.4639,0.3903,0.0,0.0,0.0,0.0,0.0,0.0,-0.0107,-0.0219,-0.0281,-0.0289,-0.0303,-0.0313,-0.0318,-0.0326,-0.0397,-0.0666,-0.0733,-0.0936,-0.1211,-0.1332,-0.159,-0.1855,-0.1966,-0.2586,-0.3553,-0.3715,-0.428,-0.5084,-0.6132,-0.6729,-0.7149,-0.7674,-0.795,-0.8065,-0.8164,-0.819,-0.8143,-0.8079,-0.8461,-0.9038,-0.9561,0.0,0.0,0.0,0.0,-1.0739,-1.1324,-1.1638,-1.1913,-1.2272,-1.2665,-1.2955,-1.2776,-1.264,-1.2246,-1.1173,-1.0593,-1.0308,-1.0367,-1.0476,0.0,-1.1153,-1.1821,-1.2439,-1.2935,-1.3057,-1.3137,-1.3179,-1.3137,-1.3137,-1.3179,-1.3307,-1.3252,-1.2896,-1.2528,-1.2069,-1.1595,-1.0296,-0.9447,-0.9141,0.0,0.0,0.0,0.0,0.0,0.0,0.0,0.0,0.0,0.0,0.0,0.0,0.0,0.0,0.0,0.0,0.0,0.0,0.0,0.0,0.0,0.0,0.0,0.0,0.0,0.0,0.0,0.0,0.0,0.5452,0.48,0.0,0.0,0.0,0.0,0.0442,-0.0167,-0.0452,-0.0468,-0.0845,-0.105,-0.1067,-0.1114,-0.1146,-0.1163,-0.111,-0.1111,-0.1098,-0.1441,-0.1636,-0.1616,-0.1951,-0.2354,-0.269,-0.2956,-0.3661,-0.4577,-0.4125,-0.4532,-0.5633,-0.6642,-0.734,-0.7824,-0.8441,-0.8662,-0.8689,-0.8784,-0.8798,-0.8676,-0.8669,-0.9478,-1.0735,-1.1869,-1.2541,0.0,0.0,-1.2822,-1.263,-1.3007,-1.322,-1.3507,-1.4051,-1.4364,-1.4567,-1.4555,-1.4157,-1.3377,-1.1946,-1.1755,-1.1706,-1.1233,0.0,-1.2018,-1.2133,-1.2544,-1.2948,-1.3248,-1.3172,-1.3179,-1.3349,-1.3222,-1.3179,-1.3349,-1.3392,-1.3163,-1.2668,-1.2605,-1.2094,-1.101,-1.0438,-0.997,-0.9586,-0.8909,0.0,0.0,0.0,0.0,0.0,0.0,0.0,0.0,0.0,0.0,0.0,0.0,0.0,0.0,0.0,0.0,0.0,0.0,0.0,0.0,0.0,0.0,0.0,0.0,0.0,0.0,0.0,0.0,0.5503,0.4665,0.0,0.2329,0.1023,0.0114,-0.0242,-0.0428,-0.0689,-0.0911,-0.1054,-0.1134,-0.115,-0.1167,-0.1178,-0.1184,-0.1189,-0.1324,-0.1512,-0.1649,-0.1775,-0.2019,-0.2154,-0.249,-0.3028,-0.3631,-0.4623,-0.5852,-0.6515,-0.6784,-0.6817,-0.7561,-0.8127,-0.8551,-0.8903,-0.9055,-0.915,-0.9205,-0.9123,-0.9127,-0.963,-1.0464,-1.1425,-1.2506,-1.3349,-1.386,-1.3883,-1.3705,-1.3523,-1.383,-1.3963,-1.4135,-1.4481,-1.4631,-1.4688,-1.4688,-1.4423,-1.3932,-1.3249,-1.2895,-1.2663,-1.2475,-1.2552,-1.2743,-1.2934,-1.3181,-1.3478,-1.377,-1.3636,-1.3519,-1.3603,-1.3519,-1.3519,-1.3603,-1.3574,-1.3461,-1.3264,-1.2713,-1.216,-1.1567,-1.0562,-0.9871,-0.9546,-0.935,-0.9239,0.0,0.0,0.0,0.0,0.0,0.0,0.0,0.0,0.0,0.0,0.0,0.0,0.0,0.0,0.0,0.0,0.0,0.0,0.0,0.0,0.0,0.0,0.0,0.0,0.0,0.6432,0.6412,0.523,0.4233,0.3064,0.1627,0.0309,-0.0498,-0.0778,-0.0919,-0.1071,-0.1382,-0.1454,-0.1533,-0.1553,-0.1554,-0.1557,-0.1563,-0.1563,-0.1691,-0.1869,-0.1869,-0.1988,-0.2223,-0.2223,-0.2625,-0.343,-0.4303,-0.5439,-0.6902,-0.8191,-0.8497,-0.8212,-0.87,-0.902,-0.9222,-0.9357,-0.9442,-0.9523,-0.9476,-0.9361,-0.9418,-1.0312,-1.1166,-1.2078,-1.3142,-1.4111,-1.4821,-1.485,-1.4695,-1.4628,-1.4803,-1.4835,-1.4873,-1.5072,-1.5045,-1.4975,-1.4975,-1.4783,-1.4543,-1.4358,-1.378,-1.3326,-1.3233,-1.3249,-1.3332,-1.3464,-1.3658,-1.3868,-1.4055,-1.387,-1.373,-1.3828,-1.3743,-1.373,-1.3828,-1.369,-1.356,-1.3467,-1.2746,-1.2091,-1.1631,-1.052,-0.9817,-0.9632,-0.9895,-1.0066,-1.012,0.0,0.0,0.0,0.0,0.0,0.0,0.0,0.0,0.0,0.0,0.0,0.0,0.0,0.0,0.0,0.0,0.0,0.0,0.0,0.0,0.0,0.0,0.0,0.6295,0.6422,0.5949,0.4552,0.3371,0.2085,0.0539,-0.0599,-0.1202,-0.1236,-0.1514,-0.173,-0.1683,-0.2036,-0.226,-0.2289,-0.229,-0.2304,-0.2331,-0.2333,-0.2232,-0.2175,-0.2175,-0.2214,-0.2223,-0.2223,-0.2759,-0.3902,-0.497,-0.6243,-0.7641,-0.8918,-0.9567,-0.9742,-0.9919,-0.9896,-0.9822,-0.9822,-0.9822,-0.9802,-0.9659,-0.951,-0.9585,-1.0568,-1.1547,-1.258,-1.3781,-1.4976,-1.5885,-1.5885,-1.5885,-1.5885,-1.5885,-1.5915,-1.591,-1.5897,-1.5722,-1.5499,-1.5499,-1.5261,-1.5083,-1.5083,-1.4477,-1.3841,-1.3572,-1.368,-1.3809,-1.374,-1.3913,0.0,-1.4082,-1.387,-1.3828,-1.4082,-1.387,-1.3828,-1.4082,-1.3801,-1.3467,-1.3227,-1.2625,-1.1891,-1.1035,-1.0309,-0.9935,-0.9949,-1.0609,-1.1201,-1.1712,0.0,0.0,0.0,0.0,0.0,0.0,0.0,0.0,0.0,0.0,0.0,0.0,0.0,0.0,0.0,0.0,0.0,0.0,0.0,0.0,0.0,0.5847,0.6052,0.6051,0.6098,0.5496,0.3836,0.2653,0.1384,0.0139,-0.0685,-0.1237,-0.1625,-0.1684,-0.1824,-0.2134,-0.2207,-0.2273,-0.2259,-0.2279,-0.2294,-0.2303,-0.2323,-0.2232,-0.2175,-0.2175,-0.2214,-0.2223,-0.2223,-0.2894,-0.4235,-0.5566,-0.6973,-0.8384,-0.9745,-1.0247,-1.0136,-1.0044,-0.9896,-0.9822,-0.9822,-0.9822,-0.9802,-0.9659,-0.951,-0.9527,-1.0349,-1.1167,-1.2037,-1.3197,-1.4331,-1.5309,-1.5523,-1.5737,-1.5902,-1.5919,-1.6019,-1.6151,-1.5968,-1.5833,-1.5748,-1.5538,-1.5261,-1.5083,-1.5083,-1.4924,-1.4653,-1.4427,-1.4212,-1.4091,-1.4069,-1.4087,-1.4082,-1.4082,-1.4039,-1.3997,-1.4082,-1.4039,-1.3997,-1.4082,-1.3627,-1.3293,-1.3213,-1.2238,-1.1463,-1.1009,-1.0403,-1.0385,-1.1053,-1.1661,-1.2139,0.0,0.0,0.0,0.0,0.0,0.0,0.0,0.0,0.0,0.0,0.0,0.0,0.0,0.0,0.0,0.0,0.0,0.0,0.0,0.0,0.0,0.0,0.5769,0.5545,0.5005,0.4883,0.4243,0.2609,0.1405,0.0285,-0.0712,-0.1274,-0.1703,-0.2017,-0.2005,-0.2074,-0.2308,-0.2285,-0.2275,-0.2211,-0.2275,-0.2283,-0.2308,-0.2313,-0.2292,-0.2175,-0.2233,-0.2202,-0.2223,-0.2223,-0.2961,-0.4367,-0.5767,-0.724,-0.8717,-1.012,-1.0582,-1.0351,0.0,0.0,0.0,0.0,-0.9822,-0.9808,-0.9727,-0.9598,-0.9566,-1.0219,-1.0827,-1.1487,-1.2574,-1.3665,-1.4604,-1.4999,-1.5446,-1.5732,-1.5727,-1.5998,-1.624,-1.595,-1.598,-1.5985,-1.5695,-1.5499,-1.5404,-1.5404,-1.5404,0.0,-1.5183,-1.4813,-1.4492,-1.4331,-1.4289,-1.4229,-1.4095,-1.4082,-1.4082,-1.4082,-1.4082,-1.4082,-1.4082,-1.3547,0.0,0.0,0.0,-1.1423,-1.1009,-1.067,0.0,0.0,0.0,0.0,0.0,0.0,0.0,0.0,-1.2489,-1.28,0.0,0.0,0.0,0.0,0.0,0.0,0.0,0.0,0.0,0.0,0.0,0.0,0.0,0.0,0.0,0.0,0.5466,0.4775,0.3333,0.3032,0.2398,0.0998,-0.0072,-0.102,-0.175,-0.2111,-0.233,-0.2333,-0.233,-0.2328,-0.2328,-0.2278,0.0,0.0,0.0,-0.2203,-0.2322,-0.2301,-0.2274,-0.217,-0.2213,-0.2184,-0.2223,-0.2223,-0.2961,-0.4367,-0.5767,-0.724,-0.8717,-1.012,-1.0629,-1.0473,-1.0317,-1.008,-0.9822,-0.9822,-0.9822,-0.9822,-0.9822,0.0,0.0,-1.015,-1.049,-1.0971,-1.2028,-1.3012,-1.3836,-1.4436,-1.5056,-1.5568,-1.5556,-1.596,-1.6325,-1.5983,-1.6139,-1.6233,-1.5899,-1.5784,-1.5784,-1.5784,-1.5784,-1.5784,-1.5784,-1.5391,-1.4917,-1.4612,-1.4536,-1.4416,-1.4122,-1.4082,-1.4082,-1.4082,-1.4082,0.0,-1.4082,-1.3547,-1.3213,-1.3213,-1.2371,-1.1658,-1.1062,-1.1125,-1.1616,-1.2537,-1.296,-1.3632,-1.4579,-1.4616,-1.4818,-1.5129,-1.4011,-1.3937,0.0,0.0,0.0,0.0,0.0,0.0,0.0,0.0,0.0,0.0,0.0,0.0,0.0,0.0,0.0,0.4503,0.4024,0.319,0.1627,0.069,0.007,-0.0289,-0.1019,-0.175,-0.2187,-0.224,-0.2308,-0.2331,-0.2312,-0.2298,-0.2298,-0.2288,-0.2275,-0.2192,-0.2275,-0.2275,-0.2192,-0.2281,-0.2263,-0.2208,-0.2203,0.0,-0.2223,-0.2223,-0.2961,-0.4367,-0.5767,-0.724,-0.8717,-1.012,-1.0629,-1.0466,-1.0195,-0.9985,-0.9822,-0.9822,-0.9822,-0.9822,-0.9822,-0.9727,-0.9664,-0.9985,-1.0127,-1.0378,-1.1531,-1.2595,0.0,-1.4373,-1.5352,-1.6116,-1.5872,-1.6394,-1.6807,-1.6007,-1.6224,-1.6473,-1.5939,-1.5784,-1.5784,-1.5784,-1.5784,-1.5784,-1.5784,-1.5545,-1.5225,-1.4923,-1.4669,-1.4416,-1.4122,-1.4082,-1.4082,-1.4082,-1.4082,-1.4082,-1.4082,-1.3547,-1.3213,-1.3213,-1.2371,-1.1752,-1.1322,-1.1907,-1.2425,-1.287,-1.3829,-1.4512,-1.4983,-1.5313,-1.5496,-1.557,-1.5001,-1.5184,0.0,0.0,0.0,0.0,0.0,0.0,0.0,0.0,0.0,0.0,0.0,0.4808,0.4751,0.0,0.4044,0.3298,0.27,0.1816,0.0341,-0.0625,-0.1132,-0.1162,-0.1677,-0.2114,-0.226,-0.232,-0.2318,-0.2331,-0.232,-0.2312,-0.2312,-0.2298,-0.229,-0.2217,-0.2275,-0.2268,-0.2268,-0.2253,-0.223,-0.22,-0.2185,-0.2169,-0.2223,-0.2223,-0.2961,-0.4367,-0.5767,-0.724,-0.8717,-1.012,-1.0588,-1.0371,-1.0222,-1.0073,-0.9862,-0.9849,-0.9822,-0.9822,-0.9822,-0.9774,-0.9707,-0.9751,-0.9797,-0.9983,-1.1021,-1.199,-1.294,-1.3912,-1.5019,-1.584,-1.572,-1.6215,-1.6575,-1.582,-1.6098,-1.6355,-1.5761,-1.5737,-1.5784,-1.5784,-1.5784,-1.5784,-1.5784,-1.5712,-1.5471,-1.5075,-1.4843,-1.4576,-1.4148,-1.4082,-1.4082,-1.4082,-1.4082,-1.4082,-1.4082,-1.3547,-1.3146,-1.3025,-1.2412,-1.2024,-1.1877,-1.243,-1.298,-1.3502,-1.4463,-1.5211,-1.5716,-1.6101,-1.6303,-1.6285,-1.6101,-1.612,0.0,0.0,0.0,0.0,0.0,0.0,0.0,0.5603,0.5508,0.5264,0.4801,0.4384,0.4062,0.3556,0.2913,0.2083,0.1415,0.0593,-0.0617,-0.1393,-0.184,-0.1883,-0.2107,-0.2327,-0.2333,-0.2333,-0.2333,-0.2333,-0.2333,-0.2333,-0.2333,-0.2311,-0.2307,-0.2324,-0.2279,-0.226,-0.2273,-0.2225,-0.2198,-0.2191,-0.2166,-0.2223,-0.2223,-0.2223,-0.2961,-0.4367,-0.6101,-0.7641,-0.9117,-1.022,-1.0534,-1.0317,-1.0256,-1.0161,-0.997,-0.9876,-0.9822,-0.9822,-0.9822,-0.9822,-0.9802,-0.9686,-0.9632,-0.9735,-1.0597,-1.1432,-1.2318,-1.3412,-1.4584,-1.5489,-1.5491,-1.5933,-1.6253,-1.5642,-1.5905,-1.6156,-1.5617,-1.5642,-1.5784,-1.5784,-1.5784,-1.5784,-1.5784,-1.5784,-1.5631,-1.5102,-1.5008,-1.4794,-1.4162,-1.4082,-1.4082,-1.4082,-1.4082,-1.4068,-1.4001,-1.352,-1.308,-1.2811,-1.2502,-1.2305,-1.2305,-1.2799,-1.3414,-1.4084,-1.4982,-1.5753,-1.6431,-1.6743,-1.6908,-1.6908,-1.6982,-1.6853,0.5402,0.5681,0.6155,0.6042,0.6002,0.5859,0.0,0.5252,0.5017,0.4508,0.4115,0.3661,0.3173,0.2276,0.1413,0.0719,0.0,-0.0744,-0.1464,-0.1892,-0.2187,-0.222,-0.2296,-0.2305,-0.233,-0.2333,-0.2333,-0.2333,-0.2333,-0.2333,-0.2333,-0.233,-0.2318,-0.2296,-0.2289,-0.2262,-0.2211,-0.2203,-0.2187,-0.2227,-0.2224,-0.2223,-0.2223,-0.2223,-0.2961,-0.4434,-0.7178,-0.9183,-1.0445,-1.0509,-1.0493,-1.0439,-1.0181,-1.0004,-0.997,-0.9876,-0.9822,-0.9822,-0.9822,-0.9822,-0.9822,-0.9802,-0.9713,-0.9755,-1.0504,-1.1232,-1.2044,-1.3064,-1.4384,-1.5476,-1.5511,-1.6064,-1.6482,-1.5681,-1.5905,-1.6156,-1.5617,-1.5642,-1.5784,-1.5784,-1.5784,-1.5784,-1.5784,-1.5784,-1.5631,-1.5102,-1.5008,-1.4794,-1.4162,-1.4082,-1.4082,-1.4082,-1.4082,-1.3975,-1.368,-1.34,-1.308,-1.2811,-1.2502,-1.2305,-1.2305,-1.3047,-1.378,-1.4502,-1.5334,-1.6088,-1.6835,-1.689,-1.6908,-1.6908,-1.7257,-1.7403,0.5895,0.6192,0.6551,0.6256,0.598,0.5553,0.5049,0.4574,0.4115,0.3608,0.308,0.2446,0.1634,0.0785,0.0,-0.074,-0.1086,-0.1509,-0.1959,-0.2119,-0.2263,-0.224,-0.2222,-0.223,-0.2277,-0.2297,-0.2308,-0.2308,-0.2323,-0.2333,-0.2333,-0.2333,-0.232,-0.2292,-0.2274,-0.2244,-0.22,-0.2183,-0.2168,-0.2223,-0.2223,-0.2223,-0.2223,-0.2223,-0.3427,-0.5633,-0.7712,-0.9389,-1.0711,-1.0555,-1.0439,-1.0344,-1.0071,-0.993,-0.9849,-0.9842,-0.9822,-0.9822,-0.9822,-0.9822,-0.9822,-0.9822,-0.9781,-0.9806,-1.0324,-1.088,-1.1611,-1.2531,-1.3738,-1.4846,-1.5117,-1.5695,-1.6135,-1.5641,-1.5796,-1.5958,-1.5596,-1.5665,-1.5784,-1.5784,-1.5784,-1.5784,-1.5784,-1.5784,-1.5631,-1.5102,-1.5008,-1.4794,-1.4162,-1.4082,-1.4082,-1.4082,-1.4082,-1.4041,-1.3908,-1.348,-1.316,-1.3026,-1.2572,-1.2305,-1.2305,-1.309,-1.384,-1.4601,-1.5401,-1.6263,-1.7257,-1.7257,-1.7367,-1.7587,-1.7789,-1.799,0.601,0.6209,0.6324,0.5952,0.551,0.492,0.4354,0.3688,0.3089,0.2632,0.2086,0.1451,0.0531,-0.0265,-0.093,-0.1566,-0.1788,-0.2014,-0.2183,-0.2277,-0.2271,-0.2219,-0.2178,-0.2169,-0.2204,-0.2236,-0.226,-0.2277,-0.2305,-0.2324,-0.2333,-0.2326,-0.2308,-0.2279,-0.2249,-0.2218,-0.2188,-0.2234,-0.2223,-0.2223,-0.2223,-0.2223,-0.2223,-0.2625,-0.4096,-0.6498,-0.7979,-0.9389,-1.0704,-1.0514,-1.0371,-1.0263,-1.0066,-0.9856,-0.9822,-0.9822,-0.9822,-0.9822,-0.9822,-0.9822,-0.9822,-0.9822,-0.9822,-0.9828,-1.0113,-1.0474,-1.1086,-1.1945,-1.3034,-1.4116,-1.4708,-1.5405,-1.5825,-1.5559,-1.5704,-1.5833,-1.5553,-1.566,-1.5784,-1.5784,-1.5784,-1.5784,-1.5784,-1.5784,-1.5631,-1.5102,-1.5008,-1.4794,-1.4162,-1.4082,-1.4055,-1.3975,-1.3961,-1.3961,-1.3961,-1.3427,-1.312,-1.32,-1.2639,-1.2305,-1.2305,-1.3161,-1.3975,-1.476,-1.5652,-1.6614,-1.766,-1.766,-1.7825,-1.8081,-1.8191,-1.8393,0.5408,0.5452,0.5326,0.4919,0.4464,0.386,0.3215,0.2604,0.2031,0.1617,0.1305,0.0919,0.0129,-0.0588,-0.1192,-0.1545,-0.193,-0.2184,-0.2285,-0.229,-0.2279,-0.2178,-0.2191,-0.2144,-0.2116,-0.2142,-0.2184,-0.2173,-0.2275,-0.2304,-0.2331,-0.2307,-0.2278,-0.2178,-0.2217,-0.2187,-0.2224,-0.2223,-0.2223,-0.2223,-0.2223,-0.2223,-0.2223,-0.3631,-0.5034,-0.6498,-0.7979,-0.9389,-1.0697,-1.0405,-1.0283,-1.0249,-0.9944,-0.9822,-0.9822,-0.9822,-0.9822,-0.9822,-0.9822,-0.9822,-0.9822,-0.9822,-0.9822,-0.9828,-0.9821,-1.0069,-1.0521,-1.1402,-1.2427,-1.3511,-1.4385,-1.5244,-1.5825,-1.5559,-1.5704,-1.5833,-1.5553,-1.566,-1.5784,-1.5784,-1.5784,-1.5784,-1.5784,-1.5784,-1.5631,-1.5102,-1.5008,-1.4794,-1.4162,-1.4082,-1.3975,-1.3653,-1.3613,-1.3613,-1.3613,-1.3106,-1.2931,-1.3186,-1.2639,-1.2305,-1.2305,-1.3397,-1.4343,-1.5163,-1.6267,-1.7261,-1.8063,-1.8063,-1.8081,-1.81,-1.8522,-1.8705,0.4536,0.4313,0.4012,0.3629,0.3071,0.2525,0.1879,0.1198,0.0656,0.0518,0.0447,0.019,-0.0508,-0.0901,-0.1313,-0.1901,-0.2166,-0.2286,-0.2315,-0.2319,-0.2293,-0.2223,-0.218,-0.2127,-0.2056,-0.2095,-0.2142,-0.2183,-0.2232,-0.2264,-0.2203,-0.2285,-0.2267,-0.2217,-0.2206,-0.2185,-0.2223,-0.2223,-0.2223,-0.2223,-0.2223,-0.2223,-0.2223,-0.3631,-0.5101,-0.6498,-0.7979,-0.9389,-1.0697,-1.0399,-1.0283,-1.0249,-0.9944,-0.9822,-0.9822,-0.9822,-0.9822,-0.9822,-0.9822,-0.9822,-0.9822,-0.9822,-0.9822,-0.9768,-0.9586,-0.9613,-0.9889,-1.0738,-1.1828,-1.296,-1.4062,-1.5137,-1.5861,-1.5777,-1.5964,-1.61,-1.5833,-1.5947,-1.6072,-1.5824,-1.5784,-1.5784,-1.5784,-1.5784,-1.5631,-1.5102,-1.4673,-1.4309,-1.4108,-1.4082,-1.3975,-1.364,-1.36,-1.352,-1.3333,-1.3025,-1.2837,-1.2931,-1.2532,-1.2305,-1.2305,-1.3262,-1.4111,-1.4785,-1.5924,-1.7038,-1.8085,-1.8217,-1.8497,-1.8907,-1.9036,-1.9109,0.3646,0.3265,0.2798,0.2501,0.2012,0.1558,0.1016,0.0401,0.0,0.0,0.0,-0.0183,-0.0861,-0.0994,-0.1334,-0.2068,-0.2211,-0.2273,-0.2312,-0.2326,-0.2304,-0.2225,-0.2189,-0.2139,-0.2059,-0.2076,-0.2106,-0.2136,-0.2185,-0.2222,-0.2174,-0.2253,-0.2241,-0.2202,-0.2189,-0.2174,-0.2223,-0.2223,-0.2223,-0.2223,-0.2223,-0.2223,-0.2223,-0.3631,-0.5101,-0.6498,-0.7979,-0.9389,-1.0697,-1.0399,-1.0283,-1.0249,-0.9944,-0.9822,-0.9822,-0.9822,-0.9822,-0.9822,-0.9822,-0.9822,-0.9822,-0.9822,-0.9822,-0.9768,-0.9469,-0.9381,-0.9551,-1.035,-1.1337,-1.2363,-1.3576,-1.4708,-1.563,-1.5737,-1.6061,-1.624,-1.596,-1.6127,-1.6179,-1.5885,-1.5784,-1.5784,-1.5784,-1.5738,-1.5511,-1.5075,-1.4549,-1.4202,-1.4095,-1.4082,-1.3935,-1.3493,-1.3453,-1.3373,-1.3066,-1.2797,-1.2663,-1.277,-1.2502,-1.2305,-1.2305,-1.3261,-1.4021,-1.4554,-1.5786,-1.7002,-1.8048,-1.8341,-1.8798,-1.9292,-1.9292,-1.9292,0.268,0.2239,0.1792,0.1479,0.1226,0.0956,0.0531,0.0197,0.0,0.0,0.0,-0.0176,-0.0762,-0.0938,-0.1258,-0.1976,-0.2138,-0.2219,-0.2282,-0.2315,-0.2239,-0.2182,-0.2219,-0.2177,-0.2116,-0.2083,-0.2078,-0.2108,-0.2138,-0.218,-0.2167,-0.2215,-0.2199,-0.2198,-0.217,-0.2223,-0.2223,-0.2223,-0.2223,-0.2223,-0.2223,-0.2223,-0.2223,-0.3631,-0.5101,-0.6498,-0.7979,-0.9389,-1.0697,-1.0399,-1.0283,-1.0249,-0.9944,-0.9822,-0.9822,-0.9822,-0.9822,-0.9822,-0.9822,-0.9822,-0.9822,-0.9822,-0.9822,-0.9768,-0.9469,-0.9381,-0.9551,-1.0128,-1.0899,-1.1819,-1.298,-1.4126,-1.5041,-1.5374,-1.5915,-1.6266,-1.5973,-1.614,-1.6206,-1.5885,-1.5784,-1.5784,-1.5784,-1.5605,-1.5311,-1.5062,-1.4723,-1.4429,-1.4122,-1.4082,-1.3868,-1.3293,-1.3213,-1.308,-1.2811,-1.2478,-1.2425,-1.2744,-1.2489,-1.2305,-1.2318,-1.3355,-1.4066,-1.4496,-1.5938,-1.7082,-1.7957,-1.8434,-1.8891,-1.9292,-1.9292,-1.9292,0.1476,0.0944,0.049,0.0417,0.0345,0.0274,0.0134,0.0065,0.0,0.0,0.0,-0.0162,-0.0765,-0.0931,-0.1242,-0.191,-0.1896,-0.1852,-0.2279,-0.2098,-0.2022,-0.2182,-0.2169,-0.2202,-0.2117,-0.2102,-0.2101,-0.2109,-0.2138,-0.2228,-0.2177,-0.2192,-0.2189,-0.2166,-0.2227,-0.2223,-0.2223,-0.2223,-0.2223,-0.2223,-0.2223,-0.2223,-0.2223,-0.3631,-0.5101,-0.6498,-0.7979,-0.9389,-1.0697,-1.0399,-1.0283,-1.0249,-0.9944,-0.9822,-0.9822,-0.9822,-0.9822,-0.9822,-0.9822,-0.9822,-0.9822,-0.9822,-0.9822,-0.9768,-0.9469,-0.9381,-0.9493,-0.985,-1.0406,-1.1164,-1.2327,-1.3521,-1.4546,-1.4987,-1.589,-1.6495,-1.6011,-1.6247,-1.6446,-1.5878,-1.5784,-1.5784,-1.5784,-1.5718,-1.5551,-1.5089,-1.4941,-1.4713,-1.4148,-1.4082,-1.3948,-1.3533,-1.3307,-1.308,-1.2811,-1.2478,-1.2331,-1.2412,-1.2345,-1.2398,-1.2663,-1.3258,-1.385,-1.4354,-1.5613,-1.6689,-1.7553,-1.8193,-1.8754,-1.9292,-1.9292,-1.9292,0.0807,0.035,0.0,0.0,0.0,0.0,0.0,0.0,0.0,0.0,0.0,-0.0153,-0.0727,-0.0932,-0.1174,-0.1828,-0.1701,-0.1728,-0.2218,-0.1984,-0.185,-0.2162,-0.2225,-0.22,-0.2135,-0.2129,-0.2129,-0.2129,-0.2132,-0.214,-0.2221,-0.217,-0.2173,-0.2223,-0.2223,-0.2223,-0.2223,-0.2142,-0.2135,-0.2135,-0.2135,-0.2135,-0.2202,-0.362,-0.5101,-0.6498,-0.7979,-0.9389,-1.0697,-1.0399,-1.0283,-1.0249,-0.9944,-0.9822,-0.9822,-0.9822,-0.9822,-0.9822,-0.9822,-0.9822,-0.9822,-0.9822,-0.9822,-0.9768,-0.9469,-0.9381,-0.9435,-0.9579,-0.9974,-1.057,-1.1728,-1.2925,-1.4008,-1.4654,-1.5779,-1.6609,-1.6177,-1.639,-1.6526,-1.5939,-1.5784,-1.5784,-1.5784,-1.5784,-1.5671,-1.5217,-1.5089,-1.4803,-1.4335,-1.4162,-1.3975,-1.364,-1.3453,-1.3227,-1.2824,-1.2757,-1.2639,-1.2543,-1.2625,-1.2772,-1.2985,-1.3345,-1.3709,-1.3994,-1.5034,-1.598,-1.6838,-1.7615,-1.8368,-1.9054,-1.9219,-1.9292,0.049,0.0215,0.0,0.0,0.0,0.0,0.0,0.0,0.0,0.0,0.0,-0.0145,-0.0694,-0.0833,-0.1106,-0.1686,-0.1566,-0.1592,-0.2129,-0.1854,-0.174,-0.2129,-0.2198,-0.2189,-0.2231,-0.2232,-0.2166,-0.2166,-0.2142,-0.2135,-0.2221,-0.2223,-0.2223,-0.2223,-0.2223,-0.2223,-0.2223,-0.2124,-0.2109,-0.2109,-0.2105,-0.2105,-0.2176,-0.3601,-0.5025,-0.6431,-0.7831,-0.9226,-1.0604,-1.0307,-1.0249,-1.0222,-0.993,-0.9822,-0.9822,-0.9822,-0.9822,-0.9822,-0.9822,-0.9822,-0.9822,-0.9822,-0.9822,-0.9768,-0.9469,-0.9381,-0.9378,-0.9356,-0.9485,-0.9981,-1.119,-1.2318,-1.3403,-1.4331,-1.5618,-1.6554,-1.6276,-1.6431,-1.645,-1.5944,-1.5811,-1.5784,-1.5784,-1.5784,-1.5725,-1.5444,-1.515,-1.4901,-1.4563,-1.4269,-1.3988,-1.3693,-1.3626,-1.3387,-1.2945,-1.3039,-1.3026,-1.2797,-1.2959,-1.3106,-1.3146,-1.3387,-1.356,-1.36,-1.4457,-1.5322,-1.6094,-1.7023,-1.7887,-1.872,-1.9106,-1.9271,0.0072,0.0073,0.0,0.0,0.0,0.0,0.0,0.0,0.0,0.0,0.0,-0.0172,-0.0681,-0.0811,-0.103,-0.1675,-0.1283,-0.1174,-0.2002,-0.1615,-0.1441,-0.2099,-0.2185,-0.2198,-0.2192,-0.2215,-0.223,-0.223,-0.2155,-0.2202,-0.2224,-0.2223,-0.2223,-0.2223,-0.2223,-0.2223,-0.2223,-0.2124,-0.2109,-0.2109,-0.2083,-0.2084,-0.2109,-0.3303,-0.4585,-0.603,-0.7096,-0.8508,-1.0123,-0.9836,-0.9843,-1.0073,-0.989,-0.9822,-0.9822,-0.9822,-0.9822,-0.9822,-0.9822,-0.9822,-0.9822,-0.9822,-0.9822,-0.9768,-0.9469,-0.9381,-0.932,-0.9077,-0.9051,-0.932,-1.0523,-1.1719,-1.2852,-1.3997,-1.5351,-1.6302,-1.6029,-1.6036,-1.6081,-1.6171,-1.5992,-1.5784,-1.5784,-1.5784,-1.5725,-1.5444,-1.515,-1.4901,-1.4563,-1.4269,-1.4068,-1.4015,-1.3746,-1.356,-1.3453,-1.308,-1.2837,-1.2784,-1.2572,-1.2572,-1.2851,-1.312,-1.336,-1.36,-1.4545,-1.5403,-1.6088,-1.7001,-1.7865,-1.8722,-1.8935,-1.9152,0.0,0.0,0.0,0.0,0.0,0.0,0.0,0.0,0.0,0.0,0.0,-0.0121,-0.0501,-0.0721,-0.0937,-0.1254,-0.1038,-0.1054,-0.167,-0.1351,-0.132,-0.2063,-0.2158,-0.2183,-0.2199,-0.2228,-0.2175,-0.2175,-0.2175,-0.2226,-0.2181,-0.2231,-0.2223,-0.2223,-0.2223,-0.2214,-0.2131,-0.2101,-0.2078,-0.2061,-0.2048,-0.2048,-0.2063,-0.2986,-0.3984,-0.5053,-0.6259,-0.7667,-0.9138,-0.9255,-0.961,-0.997,-0.9883,-0.9822,-0.9822,-0.9822,-0.9822,-0.9822,-0.9822,-0.9822,-0.9822,-0.9822,-0.9822,-0.9781,-0.9564,-0.9442,-0.9334,-0.911,-0.8994,-0.9161,-1.0202,-1.1227,-1.2254,-1.3467,-1.4922,-1.6143,-1.6289,-1.6214,-1.6176,-1.6251,-1.6032,-1.5784,-1.5784,-1.5784,-1.5778,-1.5645,-1.5378,-1.5084,-1.479,-1.4496,-1.4255,-1.4095,-1.3961,-1.3814,-1.3613,-1.352,-1.336,-1.3052,-1.2999,-1.2999,-1.3025,-1.328,-1.3467,-1.36,-1.4268,-1.4914,-1.5431,-1.6339,-1.7223,-1.8018,-1.8585,-1.8993,0.0,0.0,0.0,0.0,0.0,0.0,0.0,0.0,0.0,0.0,0.0,-0.0076,-0.0347,-0.0558,-0.0761,-0.0882,-0.0811,-0.0877,-0.1406,-0.1222,-0.1265,-0.2018,-0.2128,-0.2169,-0.2206,-0.2243,-0.2194,-0.2194,-0.2188,-0.2241,-0.2211,-0.2181,-0.2232,-0.2232,-0.2225,-0.214,-0.2109,-0.2079,-0.2049,-0.2019,-0.2012,-0.2012,-0.2019,-0.268,-0.3404,-0.4184,-0.5454,-0.6851,-0.8176,-0.8744,-0.9373,-0.9923,-0.9869,-0.9822,-0.9822,-0.9822,-0.9822,-0.9822,-0.9822,-0.9822,-0.9822,-0.9822,-0.9822,-0.9795,-0.9652,-0.9523,-0.9395,-0.9262,-0.9069,-0.9141,-0.9989,-1.0789,-1.1764,-1.3142,-1.4654,-1.589,-1.6573,-1.6458,-1.6247,-1.6357,-1.6072,-1.5784,-1.5784,-1.5784,-1.5784,-1.5784,-1.5578,-1.5311,-1.5129,-1.4736,-1.4429,-1.4202,-1.4122,-1.3988,-1.372,-1.3841,-1.3707,-1.324,-1.3267,-1.3214,-1.3026,-1.332,-1.3507,-1.3507,-1.3981,-1.4418,-1.4784,-1.5715,-1.6629,-1.7547,-1.8393,-1.9053,0.0,0.0,0.0,0.0,0.0,0.0,0.0,0.0,0.0,0.0,0.0,-0.0069,-0.0364,-0.0405,-0.0504,-0.0752,-0.0619,-0.0662,-0.1312,-0.1166,-0.1225,-0.1957,-0.2102,-0.2177,-0.2166,-0.222,-0.2324,-0.2324,-0.2301,-0.2274,-0.2173,-0.2213,-0.2196,-0.2196,-0.2169,-0.214,-0.2109,-0.2079,-0.2049,-0.2018,-0.1993,-0.1993,-0.2019,-0.2464,-0.3056,-0.3799,-0.4699,-0.6118,-0.7676,-0.8239,-0.8983,-0.9842,-0.9829,-0.9822,-0.9822,-0.9822,-0.9822,-0.9822,-0.9822,-0.9822,-0.9822,-0.9822,-0.9822,-0.9795,-0.9652,-0.9598,-0.953,-0.9296,-0.92,-0.9272,-0.9743,-1.0296,-1.1328,-1.3565,-1.46,-1.5405,-1.6486,-1.6278,-1.6098,-1.6573,-1.6219,-1.5784,-1.5784,-1.5784,-1.5784,-1.5784,-1.5578,-1.5391,-1.5364,-1.487,-1.4509,-1.4482,-1.4242,-1.4082,-1.4055,-1.3587,-1.3267,-1.3213,-1.2719,-1.2412,-1.2385,-1.2946,-1.3253,-1.3253,-1.4008,-1.4476,-1.4699,-1.5655,-1.6733,-1.7954,-1.8669,-1.9502,0.0,0.0,0.0,0.0,0.0,0.0,0.0,0.0,0.0,0.0,0.0,-0.0034,-0.0139,-0.0286,-0.0378,-0.0333,-0.0361,-0.0487,-0.084,-0.0892,-0.1111,-0.163,-0.1955,-0.209,-0.2132,-0.2207,-0.226,-0.2208,-0.227,-0.2259,-0.2176,-0.2217,-0.22,-0.22,-0.2153,-0.2113,-0.2082,-0.2052,-0.2022,-0.1993,-0.1982,-0.1982,-0.1993,-0.218,-0.2375,-0.2762,-0.3865,-0.5215,-0.6632,-0.7699,-0.8787,-0.9822,-0.9822,-0.9822,-0.9822,-0.9822,-0.9822,-0.9822,-0.9822,-0.9822,-0.9822,-0.9822,-0.9822,-0.9808,-0.9754,-0.9612,-0.9449,-0.9327,-0.9164,-0.9119,-0.9452,-1.0249,-1.1282,-1.2762,-1.3684,-1.4589,-1.5939,-1.6079,-1.6062,-1.659,-1.638,-1.6046,-1.5811,-1.5784,-1.5784,-1.5784,-1.5725,-1.5591,-1.5418,-1.5044,-1.4723,-1.4536,-1.4255,-1.4015,-1.3841,-1.356,-1.332,-1.2998,-1.2744,-1.2529,-1.2305,-1.2893,-1.3213,-1.3213,-1.3857,-1.425,-1.4334,-1.543,-1.6523,-1.7602,-1.8625,-1.9618,0.0,0.0,0.0,0.0,0.0,0.0,0.0,0.0,0.0,0.0,0.0,0.0,0.0,-0.0139,-0.0219,-0.0039,-0.0169,-0.0319,-0.0447,-0.0632,-0.0939,-0.1435,-0.1683,-0.1932,-0.2034,-0.2128,-0.2203,-0.2173,-0.2175,-0.2175,-0.2175,-0.2217,-0.2196,-0.2187,-0.2136,-0.209,-0.205,-0.203,-0.2004,-0.1977,-0.1977,-0.1977,-0.1977,-0.1977,-0.1977,-0.2038,-0.3268,-0.4555,-0.5835,-0.7072,-0.8416,-0.964,-0.964,-0.97,-0.9822,-0.9822,-0.9822,-0.9822,-0.9822,-0.9795,-0.9761,-0.9761,-0.9727,-0.9693,-0.9693,-0.9578,-0.9429,-0.934,-0.913,-0.894,-0.9217,-0.9981,-1.0907,-1.1728,-1.2644,-1.3727,-1.5179,-1.5575,-1.5776,-1.6364,-1.6226,-1.5985,-1.5742,-1.5737,-1.5737,-1.5784,-1.5784,-1.5704,-1.5551,-1.519,-1.4928,-1.4669,-1.4309,-1.4001,-1.3746,-1.3653,-1.3467,-1.3199,-1.3105,-1.2998,-1.2839,-1.324,-1.3467,-1.3467,-1.3881,-1.4135,-1.4215,-1.5276,-1.6352,-1.7439,-1.8593,-1.9748,0.0,0.0,0.0,0.0,0.0,0.0,0.0,0.0,0.0,0.0,0.0,0.0,0.0,0.0,0.0,0.0,0.0,-0.0082,-0.0365,-0.0439,-0.0722,-0.1305,-0.1488,-0.1612,-0.1971,-0.2151,-0.218,-0.2171,-0.2175,-0.2175,-0.2175,-0.2217,-0.2187,-0.2224,-0.2125,-0.208,-0.2019,-0.2019,-0.2004,-0.1977,-0.1977,-0.1977,-0.1977,-0.1977,-0.1977,-0.2038,-0.3086,-0.425,-0.5471,-0.6521,-0.7867,-0.9275,-0.9275,-0.9518,-0.9822,-0.9822,-0.9822,-0.9822,-0.9822,-0.9727,-0.9612,-0.9612,-0.951,-0.9388,-0.9388,-0.949,-0.9544,-0.9296,-0.9049,-0.8885,-0.8885,-0.9375,-0.9974,-1.0562,-1.161,-1.2817,-1.4309,-1.4813,-1.5196,-1.5809,-1.5681,-1.5498,-1.5491,-1.5499,-1.5594,-1.5784,-1.5784,-1.5784,-1.5784,-1.5324,-1.5008,-1.5008,-1.4486,-1.4082,-1.4082,-1.3773,-1.372,-1.4055,-1.3801,-1.372,-1.4055,-1.4082,-1.4082,-1.4082,-1.4082,-1.4229,-1.4522,-1.526,-1.6301,-1.7627,-1.8556,-1.9843,0.0,0.0,0.0,0.0,0.0,0.0,0.0,0.0,0.0,0.0,0.0,0.0,0.0,0.0,0.0,0.0,0.0,-0.0042,-0.0137,-0.0296,-0.052,-0.0696,-0.1136,-0.1557,-0.1935,-0.2059,-0.2119,-0.2178,-0.2163,-0.2153,-0.2153,-0.2124,-0.2121,-0.2221,-0.2105,-0.2059,-0.2019,-0.1999,-0.1985,-0.1977,-0.1977,-0.1977,-0.1977,-0.1977,-0.1977,-0.2038,-0.2839,-0.3635,-0.449,-0.572,-0.7067,-0.841,-0.8787,-0.9275,-0.9822,-0.9822,-0.9822,-0.9808,-0.9707,-0.9646,-0.9591,-0.949,-0.9422,-0.9361,-0.9316,-0.9316,-0.9259,-0.9062,-0.8974,-0.8885,-0.8885,-0.921,-0.9596,-0.9974,-1.1017,-1.2219,-1.3673,-1.4373,-1.4831,-1.5275,-1.528,-1.5183,-1.4954,-1.5118,-1.5356,-1.5737,-1.5784,-1.5784,-1.5784,-1.5324,-1.5008,-1.5008,-1.4486,-1.4001,-1.376,-1.3653,-1.364,-1.3733,-1.3653,-1.3733,-1.4082,-1.4282,-1.4389,-1.4389,-1.4589,-1.478,-1.483,-1.56,-1.68,-1.8438,-1.9455,-2.0335,0.0,0.0,0.0,0.0,0.0,0.0,0.0,0.0,0.0,0.0,0.0,0.0,0.0,0.0,0.0,0.0,0.0,0.0,0.0,-0.0145,-0.031,-0.0379,-0.0908,-0.1309,-0.1557,-0.1767,-0.1931,-0.1999,-0.2043,-0.2093,-0.2093,-0.2074,-0.2076,-0.2102,-0.2067,-0.2033,-0.2003,-0.1985,-0.1977,-0.1977,-0.1977,-0.1977,-0.1977,-0.1977,-0.1977,-0.2038,-0.2592,-0.3143,0.0,-0.5046,-0.6394,-0.78,-0.8416,-0.9092,-0.9822,-0.9822,-0.9788,-0.9727,-0.9639,-0.9537,-0.9422,-0.9327,-0.9259,-0.9198,-0.9103,-0.9076,-0.9055,-0.8905,-0.8885,-0.8885,-0.8885,-0.9051,-0.9272,-0.943,-1.0366,-1.1618,-1.2906,-1.3673,-1.419,-1.447,-1.448,-1.443,-1.4147,-1.4388,-1.4831,-1.5452,-1.5547,-1.5547,-1.5547,-1.5048,-1.4726,-1.4829,-1.4299,-1.3917,-1.3786,-1.3814,-1.3908,-1.4122,-1.4148,-1.4322,-1.4723,-1.4816,-1.4856,-1.4856,-1.4968,-1.5062,-1.5169,-1.5925,-1.7028,-1.8427,-1.9285,-2.0031,0.0,0.0,0.0,0.0,0.0,0.0,0.0,0.0,0.0,0.0,0.0,0.0,0.0,0.0,0.0,0.0,0.0,0.0,0.0,0.0,-0.0103,-0.039,-0.0685,-0.0881,-0.0922,-0.1236,-0.1511,-0.1575,-0.1883,-0.2061,-0.2061,-0.2123,-0.2045,-0.2016,-0.2015,-0.2003,-0.1977,-0.1977,-0.1977,-0.1977,-0.1977,-0.1977,-0.1977,-0.1977,-0.1977,-0.2038,-0.2344,-0.2835,-0.3451,-0.4435,-0.5782,-0.7373,-0.8111,-0.8964,-0.9822,-0.9822,-0.9734,-0.9605,-0.9598,-0.9401,-0.9207,-0.92,-0.9049,-0.8885,-0.8885,-0.8885,-0.8885,-0.8885,-0.8885,-0.8885,-0.8885,-0.8885,-0.8885,-0.8885,-0.9816,-1.0962,-1.2091,-1.2817,-1.3237,-1.3339,-1.3418,-1.3319,-1.3116,-1.3511,-1.4148,-1.4987,-1.5083,-1.5083,-1.5083,-1.4574,-1.4308,-1.4591,-1.4082,-1.3828,-1.4082,-1.4082,-1.4335,-1.4968,-1.5008,-1.5217,-1.5758,-1.5565,-1.5431,-1.5431,-1.5164,-1.5164,-1.5431,-1.6168,-1.6904,-1.7638,-1.838,-1.9072,0.0,0.0,0.0,0.0,0.0,0.0,0.0,0.0,0.0,0.0,0.0,0.0,0.0,0.0,0.0,0.0,0.0,0.0,0.0,0.0,-0.0111,-0.0348,-0.0532,-0.0722,-0.0924,-0.1061,-0.1268,-0.1553,-0.1599,-0.1775,-0.203,-0.2008,-0.1993,-0.1986,-0.1986,-0.1984,-0.1977,-0.1977,-0.1977,-0.1977,-0.1977,-0.1977,-0.1977,-0.1977,-0.1977,-0.1977,-0.2099,-0.2222,-0.2469,-0.3638,-0.4984,-0.639,-0.7561,-0.872,-0.9822,-0.9822,-0.9734,-0.9591,-0.9476,-0.9313,-0.9193,-0.9022,-0.8967,-0.8885,-0.8885,-0.8885,-0.8885,-0.8885,-0.8885,-0.8885,-0.8885,-0.8885,-0.8885,-0.8885,-0.9651,-1.0633,-1.1601,-1.2046,-1.2313,-1.2294,-1.238,-1.2496,-1.2471,-1.3125,-1.3956,-1.4939,-1.5083,-1.5083,-1.5083,-1.4574,-1.4308,-1.4591,-1.4082,-1.3828,-1.4082,-1.4082,-1.4335,-1.4968,-1.5008,-1.5217,-1.5758,-1.5718,-1.5725,-1.5725,-1.5658,-1.5658,-1.5725,-1.5886,-1.6305,-1.6857,-1.7419,-1.8149,0.0,0.0,0.0,0.0,0.0,0.0,0.0,0.0,0.0,0.0,0.0,0.0,0.0,0.0,0.0,0.0,0.0,0.0,0.0,0.0,-0.0058,-0.018,-0.0243,-0.0368,-0.0498,-0.0687,-0.088,-0.1085,-0.1323,-0.1561,-0.1749,-0.1923,-0.1977,-0.1977,-0.1977,-0.1977,-0.1977,-0.1977,-0.1977,-0.1977,-0.1977,-0.1977,-0.1977,-0.1977,-0.1977,-0.1977,-0.1977,-0.1977,-0.21,-0.3271,-0.4496,-0.5778,-0.7006,-0.8294,-0.9572,-0.9499,-0.9506,-0.9483,-0.9334,-0.9178,-0.9042,-0.8905,-0.8885,-0.8885,-0.8885,-0.8885,-0.8885,-0.8885,-0.8885,-0.8885,-0.8885,-0.8885,-0.8885,-0.8885,-0.9485,-1.0304,-1.1055,-1.1282,-1.1341,-1.115,-1.139,-1.1629,-1.1786,-1.2543,-1.3522,-1.4592,-1.4736,-1.4698,-1.4574,-1.4176,-1.3955,-1.4231,-1.3832,-1.3701,-1.4082,-1.4082,-1.4282,-1.4736,-1.4883,-1.5209,-1.5618,-1.5704,-1.5784,-1.5784,-1.5784,-1.5784,-1.5784,-1.5784,-1.6021,-1.6447,-1.6824,-1.7466,0.0,0.0,0.0,0.0,0.0,0.0,0.0,0.0,0.0,0.0,0.0,0.0,0.0,0.0,0.0,0.0,0.0,0.0,0.0,0.0,0.0,0.0,0.0,0.0,0.0,-0.0249,-0.0435,-0.0503,-0.0995,-0.142,-0.1482,-0.1791,-0.1977,-0.1977,-0.1977,-0.1977,-0.1977,-0.1977,-0.1977,-0.1977,-0.1977,-0.1977,-0.1977,-0.1977,-0.1977,-0.1977,-0.1977,-0.1977,-0.21,-0.3024,-0.4125,-0.5269,-0.6311,-0.7707,-0.901,-0.901,-0.9176,-0.9327,-0.9228,-0.9042,-0.8885,-0.8885,-0.8885,-0.8885,-0.8885,-0.8885,-0.8885,-0.8885,-0.8885,-0.8885,-0.8885,-0.8885,-0.8885,-0.8885,-0.932,-0.9871,-1.046,-1.0578,-1.0474,-1.0164,-1.0464,-1.0861,-1.1049,-1.197,-1.3001,-1.4004,-1.4208,-1.4172,-1.399,-1.3701,-1.3603,-1.3856,-1.3582,-1.3574,-1.4039,-1.4082,-1.4188,-1.4442,-1.4776,-1.5156,-1.5444,-1.5698,-1.5784,-1.5784,-1.5784,-1.5784,-1.5784,-1.5784,-1.5927,-1.613,-1.6353,-1.6857,0.0,0.0,0.0,0.0,0.0,0.0,0.0,0.0,0.0,0.0,0.0,0.0,0.0,0.0,0.0,0.0,0.0,0.0,0.0,0.0,0.0,0.0,0.0,0.0,0.0,-0.0062,-0.0185,-0.0496,-0.0618,-0.0926,-0.1482,-0.1544,-0.173,-0.1977,-0.1977,-0.1977,-0.1977,-0.1977,-0.1977,-0.1977,-0.1977,-0.1977,-0.1977,-0.1977,-0.1977,-0.1977,-0.1977,-0.1977,-0.2038,-0.2777,-0.3488,-0.4228,-0.5489,-0.6758,-0.7914,-0.8423,-0.8852,-0.9221,-0.9022,-0.8898,-0.8885,-0.8885,-0.8885,-0.8885,-0.8885,-0.8885,-0.8885,-0.8885,-0.8885,-0.8885,-0.8885,-0.8885,-0.8885,-0.8885,-0.9217,-0.9541,-0.9871,-0.9926,-0.9875,-0.9587,-0.9891,-1.0296,-1.0506,-1.1424,-1.2467,-1.3485,-1.3835,-1.4004,-1.4196,-1.3809,-1.3676,-1.409,-1.3709,-1.3574,-1.4039,-1.4082,-1.4108,-1.4148,-1.4713,-1.5204,-1.5738,-1.5758,-1.5784,-1.5784,-1.5784,-1.5784,-1.5784,-1.5784,-1.5832,-1.5879,-1.5927,-1.6211,0.0,0.0,0.0,0.0,0.0,0.0,0.0,0.0,0.0,0.0,0.0,0.0,0.0,0.0,0.0,0.0,0.0,0.0,0.0,0.0,0.0,0.0,0.0,0.0,0.0,0.0,-0.0062,-0.0247,-0.037,-0.0617,-0.0926,-0.1111,-0.1296,-0.1482,-0.1482,-0.1482,-0.1482,-0.1668,-0.1791,-0.1977,-0.1977,-0.1977,-0.1977,-0.1977,-0.1977,-0.1977,-0.1977,-0.1977,-0.2037,-0.2508,-0.303,-0.3727,-0.4647,-0.5848,-0.7206,-0.8244,-0.8704,-0.8854,-0.8905,-0.8885,-0.8885,-0.8885,-0.8885,-0.8885,-0.8885,-0.8885,-0.8885,-0.8885,-0.8885,-0.8885,-0.8885,-0.8885,-0.8885,-0.8885,-0.8995,-0.9133,-0.9214,-0.9193,-0.9101,-0.8841,-0.919,-0.967,-0.9896,-1.0846,-1.1922,-1.2942,-1.3437,-1.3776,-1.4064,-1.3882,-1.3799,-1.3951,-1.3773,-1.3728,-1.4053,-1.4082,-1.4229,-1.4579,-1.4861,-1.5217,-1.5758,-1.5784,-1.5784,-1.5784,-1.5784,-1.5784,-1.5784,-1.5784,-1.5784,-1.5784,-1.5784,-1.6021,0.0,0.0,0.0,0.0,0.0,0.0,0.0,0.0,0.0,0.0,0.0,0.0,0.0,0.0,0.0,0.0,0.0,0.0,0.0,0.0,0.0,0.0,0.0,0.0,0.0,0.0,0.0,0.0,-0.0247,-0.0432,-0.0494,-0.0741,-0.0926,-0.0988,-0.0988,-0.0988,-0.0988,-0.1235,-0.1544,-0.1915,-0.1977,-0.1977,-0.1977,-0.1977,-0.1977,-0.1977,-0.1977,-0.1973,-0.1964,-0.2181,-0.2579,-0.3094,-0.3702,-0.4955,-0.6546,-0.7834,-0.8357,-0.8429,-0.8768,-0.8885,-0.8885,-0.8885,-0.8885,-0.8885,-0.8885,-0.8885,-0.8885,-0.8885,-0.8885,-0.8885,-0.8885,-0.8885,-0.8885,-0.8885,-0.8885,-0.8844,-0.8743,-0.871,-0.8621,-0.833,-0.8678,-0.9077,-0.9343,-1.0256,-1.1238,-1.2204,-1.2797,-1.3273,-1.3602,-1.3614,-1.3656,-1.383,-1.3755,-1.3827,-1.4066,-1.4082,-1.4335,-1.4968,-1.5008,-1.5217,-1.5758,-1.5784,-1.5784,-1.5784,-1.5784,-1.5784,-1.5784,-1.5784,-1.5784,-1.5784,-1.5784,-1.5927,0.0,0.0,0.0,0.0,0.0,0.0,0.0,0.0,0.0,0.0,0.0,0.0,0.0,0.0,0.0,0.0,0.0,0.0,0.0,0.0,0.0,0.0,0.0,0.0,0.0,0.0,0.0,0.0,0.0,-0.0185,-0.0494,-0.0494,-0.0679,-0.0988,-0.0988,-0.0988,-0.0988,-0.105,-0.1173,-0.1543,-0.1853,-0.1977,-0.1977,-0.1977,-0.1977,-0.1977,-0.1977,-0.196,-0.1934,-0.1932,-0.1957,-0.1961,-0.2591,-0.393,-0.5613,-0.6776,-0.7549,-0.8097,-0.8712,-0.8885,-0.8885,-0.8885,-0.8885,-0.8885,-0.8885,-0.8885,-0.8885,-0.8885,-0.8885,-0.8885,-0.8885,-0.8885,-0.8885,-0.8885,-0.8885,-0.8844,-0.8743,-0.871,-0.8621,-0.833,-0.8524,-0.8773,-0.8855,-0.9517,-1.0364,-1.1198,-1.1775,-1.2262,-1.2786,-1.283,-1.3051,-1.3811,-1.3623,-1.361,-1.4066,-1.4082,-1.4335,-1.4968,-1.5008,-1.5217,-1.5758,-1.5784,-1.5784,-1.5784,-1.5784,-1.5784,-1.5784,-1.5784,-1.5784,-1.5784,-1.5784,-1.5832,0.0,0.0,0.0,0.0,0.0,0.0,0.0,0.0,0.0,0.0,0.0,0.0,0.0,0.0,0.0,0.0,0.0,0.0,0.0,0.0,0.0,0.0,0.0,0.0,0.0,0.0,0.0,0.0,0.0,-0.0062,-0.0185,-0.0185,-0.0247,-0.037,-0.037,-0.037,-0.037,-0.0556,-0.0741,-0.0864,-0.142,-0.1791,-0.1977,-0.1977,-0.1977,-0.1975,-0.1956,-0.1941,-0.1867,-0.1832,-0.1803,-0.1895,-0.267,-0.3717,-0.4979,-0.6371,-0.721,-0.7881,-0.8608,-0.8885,-0.8885,-0.8885,-0.8885,-0.8885,-0.8885,-0.8885,-0.8885,-0.8885,-0.8885,-0.8885,-0.8885,-0.8885,-0.8885,-0.8885,-0.8885,-0.8817,-0.8621,-0.8567,-0.8479,-0.8187,-0.8176,-0.8256,-0.8293,-0.8825,-0.9468,-1.01,-1.0641,-1.1179,-1.1717,-1.2083,-1.2507,-1.311,-1.375,-1.4205,-1.441,-1.4369,-1.4603,-1.519,-1.5115,-1.5217,-1.5758,-1.5784,-1.5784,-1.5784,-1.5784,-1.5784,-1.5784,-1.5784,-1.5784,-1.5784,-1.5784,-1.5784,0.0118,0.0079,0.0,0.0,0.0,0.0,0.0,0.0,0.0,0.0,0.0,0.0,0.0,0.0,0.0,0.0,0.0,0.0,0.0,0.0,0.0,0.0,0.0,0.0,0.0,0.0,0.0,0.0,0.0,0.0,0.0,0.0,0.0,0.0,0.0,0.0,0.0,-0.0243,-0.0365,-0.0487,-0.0974,-0.1346,-0.1668,-0.1791,-0.1848,-0.1838,-0.1879,-0.1861,-0.184,-0.1799,-0.1778,-0.1881,-0.2478,-0.3306,-0.4369,-0.5755,-0.6816,-0.7604,-0.8553,-0.8885,-0.8885,-0.8885,-0.8885,-0.8885,-0.8885,-0.8885,-0.8885,-0.8885,-0.8885,-0.8885,-0.8885,-0.8885,-0.8885,-0.8885,-0.8844,-0.8798,-0.854,-0.8445,-0.8343,-0.8042,-0.7988,-0.7988,-0.7988,-0.8386,-0.8825,-0.9262,-0.9706,-1.0199,-1.0641,-1.1179,-1.1773,-1.2509,-1.3725,-1.4456,-1.4456,-1.4507,-1.4776,-1.5364,-1.5169,-1.5217,-1.5758,-1.5784,-1.5784,-1.5784,-1.5784,-1.5784,-1.5784,-1.5784,-1.5784,-1.5784,-1.5784,-1.5784,0.0362,0.0197,0.0,0.0,0.0,0.0,0.0,0.0,0.0,0.0,0.0,0.0,0.0,0.0,0.0,0.0,0.0,0.0,0.0,0.0,0.0,0.0,0.0,0.0,0.0,0.0,0.0,0.0,0.0,0.0,0.0,0.0,0.0,0.0,0.0,0.0,0.0,0.0,-0.0177,-0.0471,-0.0471,-0.0659,-0.0988,-0.1358,-0.1469,-0.1448,-0.1749,-0.1837,-0.1783,-0.1783,-0.1823,-0.1795,-0.1795,-0.2522,-0.3754,-0.4975,-0.6144,-0.7376,-0.8491,-0.8885,-0.8885,-0.8885,-0.8885,-0.8885,-0.8885,-0.8885,-0.8885,-0.8885,-0.8885,-0.8885,-0.8885,-0.8885,-0.8885,-0.8885,-0.8818,-0.8669,-0.8513,-0.837,-0.8221,-0.8022,-0.7988,-0.7988,-0.7988,-0.8237,-0.8478,-0.8775,-0.9031,-0.9286,-0.9575,-1.0068,-1.087,-1.2178,-1.3426,-1.4167,-1.4211,-1.4374,-1.4776,-1.5364,-1.5169,-1.5217,-1.5758,-1.5784,-1.5784,-1.5784,-1.5784,-1.5784,-1.5784,-1.5784,-1.5784,-1.5784,-1.5784,-1.5784,0.0321,0.0161,0.0,0.0,0.0,0.0,0.0,0.0,0.0,0.0,0.0,0.0,0.0,0.0,0.0,0.0,0.0,0.0,0.0,0.0,0.0,0.0,0.0,0.0,0.0,0.0,0.0,0.0,0.0,0.0,0.0,0.0,0.0,0.0,0.0,0.0,0.0,0.0,-0.0059,-0.0177,-0.0353,-0.071,-0.1314,-0.1375,-0.155,-0.1779,-0.1819,-0.1799,-0.1782,-0.1817,-0.1804,-0.1795,-0.1795,-0.2522,-0.3754,-0.4975,-0.6144,-0.7376,-0.8491,-0.8885,-0.8885,-0.8885,-0.8885,-0.8885,-0.8885,-0.8885,-0.8885,-0.8885,-0.8885,-0.8885,-0.8885,-0.8804,-0.8777,-0.8777,-0.8743,-0.8642,-0.8391,-0.8354,-0.8221,-0.8022,-0.7988,-0.7988,-0.7988,-0.8088,-0.8137,-0.8237,-0.8287,-0.8535,-0.8981,-0.9517,-1.028,-1.1395,-1.2678,-1.3564,-1.3968,-1.4325,-1.4844,-1.5423,-1.5185,-1.5217,-1.5758,-1.5784,-1.5784,-1.5784,-1.5784,-1.5784,-1.5784,-1.5784,-1.5784,-1.5784,-1.5784,-1.5784,0.0402,0.0206,0.0,0.0,0.0,0.0,0.0,0.0,0.0,0.0,0.0,0.0,0.0,0.0,0.0,0.0,0.0,0.0,0.0,0.0,0.0,0.0,0.0,0.0,0.0,0.0,0.0,0.0,0.0,0.0,0.0,0.0,0.0,0.0,0.0,0.0,0.0,0.0,0.0,0.0,-0.0173,-0.0578,-0.1214,-0.1347,-0.1468,-0.1691,-0.1778,-0.1823,-0.1821,-0.1802,-0.1795,-0.1795,-0.1795,-0.2522,-0.3754,-0.4975,-0.6144,-0.7376,-0.8491,-0.8885,-0.8885,-0.8885,-0.8885,-0.8885,-0.8885,-0.8885,-0.8885,-0.8885,-0.8885,-0.8871,-0.8811,-0.8777,-0.871,-0.871,-0.8621,-0.8486,-0.8309,-0.8221,-0.8153,-0.8008,-0.7988,-0.7988,-0.7988,-0.7988,-0.7988,-0.7988,-0.7988,-0.8137,-0.8577,-0.9023,-0.9657,-1.0609,-1.1814,-1.2737,-1.3377,-1.3906,-1.4448,-1.514,-1.4975,-1.5107,-1.5663,-1.5784,-1.5784,-1.5784,-1.5784,-1.5784,-1.5784,-1.5784,-1.5784,-1.5784,-1.5784,-1.5784,0.0562,0.0294,0.0,0.0,0.0,0.0,0.0,0.0,0.0,0.0,0.0,0.0,0.0,0.0,0.0,0.0,0.0,0.0,0.0,0.0,0.0,0.0,0.0,0.0,0.0,0.0,0.0,0.0,0.0,0.0,0.0,0.0,0.0,0.0,0.0,0.0,0.0,0.0,0.0,0.0,0.0,-0.0336,-0.0842,-0.1215,-0.1339,-0.1375,-0.1693,-0.1795,-0.1795,-0.1795,-0.1795,-0.1795,-0.1795,-0.2522,-0.3698,-0.492,-0.6089,-0.7265,-0.8436,-0.8885,-0.8885,-0.8885,-0.8885,-0.8885,-0.8885,-0.8885,-0.8885,-0.8885,-0.8871,-0.8831,-0.875,-0.8689,-0.8669,-0.8669,-0.8465,-0.832,-0.8255,-0.814,-0.7988,-0.7988,-0.7988,-0.7988,-0.7988,-0.7988,-0.7988,-0.7988,-0.7988,-0.8088,-0.8336,-0.8577,-0.9023,-0.9821,-1.0788,-1.1717,-1.2408,-1.2961,-1.3637,-1.4424,-1.4509,-1.4765,-1.5391,-1.5689,-1.5784,-1.5784,-1.5784,-1.5784,-1.5784,-1.5784,-1.5784,-1.5784,-1.5784,-1.5784,0.0596,0.0294,0.0,0.0,0.0,0.0,0.0,0.0,0.0,0.0,0.0,0.0,0.0,0.0,0.0,0.0,0.0,0.0,0.0,0.0,0.0,0.0,0.0,0.0,0.0,0.0,0.0,0.0,0.0,0.0,0.0,0.0,0.0,0.0,0.0,0.0,0.0,0.0,0.0,0.0,-0.0224,-0.0393,-0.0505,-0.0847,-0.1245,-0.1691,-0.1742,-0.1795,-0.1795,-0.1795,-0.1795,-0.1795,-0.1795,-0.2354,-0.3362,-0.4585,-0.5648,-0.671,-0.8097,-0.8595,-0.8602,-0.8823,-0.8885,-0.8885,-0.8885,-0.8885,-0.8885,-0.8885,-0.8797,-0.875,-0.8716,-0.854,-0.8364,-0.8364,-0.8316,-0.8235,-0.8113,-0.8015,-0.7988,-0.7988,-0.7988,-0.7988,-0.7988,-0.7988,-0.7988,-0.7988,-0.7988,-0.8038,-0.8088,-0.8137,-0.8386,-0.8973,-0.9657,-1.0248,-1.0837,-1.1317,-1.1956,-1.2764,-1.3354,-1.4002,-1.4819,-1.5452,-1.5784,-1.5784,-1.5784,-1.5784,-1.5784,-1.5784,-1.5784,-1.5784,-1.5784,-1.5784,0.0546,0.0294,0.0,0.0,0.0,0.0,0.0,0.0,0.0,0.0,0.0,0.0,0.0,0.0,0.0,0.0,0.0,0.0,0.0,0.0,0.0,0.0,0.0,0.0,0.0,0.0,0.0,0.0,0.0,0.0,0.0,0.0,0.0,0.0,0.0,0.0,0.0,0.0,0.0,0.0,-0.0168,-0.028,-0.0393,-0.0729,-0.1065,-0.1346,-0.1346,-0.1458,-0.157,-0.157,-0.1683,-0.1795,-0.1795,-0.2244,-0.3026,-0.3918,-0.4979,-0.6038,-0.7371,-0.8042,-0.8318,-0.8768,-0.8885,-0.8871,-0.8852,-0.8832,-0.8811,-0.8743,-0.8662,-0.8587,-0.852,-0.8384,-0.8248,-0.818,-0.816,-0.814,-0.8008,-0.7988,-0.7988,-0.7988,-0.7988,-0.7988,-0.7988,-0.7988,-0.7988,-0.7988,-0.7988,-0.7988,-0.7988,-0.7988,-0.8137,-0.8577,-0.8973,-0.941,-0.9953,-1.0356,-1.0969,-1.1912,-1.2752,-1.3612,-1.4484,-1.5356,-1.5784,-1.5784,-1.5784,-1.5784,-1.5784,-1.5784,-1.5784,-1.5784,-1.5784,-1.5784,0.0494,0.0252,0.0,0.0,0.0,0.0,0.0,0.0,0.0,0.0,0.0,0.0,0.0,0.0,0.0,0.0,0.0,0.0,0.0,0.0,0.0,0.0,0.0,0.0,0.0,0.0,0.0,0.0,0.0,0.0,0.0,0.0,0.0,0.0,0.0,0.0,0.0,0.0,0.0,0.0,0.0,-0.0112,-0.0336,-0.0617,-0.0785,-0.0897,-0.0897,-0.1009,-0.1234,-0.129,-0.1458,-0.1739,-0.1795,-0.2132,-0.2692,-0.3304,-0.425,-0.5425,-0.6594,-0.7432,-0.8048,-0.8719,-0.8885,-0.8858,-0.8784,-0.875,-0.8723,-0.8594,-0.854,-0.8492,-0.8377,-0.833,-0.8275,-0.8147,-0.8049,-0.8022,-0.7995,-0.7988,-0.7988,-0.7988,-0.7988,-0.7988,-0.7988,-0.7988,-0.7988,-0.7988,-0.7988,-0.7988,-0.7988,-0.7988,-0.8088,-0.8287,-0.8528,-0.8825,-0.9262,-0.9517,-1.0117,-1.1198,-1.2252,-1.3221,-1.4052,-1.5105,-1.5689,-1.5689,-1.5784,-1.5784,-1.5784,-1.5784,-1.5784,-1.5784,-1.5784,-1.5784,0.0481,0.0252,0.0,0.0,0.0,0.0,0.0,0.0,0.0,0.0,0.0,0.0,0.0,0.0,0.0,0.0,0.0,0.0,0.0,0.0,0.0,0.0,0.0,0.0,0.0,0.0,0.0,0.0,0.0,0.0,0.0,0.0,0.0,0.0,0.0,0.0,0.0,0.0,0.0,0.0,0.0,0.0,-0.0056,-0.0112,-0.0393,-0.0897,-0.0897,-0.0897,-0.0953,-0.1177,-0.1346,-0.1402,-0.1683,-0.1964,-0.2356,-0.297,-0.3807,-0.4815,-0.626,-0.7154,-0.7771,-0.8608,-0.8885,-0.8878,-0.8858,-0.8851,-0.8851,-0.8831,-0.8784,-0.8676,-0.8655,-0.8554,-0.8452,-0.8425,-0.833,-0.8201,-0.8015,-0.7988,-0.7988,-0.7988,-0.7988,-0.7988,-0.7988,-0.7988,-0.7988,-0.7988,-0.7988,-0.7988,-0.7988,-0.7988,-0.7988,-0.8038,-0.8088,-0.8137,-0.8187,-0.8237,-0.8733,-0.9821,-1.1082,-1.2242,-1.3221,-1.4496,-1.5178,-1.5178,-1.5594,-1.5784,-1.5784,-1.5784,-1.5784,-1.5784,-1.5784,-1.5784,0.038,0.017,0.0,0.0,0.0,0.0,0.0,0.0,0.0,0.0,0.0,0.0,0.0,0.0,0.0,0.0,0.0,0.0,0.0,0.0,0.0,0.0,0.0,0.0,0.0,0.0,0.0,0.0,0.0,0.0,0.0,0.0,0.0,0.0,0.0,0.0,0.0,0.0,0.0,0.0,0.0,0.0,0.0,0.0,-0.0168,-0.0393,-0.0393,-0.0505,-0.0617,-0.0737,-0.0905,-0.1066,-0.1247,-0.147,-0.1739,-0.2018,-0.2914,-0.4201,-0.5532,-0.6594,-0.7549,-0.8546,-0.8885,-0.8865,-0.8838,-0.8811,-0.8791,-0.871,-0.8635,-0.8581,-0.8581,-0.8533,-0.8479,-0.8479,-0.8431,-0.835,-0.8201,-0.8099,-0.8015,-0.8153,-0.8167,-0.8167,-0.8167,-0.8099,-0.7988,-0.7988,-0.7988,-0.7988,-0.7988,-0.7988,-0.7988,-0.7988,-0.7988,-0.7988,-0.7988,-0.7988,-0.8435,-0.9525,-1.0837,-1.2047,-1.3076,-1.44,-1.5083,-1.5083,-1.5452,-1.5642,-1.5642,-1.5737,-1.5784,-1.5784,-1.5784,-1.5784,0.03,0.0123,0.0044,0.0,0.0,0.0,0.0,0.0,0.0,0.0,0.0,0.0,0.0,0.0,0.0,0.0,0.0,0.0,0.0,0.0,0.0,0.0,0.0,0.0,0.0,0.0,0.0,0.0,0.0,0.0,0.0,0.0,0.0,0.0,0.0,0.0,0.0,0.0,0.0,0.0,0.0,0.0,0.0,0.0,0.0,0.0,0.0,-0.0112,-0.0281,-0.04,-0.0569,-0.0786,-0.0857,-0.1025,-0.1234,-0.129,-0.2186,-0.353,-0.4752,-0.5977,-0.7154,-0.8325,-0.8712,-0.8803,-0.875,-0.8771,-0.8743,-0.8628,-0.8601,-0.8601,-0.8601,-0.8601,-0.8601,-0.8601,-0.8567,-0.8499,-0.8357,-0.8208,-0.814,-0.8296,-0.8347,-0.832,-0.832,-0.814,-0.7988,-0.7988,-0.7988,-0.7988,-0.7988,-0.7988,-0.7988,-0.7988,-0.7988,-0.7988,-0.7988,-0.7988,-0.8435,-0.9525,-1.0788,-1.195,-1.298,-1.4256,-1.4892,-1.4892,-1.5213,-1.5452,-1.5499,-1.5689,-1.5784,-1.5784,-1.5784,-1.5784,0.0335,0.0184,0.0162,0.0044,0.0,0.0,0.0,0.0,0.0,0.0,0.0,0.0,0.0,0.0,0.0,0.0,0.0,0.0,0.0,0.0,0.0,0.0,0.0,0.0,0.0,0.0,0.0,0.0,0.0,0.0,0.0,0.0,0.0,0.0,0.0,0.0,0.0,0.0,0.0,0.0,0.0,0.0,0.0,0.0,0.0,0.0,0.0,0.0,-0.0056,-0.0285,-0.0398,-0.0449,-0.08,-0.0911,-0.0953,-0.1234,-0.1906,-0.2912,-0.4142,-0.5314,-0.6543,-0.7654,-0.8263,-0.854,-0.8816,-0.8871,-0.8871,-0.8865,-0.8858,-0.8858,-0.8858,-0.8858,-0.8858,-0.8858,-0.8804,-0.8655,-0.8506,-0.8357,-0.8303,-0.8445,-0.8364,-0.832,-0.832,-0.814,-0.7988,-0.7988,-0.7988,-0.7988,-0.7988,-0.7988,-0.7988,-0.7988,-0.7988,-0.7988,-0.7988,-0.7988,-0.8435,-0.9525,-1.0641,-1.1717,-1.2759,-1.3823,-1.434,-1.434,-1.4831,-1.5274,-1.5499,-1.5689,-1.5784,-1.5784,-1.5784,-1.5784,0.0533,0.0342,0.0186,0.0159,0.0085,0.0,0.0,0.0,0.0,0.0,0.0,0.0,0.0,0.0,0.0,0.0,0.0,0.0,0.0,0.0,0.0,0.0,0.0,0.0,0.0,0.0,0.0,0.0,0.0,0.0,0.0,0.0,0.0,0.0,0.0,0.0,0.0,0.0,0.0,0.0,0.0,0.0,0.0,0.0,0.0,0.0,0.0,0.0,0.0,-0.0115,-0.0115,-0.0169,-0.0289,-0.0402,-0.0617,-0.0673,-0.129,-0.2242,-0.3078,-0.4136,-0.5365,-0.6705,-0.7482,-0.8042,-0.8712,-0.8885,-0.8885,-0.8885,-0.8885,-0.8885,-0.8885,-0.8885,-0.8885,-0.8885,-0.8818,-0.8723,-0.8764,-0.8655,-0.8567,-0.8621,-0.8587,-0.8554,-0.8554,-0.8425,-0.8323,-0.8323,-0.8248,-0.8187,-0.8187,-0.8099,-0.7988,-0.7988,-0.7988,-0.7988,-0.7988,-0.7988,-0.8386,-0.9286,-1.0199,-1.1179,-1.2224,-1.3244,-1.3871,-1.4027,-1.4748,-1.5131,-1.5226,-1.5642,-1.5784,-1.5784,-1.5784,-1.5784,0.0941,0.0729,0.0546,0.04,0.0231,0.0122,0.0,0.0,0.0,0.0,0.0,0.0,0.0,0.0,0.0,0.0,0.0,0.0,0.0,0.0,0.0,0.0,0.0,0.0,0.0,0.0,0.0,0.0,0.0,0.0,0.0,0.0,0.0,0.0,0.0,0.0,0.0,0.0,0.0,0.0,0.0,0.0,0.0,0.0,0.0,0.0,0.0,0.0,0.0,0.0,0.0,0.0,0.0,-0.0115,-0.028,-0.0393,-0.0841,-0.157,-0.2183,-0.3134,-0.425,-0.5644,-0.6478,-0.7149,-0.8042,-0.838,-0.8491,-0.8546,-0.8657,-0.8768,-0.8885,-0.8885,-0.8885,-0.8885,-0.8804,-0.8811,-0.8858,-0.8818,-0.8723,-0.8777,-0.8743,-0.871,-0.871,-0.8581,-0.8479,-0.8479,-0.8364,-0.832,-0.832,-0.8133,-0.7988,-0.7988,-0.7988,-0.7988,-0.7988,-0.7988,-0.8287,-0.9031,-0.9756,-1.0592,-1.1688,-1.27,-1.3389,-1.3738,-1.4556,-1.4987,-1.4987,-1.5547,-1.5784,-1.5784,-1.5784,-1.5784,0.0,0.0,0.0,0.0819,0.0569,0.0331,0.0077,0.0,0.0,0.0,0.0,0.0,0.0,0.0,0.0,0.0,0.0,0.0,0.0,0.0,0.0,0.0,0.0,0.0,0.0,0.0,0.0,0.0,0.0,0.0,0.0,0.0,0.0,0.0,0.0,0.0,0.0,0.0,0.0,0.0,0.0,0.0,0.0,0.0,0.0,0.0,0.0,0.0,0.0,0.0,0.0,0.0,0.0,0.0,-0.0056,-0.028,-0.0616,-0.0953,-0.157,-0.2298,-0.3248,-0.4418,-0.5254,-0.5922,-0.6821,-0.7321,-0.7604,-0.7881,-0.8208,-0.854,-0.8823,-0.8885,-0.8885,-0.8885,-0.8885,-0.8885,-0.8885,-0.8825,-0.8764,-0.8858,-0.8818,-0.8716,-0.8716,-0.8594,-0.8499,-0.8499,-0.837,-0.8327,-0.8327,-0.814,-0.7988,-0.7988,-0.7988,-0.7988,-0.7988,-0.7988,-0.8237,-0.8775,-0.9262,-1.0051,-1.11,-1.2106,-1.2931,-1.3448,-1.4256,-1.4688,-1.4688,-1.5404,-1.5784,-1.5784,-1.5784,-1.5784,0.234,0.0,0.0,0.0,0.0,0.0,0.0375,0.0221,0.0162,0.0132,0.0046,0.0,0.0,0.0,0.0,0.0,0.0,0.0,0.0,0.0,0.0,0.0,0.0,0.0,0.0,0.0,0.0,0.0,0.0,0.0,0.0,0.0,0.0103,0.0308,0.0309,0.0364,0.058,0.0371,0.0267,0.0271,0.0108,0.0,0.0,0.0,0.0,0.0,0.0,0.0,0.0,0.0,0.0,0.0,0.0,0.0,0.0,-0.0111,-0.0167,-0.028,-0.0449,-0.0953,-0.1681,-0.2628,-0.3354,-0.4024,-0.4975,-0.5588,-0.6089,-0.6644,-0.7149,-0.7709,-0.8429,-0.8768,-0.8885,-0.8885,-0.8885,-0.8885,-0.8885,-0.8851,-0.8831,-0.8871,-0.8851,-0.8817,-0.8817,-0.8838,-0.8811,-0.8811,-0.8587,-0.8425,-0.8425,-0.8201,-0.7988,-0.7988,-0.7988,-0.7988,-0.7988,-0.7988,-0.8137,-0.8478,-0.8825,-0.9418,-1.0314,-1.114,-1.197,-1.271,-1.3619,-1.4196,-1.44,-1.4975,-1.5274,-1.5322,-1.5499,-1.5642,0.3194,0.2867,0.2512,0.2139,0.0,0.0,0.0852,0.0685,0.0564,0.0451,0.0303,0.0182,0.0048,0.0,0.0,0.0,0.0,0.0,0.0,0.0,0.0,0.0,0.0,0.0,0.0,0.0,0.0,0.0,0.0,0.0,0.0,0.0,0.0101,0.0404,0.0712,0.0924,0.0987,0.0941,0.0791,0.0586,0.016,0.0,0.0,0.0,0.0,0.0,0.0,0.0,0.0,0.0,0.0,0.0,0.0,0.0,0.0,0.0,0.0,0.0,0.0,-0.028,-0.0841,-0.1567,-0.2183,-0.2686,-0.3525,-0.4195,-0.4749,-0.5361,-0.6422,-0.7487,-0.8152,-0.8602,-0.8885,-0.8885,-0.8885,-0.8885,-0.8885,-0.8885,-0.8885,-0.8885,-0.8885,-0.8885,-0.8885,-0.8831,-0.8845,-0.8845,-0.8587,-0.8391,-0.8391,-0.8187,-0.8015,-0.8126,-0.8133,-0.816,-0.8221,-0.8174,-0.8183,-0.8334,-0.8421,-0.8775,-0.9476,-1.0158,-1.0944,-1.1883,-1.2894,-1.3703,-1.4292,-1.4844,-1.5178,-1.5261,-1.5452,-1.5594,0.4042,0.3778,0.3421,0.2934,0.2496,0.0,0.1577,0.1369,0.1201,0.0873,0.068,0.0461,0.0088,0.0044,0.0044,0.0044,0.0,0.0,0.0,0.0,0.0,0.0,0.0,0.0,0.0,0.0,0.0,0.0,0.0,0.0,0.005,0.005,0.0202,0.0555,0.1281,0.1603,0.1449,0.1576,0.1429,0.09,0.0318,0.0053,0.0053,0.0,0.0,0.0,0.0,0.0,0.0,0.0,0.0,0.0,0.0,0.0,0.0,0.0,0.0,0.0,0.0,-0.0168,-0.0449,-0.0953,-0.1346,-0.1682,-0.2241,-0.2798,-0.3469,-0.4195,-0.5866,-0.7482,-0.7765,-0.838,-0.8885,-0.8885,-0.8885,-0.8885,-0.8885,-0.8885,-0.8885,-0.8885,-0.8885,-0.8885,-0.8885,-0.8811,-0.871,-0.871,-0.8459,-0.832,-0.832,-0.8133,-0.8092,-0.8228,-0.8313,-0.8316,-0.8425,-0.8336,-0.8313,-0.8248,-0.8113,-0.8237,-0.8726,-0.9262,-1.0002,-1.1051,-1.2106,-1.3173,-1.4196,-1.4736,-1.5166,-1.5404,-1.5404,-1.5547,0.4726,0.4508,0.4177,0.369,0.3348,0.0,0.2548,0.2137,0.1759,0.1466,0.1088,0.0703,0.0389,0.0314,0.0276,0.0161,0.0167,0.0133,0.0,0.0,0.0,0.0,0.0,0.0,0.0,0.0,0.0,0.0,0.0,0.0101,0.0303,0.0303,0.0757,0.1665,0.2024,0.2435,0.2792,0.2443,0.209,0.1734,0.0766,0.0309,0.0313,0.0104,0.0,0.0,0.0,0.0,0.0,0.0,0.0,0.0,0.0,0.0,0.0,0.0,0.0,0.0,0.0,-0.0056,-0.0112,-0.0224,-0.028,-0.0393,-0.0504,-0.0953,-0.1737,-0.3306,-0.4923,-0.6255,-0.6821,-0.7765,-0.8595,-0.8595,-0.8768,-0.8885,-0.8885,-0.8885,-0.8885,-0.8885,-0.8885,-0.8885,-0.8885,-0.8811,-0.871,-0.871,-0.8459,-0.832,-0.832,-0.8133,-0.8002,-0.8029,-0.8194,-0.8235,-0.8133,-0.8214,-0.8214,-0.8092,-0.8008,-0.8137,-0.8478,-0.8775,-0.9369,-1.0216,-1.1678,-1.2856,-1.3678,-1.4208,-1.4592,-1.4879,-1.4879,-1.4975,0.5359,0.5081,0.4716,0.4332,0.3963,0.0,0.0,0.2876,0.2488,0.2128,0.1762,0.1361,0.0923,0.0786,0.0718,0.0655,0.0609,0.0604,0.056,0.0229,0.0,0.0,0.0,0.0,0.0,0.0,0.0,0.0,0.0,0.01,0.0404,0.0757,0.1362,0.2169,0.3126,0.3679,0.378,0.3679,0.3277,0.2569,0.1513,0.0863,0.0563,0.0205,0.0,0.0,0.0,0.0,0.0,0.0,0.0,0.0,0.0,0.0,0.0,0.0,0.0,0.0,0.0,0.0,0.0,0.0,0.0,0.0,0.0,-0.0449,-0.1177,-0.2522,-0.3863,-0.5087,-0.5875,-0.6821,-0.7654,-0.7992,-0.8269,-0.8491,-0.8657,-0.8823,-0.8885,-0.8885,-0.8824,-0.8825,-0.8825,-0.8642,-0.8492,-0.8492,-0.8303,-0.8153,-0.8153,-0.8035,-0.8022,-0.8147,-0.8221,-0.8269,-0.8262,-0.8269,-0.8235,-0.816,-0.8029,-0.8038,-0.8187,-0.8336,-0.8825,-0.9764,-1.114,-1.2214,-1.3087,-1.363,-1.416,-1.4688,-1.4688,-1.4831,0.58,0.5499,0.512,0.4861,0.4473,0.4106,0.0,0.0,0.0,0.2793,0.2496,0.2151,0.1651,0.1495,0.1397,0.1365,0.1329,0.1294,0.1318,0.0746,0.0269,0.0141,0.0094,0.0094,0.0095,0.0095,0.0095,0.0096,0.0097,0.0245,0.0649,0.1352,0.2059,0.2773,0.4131,0.4784,0.463,0.4784,0.4383,0.3425,0.2267,0.1513,0.101,0.0353,0.0101,0.005,0.0,0.0,0.0,0.0,0.0,0.0,0.0,0.0,0.0,0.0,0.0,0.0,0.0,0.0,0.0,0.0,0.0,0.0,0.0,-0.0335,-0.0894,-0.1738,-0.2744,-0.3807,-0.4644,-0.5524,-0.6347,-0.6901,-0.7381,-0.7743,-0.8127,-0.8462,-0.8742,-0.8742,-0.8676,-0.8642,-0.8703,-0.8465,-0.832,-0.832,-0.814,-0.7988,-0.7988,-0.7988,-0.8035,-0.8214,-0.8255,-0.8303,-0.8391,-0.8323,-0.8255,-0.8228,-0.8106,-0.7988,-0.7988,-0.8038,-0.8528,-0.941,-1.0502,-1.1531,-1.2581,-1.3136,-1.3823,-1.464,-1.464,-1.4736,0.58,0.5684,0.546,0.5138,0.492,0.4727,0.4447,0.0,0.3822,0.3526,0.0,0.2902,0.2598,0.0,0.0,0.237,0.232,0.2286,0.2098,0.1812,0.1345,0.0622,0.0542,0.0501,0.0371,0.0371,0.0415,0.0545,0.0415,0.0752,0.1679,0.2097,0.2875,0.4135,0.4788,0.5236,0.5486,0.524,0.4839,0.4236,0.2924,0.2169,0.1816,0.0808,0.0353,0.0353,0.0101,0.0,0.0,0.0,0.0,0.0,0.0,0.0,0.0,0.0,0.0,0.0,0.0,0.0,0.0,0.0,0.0,0.0,0.0,-0.0055,-0.022,-0.0894,-0.1513,-0.2183,-0.2856,-0.365,-0.4422,-0.4974,-0.5723,-0.6457,-0.6993,-0.7687,-0.817,-0.817,-0.8262,-0.8404,-0.8662,-0.8465,-0.832,-0.832,-0.814,-0.7988,-0.7988,-0.7988,-0.7995,-0.8015,-0.8187,-0.8221,-0.8049,-0.8201,-0.8214,-0.8022,-0.8002,-0.7988,-0.7988,-0.8237,-0.8528,-0.8874,-0.9961,-1.1042,-1.2096,-1.2797,-1.3582,-1.4352,-1.4352,-1.434,0.6102,0.5895,0.5644,0.5338,0.5087,0.4836,0.4559,0.4391,0.4222,0.3994,0.0,0.0,0.0,0.0,0.0,0.0,0.3075,0.2991,0.2849,0.2598,0.2063,0.1024,0.0809,0.0741,0.0631,0.0801,0.0844,0.0721,0.0856,0.1228,0.1973,0.303,0.3985,0.4757,0.5508,0.5937,0.6087,0.5937,0.5636,0.5085,0.4232,0.3425,0.267,0.1564,0.0908,0.0606,0.0202,0.0,0.0,0.0,0.0,0.0,0.0,0.0,0.0,0.0,0.0,0.0,0.0,0.0,0.0,0.0,0.0,0.0,0.0,0.0,-0.011,-0.0502,-0.0953,-0.1401,-0.2018,-0.2545,-0.3164,-0.3875,-0.4575,-0.5312,-0.5999,-0.6954,-0.7697,-0.7849,-0.8111,-0.8361,-0.8431,-0.8275,-0.814,-0.814,-0.8029,-0.7988,-0.7988,-0.7988,-0.7988,-0.7988,-0.8099,-0.8113,-0.7995,-0.8099,-0.8106,-0.7995,-0.7988,-0.7988,-0.7988,-0.8088,-0.8237,-0.8336,-0.9377,-1.0453,-1.156,-1.2457,-1.3389,-1.4292,-1.4292,-1.4292,0.6432,0.6064,0.5732,0.5467,0.5142,0.4836,0.4559,0.4522,0.4513,0.4374,0.4368,0.0,0.0,0.0,0.4043,0.3919,0.0,0.372,0.3635,0.3339,0.2705,0.1548,0.1284,0.1166,0.1143,0.1309,0.1364,0.1184,0.1359,0.1771,0.2478,0.3828,0.478,0.5243,0.5984,0.6404,0.6387,0.6387,0.6187,0.5687,0.5186,0.4433,0.3478,0.2318,0.1564,0.1111,0.0404,0.0101,0.0101,0.0052,0.0,0.0,0.0,0.0,0.0,0.0,0.0,0.0,0.0,0.0,0.0,0.0,0.0,0.0,0.0,0.0,-0.0054,-0.0221,-0.0442,-0.0774,-0.1218,-0.1475,-0.1778,-0.2586,-0.3199,-0.3847,-0.4773,-0.5884,-0.684,-0.7171,-0.7712,-0.8106,-0.8106,-0.8062,-0.7988,-0.7988,-0.7988,-0.7988,-0.7988,-0.7988,-0.7988,-0.7988,-0.7988,-0.7988,-0.7988,-0.7988,-0.7988,-0.7988,-0.7988,-0.7988,-0.7988,-0.7988,-0.7988,-0.7988,-0.9031,-1.0109,-1.1219,-1.2262,-1.334,-1.4292,-1.4292,-1.4292,0.6624,0.6139,0.5732,0.5467,0.5142,0.4836,0.4559,0.4607,0.4687,0.4687,0.4786,0.4887,0.4857,0.4857,0.481,0.4685,0.4665,0.0,0.0,0.4058,0.3378,0.2282,0.1975,0.1914,0.2047,0.184,0.1834,0.2122,0.1986,0.2381,0.3498,0.4286,0.4976,0.5663,0.6069,0.6328,0.6387,0.6387,0.6237,0.5992,0.5441,0.4889,0.4336,0.2975,0.2219,0.1917,0.0858,0.0404,0.0354,0.0103,0.0,0.0,0.0,0.0,0.0,0.0,0.0,0.0,0.0,0.0,0.0,0.0,0.0,0.0,0.0,0.0,0.0,0.0,0.0,-0.0053,-0.0053,-0.0053,-0.0208,-0.078,-0.1298,-0.1962,-0.304,-0.4344,-0.5406,-0.5972,-0.6904,-0.7603,-0.7603,-0.7846,-0.7988,-0.7988,-0.7988,-0.7988,-0.7988,-0.7988,-0.7988,-0.7988,-0.7988,-0.7988,-0.7988,-0.7988,-0.7988,-0.7988,-0.7988,-0.7988,-0.7988,-0.7988,-0.7988,-0.7988,-0.9031,-1.0109,-1.1219,-1.2262,-1.334,-1.4292,-1.4292,-1.4292,0.6908,0.6563,0.6281,0.6004,0.5756,0.5445,0.5068,0.5058,0.5168,0.5178,0.5257,0.5393,0.5488,0.5426,0.5277,0.5026,0.4904,0.4755,0.0,0.4006,0.3495,0.3035,0.3068,0.2976,0.2722,0.2911,0.2927,0.273,0.284,0.3169,0.3823,0.4606,0.5213,0.5708,0.5998,0.6203,0.6323,0.6399,0.6337,0.6287,0.6087,0.5737,0.5186,0.4332,0.3525,0.272,0.1663,0.101,0.0606,0.0203,0.0,0.0,0.0,0.0,0.0,0.0,0.0,0.0,0.0,0.0,0.0,0.0,0.0,0.0,0.0,0.0,0.0,0.0,0.0,0.0,0.0,0.0,-0.0104,-0.0467,-0.0823,-0.1323,-0.2221,-0.3341,-0.4362,-0.509,-0.5942,-0.6642,-0.6992,-0.7291,-0.759,-0.7939,-0.7988,-0.7988,-0.7988,-0.7988,-0.7988,-0.7988,-0.7988,-0.7988,-0.7988,-0.7988,-0.7988,-0.7988,-0.7988,-0.7988,-0.7988,-0.7988,-0.7988,-0.7988,-0.9031,-1.0109,-1.1219,-1.2262,-1.334,-1.4292,-1.4292,-1.4292,0.7763,0.7429,0.7228,0.7105,0.6753,0.6325,0.588,0.5726,0.5654,0.5487,0.5562,0.5711,0.5854,0.5725,0.5488,0.515,0.4982,0.4796,0.0,0.4126,0.3845,0.3642,0.3637,0.3543,0.3268,0.3489,0.3548,0.3355,0.3422,0.3621,0.4035,0.4701,0.523,0.5594,0.5877,0.61,0.6317,0.6382,0.6387,0.6387,0.6387,0.6187,0.5737,0.5186,0.4483,0.3578,0.237,0.1614,0.1161,0.0454,0.0151,0.0151,0.005,0.0,0.0,0.0,0.0,0.0,0.0,0.0,0.0,0.0,0.0,0.0,0.0,0.0,0.0,0.0,0.0,0.0,0.0,0.0,-0.0051,-0.0206,-0.041,-0.0713,-0.1415,-0.2281,-0.3099,-0.3833,-0.458,-0.5331,-0.5837,-0.6337,-0.693,-0.7739,-0.7939,-0.7988,-0.7988,-0.7988,-0.7988,-0.7988,-0.7988,-0.7988,-0.7988,-0.7988,-0.7988,-0.7988,-0.8092,-0.8119,-0.8119,-0.8174,-0.8194,-0.8194,-0.9155,-1.0079,-1.0987,-1.1993,-1.2943,-1.3775,-1.3811,-1.3919]}]]